GFSMA_925_rhum_000.txt.gz
RH
76 76 76 76 77 77 77 76 76 73 73 72 72 72 71 70 69 68 68 70 73 74 64 72 81 76 69 71 73 71 76 81 84 86 82 80 82 84 83 80 79 79 79
81 82 81 78 77 78 78 78 76 77 76 75 74 74 74 73 72 72 72 71 74 76 72 67 79 83 80 73 68 70 72 75 81 86 90 86 83 82 83 84 83 82 83
82 83 82 81 78 80 81 81 80 79 78 76 75 74 73 72 70 70 70 70 71 74 76 74 78 85 84 82 78 72 72 73 73 78 82 89 90 86 84 83 83 85 83
83 84 83 82 83 82 80 78 77 75 74 74 76 76 76 74 70 70 69 68 66 68 68 70 70 73 90 88 84 81 78 75 76 75 76 79 89 92 89 87 86 86 86
88 85 80 73 69 70 69 70 68 70 75 70 73 73 71 71 68 67 67 67 66 68 68 68 70 71 71 79 89 85 82 82 79 78 76 73 73 84 90 90 89 89 88
55 55 51 48 49 48 47 46 48 48 49 51 53 53 60 55 56 58 58 59 64 68 69 70 70 70 70 70 69 84 90 88 86 84 81 79 78 75 76 84 89 92 90
44 45 44 42 43 43 44 45 45 45 42 42 43 43 42 42 42 41 65 52 44 50 59 60 69 75 71 72 71 71 75 92 86 75 80 88 87 84 82 79 80 86 89
43 41 43 42 45 44 44 46 47 47 42 42 43 45 42 40 34 42 43 38 40 40 49 66 70 72 73 78 81 81 73 81 89 85 78 75 80 90 90 87 85 82 82
39 40 40 38 38 39 39 40 39 42 42 38 42 42 47 49 47 42 42 38 41 40 40 45 50 48 50 58 70 76 79 79 62 65 85 86 91 91 93 95 94 90 87
33 31 32 33 32 33 35 35 33 39 42 39 39 40 43 43 50 53 38 41 38 45 42 44 46 46 46 46 50 61 66 69 76 90 90 92 90 90 91 95 96 96 96
31 27 27 30 29 29 31 34 34 38 40 38 36 43 44 43 44 48 55 39 38 34 34 37 40 44 46 50 56 68 75 82 89 91 88 88 92 89 82 96 99 97 97
24 26 26 27 28 30 30 31 33 41 41 34 37 40 45 44 42 38 37 40 38 36 30 36 42 45 47 50 58 65 71 55 60 59 67 78 86 89 98 92 84 91 99
22 24 27 27 27 28 28 29 30 39 37 37 40 45 42 35 34 32 34 43 44 47 48 46 41 42 43 43 43 56 53 48 49 57 74 72 76 91 92 91 90 90 93
22 26 27 27 27 26 26 26 27 29 29 30 30 39 42 36 37 40 47 55 64 55 46 38 36 39 34 37 40 49 48 46 46 55 54 50 62 71 76 77 85 86 84
22 24 25 25 26 26 25 26 24 25 26 27 31 36 38 38 40 42 42 45 48 64 53 44 38 32 29 31 37 50 48 45 50 49 56 50 44 75 78 77 76 84 85
24 25 24 24 25 24 24 25 25 25 25 28 31 34 38 37 41 36 35 34 39 44 53 42 41 43 40 46 48 45 45 50 54 53 50 54 65 42 40 40 81 91 84
24 25 24 25 23 23 23 24 24 24 28 31 32 33 36 37 39 35 35 37 38 41 51 50 49 46 44 43 44 44 47 49 47 49 54 68 53 61 66 77 81 76 81
24 26 26 25 23 23 25 24 25 26 30 31 32 34 35 35 37 37 38 40 44 44 49 59 51 48 50 50 52 48 45 47 48 47 45 49 60 65 70 72 84 79 77
26 26 26 25 25 26 27 27 25 30 32 34 36 38 39 40 40 41 43 45 47 49 58 58 59 60 58 55 56 57 57 46 50 52 52 49 55 67 74 83 68 72 81
28 28 27 27 28 28 28 24 32 36 38 38 40 43 44 45 45 48 49 50 55 60 58 61 68 65 62 59 54 53 53 57 62 62 62 66 67 77 73 79 80 77 87
31 30 31 29 29 31 24 38 45 46 46 45 47 46 46 48 53 54 56 61 66 62 67 72 69 62 57 56 57 60 58 61 70 66 77 75 68 73 74 69 69 68 75
32 33 31 30 30 29 33 48 60 58 53 51 49 47 45 46 46 55 60 66 59 72 85 94 75 63 60 60 58 61 71 76 82 80 63 71 68 74 73 69 75 84 83
33 33 32 31 30 31 37 55 64 65 57 51 48 46 46 45 56 64 59 54 73 79 62 60 64 61 64 66 70 82 82 78 76 71 73 82 75 80 74 77 73 76 85
33 33 33 32 34 34 43 57 70 61 52 49 47 47 48 58 63 52 55 91 76 60 56 53 56 75 90 78 69 74 90 89 85 79 75 95 77 77 72 88 97 94 93
35 34 34 35 36 38 46 63 68 57 50 48 49 50 63 66 53 54 97 94 71 59 53 62 65 63 61 65 74 87 91 92 85 77 71 88 84 91 93 73 74 93 99
36 35 35 35 38 42 49 64 65 58 53 55 56 61 60 53 60 81 65 59 69 61 70 74 63 64 68 72 69 79 93 94 91 88 72 97 81 91 82 72 95 86 91

GFSMA_925_rhum_003.txt.gz
RH
69 70 70 70 72 72 73 71 70 67 66 66 66 65 65 64 65 65 67 68 68 69 72 82 87 92 87 83 77 76 79 81 83 85 86 89 87 84 85 83 81 82 82
75 76 75 72 72 72 71 72 72 70 68 66 66 67 64 62 62 63 64 66 67 70 71 74 86 91 95 88 84 79 75 79 80 81 85 88 90 88 87 88 86 81 82
76 77 75 74 77 74 72 67 65 64 62 60 59 60 62 63 63 61 60 60 64 66 66 67 71 86 92 95 91 86 83 79 77 80 80 82 87 92 90 89 89 89 86
80 77 74 68 60 59 56 54 50 49 50 50 52 56 57 57 56 56 57 57 58 61 62 63 64 66 72 87 90 88 85 86 85 80 81 82 83 85 91 93 91 91 90
60 54 47 43 40 42 40 40 39 40 41 41 42 42 42 46 51 47 47 51 51 53 59 63 64 65 66 67 76 85 89 89 89 90 89 85 84 83 84 82 85 90 91
42 41 39 38 38 38 40 42 41 43 43 42 40 41 42 40 40 41 44 46 40 39 36 38 52 61 59 66 70 72 83 88 89 90 92 91 90 89 87 86 84 87 90
36 39 39 38 40 40 39 38 36 38 37 37 37 40 40 34 34 38 35 35 38 38 35 38 42 55 62 55 64 71 75 80 90 95 81 84 88 94 94 90 89 86 90
35 34 36 33 33 33 33 33 31 34 32 33 36 37 43 37 35 36 36 36 34 37 36 37 43 44 46 47 50 51 58 67 74 75 79 85 86 90 90 96 97 93 91
28 28 29 28 27 28 29 29 27 32 37 33 32 33 43 45 40 38 34 33 32 31 34 34 34 35 36 37 36 37 42 51 62 69 72 77 81 82 84 80 88 98 98
27 24 26 28 27 26 29 30 28 34 36 34 31 28 32 33 43 43 32 35 30 28 28 32 29 28 28 33 40 37 36 66 78 81 79 77 80 81 85 95 85 80 94
25 26 25 27 28 29 30 32 32 34 38 33 29 33 32 35 34 36 39 34 29 29 30 30 31 33 36 40 44 52 53 64 70 73 70 69 69 87 90 94 84 99 87
22 25 26 26 27 29 30 29 30 32 36 34 33 33 30 33 35 33 34 36 38 39 39 38 40 41 38 40 42 38 44 41 48 56 59 63 65 74 72 70 80 78 95
21 24 26 25 26 27 27 27 27 29 27 30 31 31 31 34 34 33 34 40 44 44 41 38 33 36 34 35 31 30 33 29 42 50 53 55 61 62 62 66 55 67 80
20 22 25 24 24 25 25 25 25 24 24 26 29 31 33 36 33 35 38 43 49 43 38 36 36 32 32 32 32 38 38 44 46 47 52 51 49 62 62 53 63 73 63
19 21 24 24 24 24 24 24 24 25 24 25 26 30 32 32 35 36 38 39 41 50 44 36 38 35 41 38 41 42 40 39 43 44 42 52 52 56 50 58 73 62 57
21 23 22 22 22 22 22 23 24 24 24 24 27 30 31 32 33 36 36 37 37 41 48 40 40 42 44 47 44 45 48 48 46 46 42 42 50 48 63 59 57 58 56
21 22 22 22 22 22 22 23 23 23 23 25 28 30 31 32 34 35 36 38 40 41 48 44 44 47 50 48 51 52 54 53 50 46 44 45 47 56 56 61 60 62 70
21 22 23 23 23 23 25 26 25 24 24 27 29 31 33 34 37 41 41 42 43 44 46 52 52 52 53 55 56 55 52 50 50 50 43 44 46 54 59 57 62 71 75
23 24 25 25 25 26 28 27 26 24 29 32 34 35 37 39 42 44 45 47 48 50 54 58 60 57 60 62 60 54 50 50 52 53 50 45 50 57 56 71 70 78 84
26 27 28 28 29 28 29 30 26 35 40 42 43 42 43 44 44 47 49 52 54 64 66 66 64 69 64 67 61 56 53 51 52 53 58 59 58 58 70 69 60 60 66
29 30 30 31 30 32 29 31 41 47 53 53 50 47 44 44 45 46 47 55 66 74 66 70 76 73 72 61 62 54 53 58 65 65 68 68 67 68 62 58 57 62 67
30 30 31 31 31 30 30 37 47 58 60 57 53 46 44 43 41 44 53 54 56 58 82 84 96 88 69 60 52 64 71 81 83 64 66 69 67 68 67 69 64 72 69
28 30 31 31 30 30 33 40 50 63 64 56 49 45 45 43 46 59 62 58 66 69 65 65 82 64 58 69 81 90 85 70 71 70 78 78 81 77 77 70 64 67 80
30 31 32 30 30 32 34 43 54 64 58 52 46 46 47 52 62 60 64 86 87 80 56 59 57 56 74 80 84 67 75 94 88 83 73 92 78 96 74 80 69 74 66
33 33 31 31 31 30 35 45 60 61 57 51 50 52 55 61 58 75 79 85 56 55 59 60 61 61 60 58 62 74 92 93 88 78 73 78 85 86 82 81 74 80 98
34 32 31 30 28 31 39 52 57 62 60 58 59 66 61 56 67 77 70 55 61 67 78 77 68 62 63 67 67 75 84 94 93 89 70 84 85 89 92 69 85 79 78

GFSMA_925_rhum_006.txt.gz
RH
70 73 73 74 74 76 75 74 73 73 68 66 65 62 60 64 65 64 64 64 66 68 69 72 79 82 84 84 93 95 90 85 85 86 86 87 88 92 91 89 86 84 84
77 77 74 76 77 72 70 66 63 62 61 61 59 59 60 60 59 58 61 62 61 62 63 65 70 81 83 84 82 86 87 92 88 84 86 87 88 88 90 91 90 89 87
78 75 76 64 57 57 51 50 41 41 42 43 44 47 51 56 50 53 55 56 56 56 59 61 61 64 70 80 83 83 82 84 90 92 88 86 88 87 85 85 88 90 90
70 62 48 42 39 40 40 40 41 42 44 44 44 41 41 38 44 45 42 43 47 46 46 52 62 58 63 62 67 73 76 85 83 88 92 92 90 88 87 86 84 88 91
42 40 38 38 38 41 42 41 39 41 39 39 41 36 39 40 34 40 41 32 28 31 36 39 39 38 50 60 70 72 84 80 86 89 86 89 92 93 94 92 90 88 88
37 37 38 38 36 38 36 34 34 29 34 34 34 38 30 34 27 36 34 29 35 30 35 38 34 45 38 43 49 54 58 66 64 72 75 82 85 87 94 97 98 92 90
33 29 31 31 29 33 31 30 29 32 35 34 37 36 32 32 34 25 25 38 25 34 30 26 36 32 32 32 32 34 33 36 38 46 58 63 74 81 92 94 88 99 96
23 24 23 27 25 28 26 28 28 35 38 35 37 40 56 33 32 34 38 29 36 27 28 23 25 18 30 27 28 26 28 44 52 59 62 72 76 78 81 82 89 93 86
20 20 23 25 24 27 29 28 30 34 41 36 32 37 56 58 40 36 34 34 24 31 27 27 27 30 28 34 34 23 27 59 66 68 72 75 75 76 75 75 77 90 98
23 21 24 26 26 28 27 28 29 30 37 41 37 32 33 36 47 47 36 34 29 30 30 34 32 39 36 21 40 42 54 43 53 56 58 57 69 70 74 72 79 94 84
23 20 24 24 25 23 23 23 25 28 32 36 36 35 35 33 32 42 48 38 34 33 35 36 43 37 31 35 30 33 38 44 46 47 47 55 65 65 66 67 77 72 74
22 21 20 20 23 23 24 25 25 26 27 29 28 30 35 37 38 40 44 40 41 37 38 38 40 33 34 33 30 31 36 39 42 44 51 51 56 65 67 60 56 56 66
21 20 20 20 22 24 24 24 24 24 25 26 27 26 28 34 35 40 39 43 46 40 40 37 34 37 36 30 36 43 41 47 47 46 45 41 43 49 46 50 51 53 55
19 19 20 21 22 23 23 23 24 24 25 26 26 26 28 31 34 38 38 47 50 45 39 40 37 36 35 42 46 39 47 48 47 46 52 48 45 47 51 45 49 54 52
20 20 22 22 21 21 22 22 22 23 25 25 25 25 27 32 33 35 38 40 47 55 52 41 39 41 44 43 45 51 46 49 49 49 49 50 48 50 51 48 46 48 50
20 20 21 21 20 22 22 22 23 25 25 25 26 26 28 32 34 36 37 41 43 48 55 43 46 45 44 50 52 49 52 54 55 52 48 46 47 48 49 50 53 48 60
20 21 22 22 22 24 24 25 26 27 26 26 25 29 32 35 36 39 41 45 48 48 58 51 47 47 55 55 54 57 60 60 58 52 49 47 46 47 48 48 46 51 63
22 22 23 24 25 26 27 28 29 29 30 28 35 39 41 42 44 44 47 48 51 51 51 55 58 60 58 60 62 65 63 64 58 53 46 46 44 46 48 51 50 49 57
23 24 26 28 28 29 30 30 31 32 34 41 46 50 52 51 49 49 48 51 50 52 58 67 67 66 67 66 66 66 68 60 54 46 47 52 54 56 58 59 56 60 70
25 28 29 30 30 32 32 32 32 36 43 52 58 60 59 55 52 50 50 50 52 59 68 70 82 90 72 73 94 73 63 55 53 60 60 66 62 58 60 60 57 60 60
28 29 30 30 32 32 34 33 37 43 49 58 64 64 62 53 50 48 47 51 59 60 80 96 87 89 82 77 69 62 59 64 65 65 78 61 63 65 70 67 69 65 68
27 28 29 31 32 32 33 37 41 45 54 62 67 64 56 50 46 49 53 54 54 78 87 96 87 66 60 60 77 68 72 77 89 69 64 73 74 75 77 88 71 79 88
28 30 32 33 33 32 34 37 40 47 56 64 64 60 53 51 56 59 64 69 96 95 73 58 58 58 76 93 85 90 94 92 80 74 81 84 80 88 71 70 73 78 91
31 34 35 34 32 32 33 36 41 50 58 63 62 59 57 58 62 64 71 99 96 76 62 60 58 72 83 79 68 65 70 86 88 83 76 91 83 72 72 79 80 79 87
37 37 35 34 32 30 32 36 46 53 58 61 62 62 65 68 67 62 76 96 85 67 62 61 83 78 60 57 61 68 92 91 85 76 76 87 78 78 79 83 90 88 98
41 38 37 33 30 31 33 43 48 53 56 61 67 74 74 63 56 71 81 71 69 61 69 95 67 63 66 71 70 76 91 94 92 88 71 87 88 91 91 75 81 63 82

GFSMA_925_rhum_009.txt.gz
RH
68 73 74 78 77 73 70 65 56 53 53 52 52 48 49 54 57 56 50 53 56 56 55 60 67 70 74 80 85 85 83 80 79 87 92 89 88 86 86 87 88 90 87
77 74 78 64 56 51 48 45 41 40 41 42 40 42 42 42 41 41 44 42 44 48 49 54 71 69 70 73 75 75 73 82 78 76 77 90 94 91 89 85 85 87 88
78 66 46 42 42 41 40 38 37 37 41 36 38 40 39 36 40 36 42 39 30 31 35 41 49 50 60 62 65 68 71 84 80 83 86 92 92 93 96 92 89 86 86
48 48 40 38 40 39 39 36 35 33 29 36 31 31 36 29 33 42 32 23 33 31 33 35 29 46 42 52 55 59 62 61 67 64 68 76 83 90 96 96 96 94 90
39 35 36 34 35 36 34 28 24 22 34 30 34 27 16 31 27 34 18 27 35 27 33 27 31 22 27 37 45 46 46 48 44 42 48 53 55 65 75 83 91 96 99
33 32 29 24 27 29 22 22 19 20 29 34 32 22 23 36 22 25 12 35 24 37 23 28 22 15 12 39 41 43 46 44 40 42 53 62 68 69 72 71 78 80 85
22 20 21 20 24 23 22 26 22 26 27 34 35 29 26 25 31 12 29 36 28 30 18 14 16 20 30 29 32 38 38 41 53 59 61 66 71 70 70 75 81 83 83
20 20 20 19 21 20 18 26 26 30 36 35 42 43 55 37 29 29 27 20 36 21 28 28 26 34 29 39 36 25 42 46 58 57 62 64 64 62 60 71 76 76 81
19 20 19 19 20 20 19 23 26 28 39 31 34 39 57 61 41 35 23 32 22 36 29 32 33 31 41 34 32 25 36 44 49 52 54 56 58 59 61 71 73 81 79
21 20 20 21 21 20 19 21 22 24 24 33 32 33 34 36 59 51 36 32 36 36 34 35 34 43 34 38 28 32 41 44 49 51 50 52 56 59 63 69 81 79 84
22 19 20 22 21 20 21 20 19 21 22 26 33 29 33 32 35 49 48 41 38 38 36 38 39 37 37 32 38 33 36 47 51 49 52 54 51 49 51 58 63 72 69
21 19 18 18 20 20 20 20 20 20 21 23 25 27 31 36 38 44 40 41 45 38 39 41 39 38 37 39 36 37 50 52 46 47 54 52 50 47 50 52 52 54 56
19 20 19 19 19 19 19 19 19 20 22 23 24 26 26 28 33 37 41 46 42 40 41 38 39 41 40 38 41 50 50 42 52 54 52 51 49 49 48 50 51 48 49
19 19 18 18 17 17 18 19 21 22 23 24 25 25 25 28 32 36 41 46 53 44 40 43 41 41 42 48 48 44 46 56 50 48 50 51 50 54 51 49 49 46 45
19 16 16 16 15 17 20 22 23 24 26 27 27 27 29 29 32 36 40 44 50 64 55 44 46 46 50 48 46 51 52 51 49 53 52 53 53 55 50 56 49 47 47
17 15 16 16 18 20 24 25 26 28 29 29 31 31 32 36 39 42 43 45 49 54 65 50 50 51 48 50 56 54 55 58 57 57 56 55 58 50 54 48 54 48 47
16 16 18 20 23 25 26 29 30 31 31 33 33 39 44 47 50 52 53 52 55 56 63 54 51 51 54 60 59 61 66 62 64 64 62 53 50 50 49 48 51 55 53
17 19 21 24 26 28 30 32 33 33 33 36 41 48 55 58 62 62 59 58 58 55 58 60 56 61 66 65 68 76 69 70 77 69 54 50 48 48 51 51 52 62 72
19 20 24 26 28 30 32 32 33 34 36 42 48 55 62 64 67 65 63 60 57 56 59 66 84 70 70 83 93 82 77 74 58 55 53 49 50 55 63 61 53 54 57
21 23 26 28 30 32 32 33 36 39 42 46 51 57 62 68 69 66 59 54 57 62 64 65 69 93 91 82 65 58 55 61 68 65 60 64 70 75 55 59 61 62 66
24 26 28 30 32 33 34 38 40 43 44 48 52 60 64 66 62 55 57 59 58 62 74 94 96 89 71 59 58 59 72 82 77 72 83 87 62 67 70 72 71 72 68
26 29 32 34 34 33 38 40 43 43 44 50 57 60 65 63 58 58 59 60 63 70 97 97 95 76 64 62 62 76 92 93 86 68 70 77 75 76 78 73 78 70 60
29 34 35 35 34 33 38 40 41 43 47 50 55 59 64 63 65 69 71 68 78 87 86 80 71 69 66 68 96 93 74 73 78 76 84 87 77 78 72 77 68 64 72
36 38 35 35 35 33 39 40 43 48 51 55 57 61 65 70 76 68 70 68 92 95 82 71 66 68 92 86 63 64 74 88 89 79 73 87 74 77 74 76 73 71 77
38 36 35 36 35 36 41 46 51 57 59 59 63 69 75 77 72 62 64 98 96 81 65 65 82 77 61 60 66 76 93 93 87 75 73 80 83 84 82 83 84 80 80
36 36 36 35 36 40 49 59 64 66 66 67 70 83 82 69 58 65 96 84 71 62 81 91 63 66 70 74 74 81 94 94 92 90 68 86 90 90 92 76 76 70 80

GFSMA_925_rhum_012.txt.gz
RH
66 73 75 76 70 65 52 51 52 49 47 44 41 40 42 41 41 40 40 42 41 40 42 59 63 68 73 76 77 77 77 76 79 87 91 90 88 91 95 92 85 79 85
76 73 64 50 46 46 45 44 40 36 37 34 30 34 35 34 33 39 40 30 33 27 38 55 55 67 61 63 66 71 74 77 79 73 71 80 90 94 97 99 99 97 88
78 57 51 47 44 44 39 35 31 26 22 23 22 21 22 21 33 37 26 26 36 25 32 44 54 46 44 46 54 58 58 58 59 58 58 59 62 62 68 76 87 96 99
58 60 46 39 38 36 33 26 18 18 19 18 20 19 15 32 27 31 14 28 26 36 26 40 24 33 36 44 51 53 56 59 57 53 55 56 60 68 73 76 76 79 84
44 37 31 29 28 26 20 16 15 20 22 19 22 18 16 37 29 20 12 33 18 36 24 22 14 22 40 46 46 50 50 50 53 54 64 65 65 67 70 69 68 70 73
32 27 22 21 22 18 15 16 14 17 28 25 26 17 20 37 28 24 26 14 28 34 23 24 14 18 35 42 48 51 51 50 53 55 59 63 66 66 65 65 69 70 76
21 22 21 20 20 16 20 20 16 17 30 26 36 26 23 20 30 18 29 18 32 17 20 29 26 29 32 32 42 44 38 39 44 52 56 58 64 62 61 61 62 60 59
22 21 20 19 19 16 15 18 20 21 30 30 38 51 58 40 30 20 28 22 32 29 33 25 29 35 32 43 37 34 39 42 45 48 53 56 58 58 56 55 63 70 68
22 21 20 19 18 17 16 19 20 23 28 25 36 35 55 59 42 31 23 32 23 36 27 37 34 38 40 36 35 33 44 47 45 40 53 59 58 56 55 54 58 57 64
22 20 19 18 18 18 18 20 20 21 22 29 32 31 30 37 54 54 35 33 34 33 37 40 36 41 39 38 36 40 45 43 42 55 58 55 53 53 52 51 50 50 50
21 19 17 17 19 20 20 20 20 20 22 24 28 30 31 33 32 60 48 44 35 34 39 37 37 41 35 38 42 41 41 52 57 56 54 52 55 53 52 50 49 50 52
21 19 18 18 18 18 19 20 20 21 22 23 25 26 31 39 38 42 44 42 38 38 36 38 39 36 40 42 41 42 52 53 50 51 57 58 56 54 53 51 55 51 54
20 19 18 18 18 18 18 20 21 22 23 25 26 27 28 29 35 40 43 40 41 40 42 40 39 43 42 42 44 51 48 50 49 54 53 54 54 52 53 52 50 62 59
20 19 17 17 16 16 18 20 22 24 26 27 28 29 31 32 32 35 41 46 55 46 43 46 46 44 46 48 50 49 48 50 51 52 53 53 53 53 51 51 50 52 58
19 17 16 16 16 18 21 24 26 28 29 29 31 33 34 35 39 44 47 51 59 69 62 48 51 52 51 51 50 50 52 58 57 59 56 56 54 56 57 60 70 63 62
17 16 15 15 17 22 26 28 30 30 32 33 34 35 39 46 52 55 56 59 62 64 71 57 56 54 53 54 55 57 60 63 65 61 57 53 52 52 60 60 49 54 64
16 15 15 19 23 25 28 30 32 33 35 34 36 42 48 53 59 62 68 69 69 66 71 63 58 58 60 62 65 69 70 79 81 60 56 54 53 54 56 57 53 50 51
16 16 20 23 26 28 31 32 32 34 38 40 43 47 52 58 62 67 72 73 71 69 69 71 71 75 70 70 68 87 92 70 66 58 53 53 55 50 50 52 55 56 56
17 21 23 27 29 31 32 30 35 41 42 44 46 51 54 58 64 71 72 74 72 71 71 68 66 64 65 71 96 69 62 55 52 52 54 58 59 59 65 76 75 81 57
22 23 27 30 32 33 31 36 43 44 45 45 46 50 55 58 65 70 66 63 65 65 66 68 76 87 92 86 67 60 57 58 59 64 84 75 62 64 63 61 60 62 66
24 27 31 33 32 31 35 46 46 46 46 45 47 49 55 61 66 63 62 65 67 78 94 95 77 78 92 64 63 63 66 64 89 71 63 65 68 68 70 70 68 67 68
26 32 35 34 33 32 44 48 49 48 48 50 54 57 58 65 64 65 66 64 65 68 70 77 96 80 71 69 70 72 88 87 77 64 66 74 73 74 76 76 72 70 68
32 35 34 34 34 33 46 50 55 57 57 60 61 61 64 69 74 82 80 70 71 70 95 76 75 74 72 83 98 84 76 78 81 78 82 81 75 76 74 72 69 72 71
36 36 36 35 35 37 49 56 64 66 66 66 67 68 70 79 80 66 65 78 97 85 74 64 62 79 90 70 65 72 86 95 92 80 74 90 77 78 76 77 77 76 76
37 37 36 36 38 44 51 60 66 67 69 69 70 72 82 78 72 64 96 88 72 66 60 74 80 66 63 65 73 92 93 92 86 74 73 82 82 84 84 85 82 79 79
38 37 38 41 45 50 53 62 64 66 70 72 77 94 89 69 70 84 65 66 67 66 92 79 70 68 74 76 77 85 97 94 92 89 68 87 88 88 92 75 74 73 80

GFSMA_925_rhum_015.txt.gz
RH
68 67 78 73 66 54 50 49 50 46 39 35 32 31 32 33 34 39 34 35 34 47 59 61 70 65 64 65 68 69 70 73 73 73 72 70 72 78 90 94 95 96 98
76 68 62 54 49 46 43 40 36 30 25 22 20 20 20 20 38 30 24 35 28 30 50 60 54 53 54 58 66 64 67 68 68 67 64 67 69 74 75 74 73 75 86
72 64 60 52 45 40 35 29 21 17 16 15 15 18 16 34 38 26 16 34 18 30 33 45 44 46 50 58 58 64 62 62 60 62 63 70 68 64 63 66 71 75 78
70 59 52 43 35 29 22 17 15 15 15 14 14 17 16 32 26 13 22 19 14 32 25 24 34 38 50 55 53 59 60 60 59 63 62 71 71 73 75 77 78 77 74
50 49 32 26 23 20 17 15 13 16 17 13 13 13 18 35 29 24 17 15 28 25 21 24 18 20 45 45 53 57 55 50 52 52 56 62 66 68 71 70 68 66 69
30 24 22 21 20 17 15 13 13 15 24 16 15 13 20 35 37 26 16 18 18 21 23 24 14 20 32 44 54 52 52 49 50 52 58 61 63 63 64 66 64 62 64
22 22 22 21 19 16 16 15 13 14 20 22 26 20 20 24 26 28 19 18 20 26 18 20 17 25 25 38 41 43 46 47 54 57 57 56 59 63 65 64 63 61 58
23 23 22 20 18 15 14 15 17 18 19 30 33 51 56 34 32 14 22 18 24 21 17 17 21 28 30 39 35 43 44 50 54 53 53 56 55 62 62 62 60 59 57
24 23 22 20 17 15 16 18 20 21 25 22 37 29 42 54 54 29 23 28 21 29 26 25 28 31 37 32 34 39 45 50 50 51 59 65 64 63 62 60 58 57 55
23 22 20 18 17 17 17 18 20 21 24 30 26 24 27 35 54 58 34 28 33 34 32 29 32 35 35 40 36 41 50 48 49 56 63 63 63 62 61 60 58 57 54
22 20 19 18 17 17 18 19 19 20 22 26 30 33 34 32 35 64 44 44 37 34 32 33 36 34 37 36 43 44 46 48 53 56 58 61 61 62 60 59 57 56 55
22 21 19 17 16 17 17 18 20 21 23 26 27 29 33 39 43 47 52 44 42 35 33 35 37 36 38 43 42 46 48 51 53 55 56 59 60 58 57 57 56 55 54
22 20 18 17 16 16 18 20 22 24 26 28 29 30 31 34 38 40 45 46 47 43 41 40 39 42 45 41 44 49 51 53 52 52 56 60 59 58 57 56 55 55 54
22 19 17 16 16 17 20 23 25 27 29 30 31 33 34 34 39 45 50 56 62 49 47 47 48 47 48 51 52 52 53 52 52 54 58 58 57 56 55 54 53 52 55
20 18 16 16 18 21 24 26 28 29 30 31 34 34 36 42 48 52 56 61 67 77 70 56 59 58 59 58 56 57 56 58 56 58 59 57 59 55 53 51 53 54 54
18 17 16 18 21 24 28 29 29 29 32 35 37 39 42 47 52 55 59 63 71 76 85 65 65 64 64 63 63 61 61 62 64 68 65 61 56 52 52 53 57 62 64
17 17 19 22 24 27 29 29 28 32 37 40 42 44 47 50 53 57 59 68 77 80 83 73 70 70 74 71 69 67 69 87 92 79 64 55 51 51 51 54 67 70 62
18 20 22 25 28 30 29 28 32 40 43 45 45 46 47 50 55 58 63 72 77 78 81 85 83 67 62 63 67 72 97 83 74 62 54 51 52 54 57 73 66 66 68
21 23 25 29 31 30 28 28 43 46 47 47 46 48 49 52 60 63 67 74 78 76 84 73 71 70 73 82 79 96 68 59 56 54 54 58 61 64 62 58 56 67 74
23 25 30 32 31 30 28 44 50 51 50 49 51 53 56 58 63 68 70 68 80 75 73 78 87 88 74 85 86 62 59 59 63 66 72 77 63 59 60 62 62 61 62
24 31 33 31 30 30 35 53 55 57 59 59 62 62 62 67 67 63 63 65 65 74 92 95 77 92 80 60 65 64 68 73 89 78 68 66 65 66 70 70 68 66 69
30 35 34 33 32 32 42 56 60 66 66 65 64 63 64 69 68 66 67 65 67 74 83 98 92 68 68 68 68 80 94 79 85 69 70 84 78 74 74 74 72 72 70
34 35 34 34 34 36 53 57 62 68 66 65 65 66 68 72 77 82 82 75 96 92 73 71 72 69 70 87 97 92 89 91 85 79 87 89 77 76 73 73 71 73 74
36 37 35 36 38 43 57 59 65 67 65 66 68 70 73 81 89 72 89 98 81 72 70 65 66 82 89 74 72 86 96 96 92 80 73 92 79 79 77 78 78 78 78
38 37 38 40 47 50 55 64 67 65 67 69 72 81 89 84 74 79 86 74 70 71 64 76 84 71 67 71 78 94 93 92 84 73 73 80 81 85 84 84 82 79 77
38 39 40 47 50 54 57 67 67 66 69 71 91 82 78 69 70 82 66 67 75 70 97 93 72 73 78 82 80 87 98 94 92 88 68 87 89 90 91 71 69 73 79

GFSMA_925_rhum_021.txt.gz
RH
72 69 75 75 66 54 50 48 40 31 23 18 18 19 18 23 27 31 35 35 44 70 66 67 65 68 72 74 73 74 75 77 76 76 77 76 80 80 78 77 80 83 85
74 71 69 61 51 48 41 33 23 18 16 15 16 20 18 29 30 26 28 27 30 50 63 62 61 60 66 65 66 72 72 72 71 73 73 74 78 80 82 84 84 84 83
77 66 66 53 49 35 24 18 17 16 16 15 15 18 17 26 24 22 20 21 21 24 36 49 50 48 53 56 58 65 68 68 69 66 67 66 67 72 74 77 79 79 79
74 68 66 47 28 20 18 18 16 16 16 15 14 16 15 25 20 20 18 16 16 19 19 16 15 19 44 49 53 58 63 60 62 64 64 65 64 70 72 73 73 73 76
69 64 47 29 20 21 21 17 15 14 14 14 15 15 15 24 31 24 20 19 18 18 21 20 15 13 12 42 48 55 58 57 60 62 64 65 66 68 69 69 70 70 71
57 42 31 22 22 24 20 16 14 13 14 13 14 15 24 32 38 33 27 18 18 20 19 17 16 18 11 16 46 51 53 53 58 58 60 64 67 66 68 68 68 67 69
32 25 24 25 24 24 18 15 14 14 17 14 20 24 20 18 26 28 25 16 25 22 20 20 24 21 25 15 19 40 48 51 53 57 60 64 65 66 67 68 68 68 67
24 26 28 27 23 20 17 14 13 15 20 20 29 36 28 21 24 21 21 22 19 22 22 16 17 24 25 31 34 46 48 49 53 59 60 62 63 67 66 65 65 64 64
26 28 27 25 22 18 16 15 14 14 29 26 27 21 24 25 31 28 22 28 26 28 28 32 32 30 31 34 38 42 47 52 55 58 59 62 64 65 65 64 63 62 61
26 26 25 23 20 17 16 16 16 16 18 32 32 29 29 33 30 28 31 28 31 30 34 35 33 33 33 35 40 42 50 54 56 58 59 64 65 64 64 63 62 61 60
25 24 23 21 18 16 15 15 17 18 20 29 35 37 37 37 41 40 31 28 31 33 37 38 38 38 36 38 43 45 53 54 57 60 62 62 62 62 61 60 60 58 58
24 23 21 19 17 15 15 16 18 21 24 26 28 32 37 32 30 34 33 32 38 36 40 41 40 36 39 43 49 52 55 60 64 64 63 62 61 59 59 58 59 63 64
24 22 20 17 16 16 16 18 20 24 26 27 28 34 36 41 43 42 43 42 42 42 40 39 40 42 45 49 48 58 62 60 61 62 63 62 61 59 57 56 55 56 59
24 21 19 17 16 17 18 20 23 24 25 27 30 34 38 42 44 46 48 50 51 37 36 35 41 46 52 52 62 64 61 60 60 62 60 59 57 56 55 54 55 75 74
22 20 18 17 18 19 21 24 25 23 25 30 33 37 42 46 47 51 55 56 54 54 49 40 46 50 58 62 61 61 61 62 64 62 59 58 59 58 68 68 70 62 70
22 19 18 18 20 22 25 25 24 25 29 34 43 46 49 52 52 55 58 60 62 61 63 50 55 59 63 62 63 67 62 67 68 69 66 64 62 70 60 64 69 61 56
20 19 19 21 23 26 26 25 24 30 38 44 48 54 54 56 58 59 61 64 64 64 64 64 63 66 66 65 61 65 72 78 75 68 63 62 61 58 57 56 57 60 60
20 20 21 23 27 28 26 25 29 42 49 54 57 58 62 60 62 62 63 65 69 68 72 71 72 70 62 63 68 82 75 65 58 56 57 60 61 63 64 64 66 67 72
22 23 24 27 28 28 26 27 42 52 57 61 64 67 61 62 61 63 68 72 71 73 77 80 70 65 71 83 74 63 56 54 56 59 62 64 66 67 68 69 68 66 70
23 26 28 29 29 28 28 34 53 60 62 65 67 63 63 66 68 73 76 76 80 73 69 70 77 92 73 65 62 59 58 61 64 70 72 70 67 66 65 65 67 67 68
26 30 31 32 30 29 31 57 63 63 64 68 69 61 65 72 77 76 72 73 70 75 77 96 83 74 69 59 60 62 67 73 78 69 69 68 64 67 71 71 71 70 72
30 33 33 32 32 32 35 63 65 66 69 72 69 66 69 69 76 77 73 72 71 78 98 89 80 66 61 61 66 74 90 81 80 67 67 75 73 73 70 68 68 71 71
34 35 34 33 34 36 50 65 65 68 71 71 69 69 70 73 77 83 80 81 86 94 77 74 66 66 68 72 97 93 84 81 79 77 80 81 72 71 68 68 68 72 74
35 35 35 35 37 39 50 66 69 72 72 71 70 70 75 79 84 81 72 98 91 76 69 69 71 77 93 88 76 79 88 92 89 77 69 81 71 72 72 73 73 75 77
36 36 37 39 41 45 51 70 72 71 71 71 70 74 77 75 74 68 90 90 71 67 67 73 85 83 74 76 82 91 91 89 82 72 73 74 73 79 81 79 77 73 76
38 37 37 45 49 48 51 72 72 70 71 70 72 70 77 77 70 82 77 72 73 68 86 95 71 69 74 78 84 84 94 94 89 86 63 84 86 85 83 62 66 75 79

GFSMA_925_rhum_024.txt.gz
RH
69 76 66 64 69 58 48 42 37 31 26 24 26 24 27 29 26 33 43 44 68 70 71 69 68 71 74 71 71 76 77 77 77 77 79 78 81 85 88 88 86 84 83
77 67 64 69 56 48 45 33 27 24 22 21 23 25 24 29 28 34 34 48 46 58 63 62 60 58 60 60 60 66 70 73 72 73 72 72 72 72 77 78 80 82 83
71 68 66 62 53 42 30 28 26 24 23 22 22 25 24 25 27 27 33 32 33 28 32 51 48 47 49 51 53 58 62 65 65 64 67 68 67 68 70 73 75 77 76
74 66 66 57 43 25 27 27 28 27 24 24 22 23 24 27 25 25 27 25 30 28 28 18 16 13 16 40 47 52 57 62 60 62 64 66 67 68 68 70 70 71 71
72 69 64 41 29 29 29 25 28 26 24 24 21 20 24 27 28 27 27 29 32 32 30 30 20 21 20 31 47 52 55 58 58 60 63 63 65 67 70 70 71 71 71
70 68 44 30 28 29 28 27 25 27 27 25 24 22 32 36 32 31 31 23 26 32 31 33 31 24 28 36 47 50 52 56 59 60 61 64 64 66 68 69 69 69 69
65 47 32 30 30 29 27 24 26 26 28 27 23 21 24 27 31 34 31 22 30 28 29 25 23 23 24 30 34 45 54 55 57 59 63 65 66 65 66 68 68 68 66
45 30 32 32 30 29 29 27 27 27 28 29 22 26 21 19 21 26 23 27 20 25 23 24 26 27 27 28 31 45 46 53 58 61 63 65 66 66 67 66 66 65 64
28 30 33 31 31 31 32 30 30 27 25 30 28 17 19 22 20 20 23 21 24 22 24 28 29 28 29 29 32 35 45 56 58 61 64 66 68 66 65 65 64 63 62
30 32 32 31 30 29 31 29 29 28 25 27 28 26 25 23 22 22 20 22 22 25 27 29 30 29 31 30 34 40 47 54 58 61 64 66 67 65 63 62 60 60 59
32 32 31 30 30 29 30 30 30 29 28 24 27 28 26 27 26 27 28 22 23 24 28 31 32 32 29 30 34 39 49 55 62 66 66 65 64 63 61 59 57 56 57
33 32 31 31 29 30 31 31 32 33 31 30 29 29 26 24 22 24 24 25 27 27 28 31 33 32 32 34 38 43 51 60 64 65 65 65 64 62 60 58 58 61 66
32 32 30 29 30 32 32 32 33 34 34 32 33 29 30 30 30 30 30 31 31 30 29 32 29 31 34 38 40 46 58 62 61 60 63 63 63 62 60 59 59 62 60
31 31 29 28 28 29 30 32 33 34 35 34 38 38 35 34 35 36 36 39 38 30 28 26 28 32 37 39 47 53 52 52 56 59 60 60 60 59 59 58 61 74 74
30 29 28 28 29 30 31 31 29 31 33 35 37 40 42 39 41 41 42 43 42 44 37 30 29 33 38 44 47 52 52 54 57 60 62 63 65 68 63 60 72 69 76
28 29 29 29 30 31 32 32 32 34 34 35 39 42 43 42 43 43 44 45 45 44 45 36 36 39 44 48 50 53 52 56 59 61 61 60 61 62 62 61 62 62 62
28 28 29 29 30 30 31 30 31 34 38 41 44 46 47 47 47 43 43 44 45 45 45 46 45 47 51 52 50 51 54 62 60 51 52 55 59 63 66 67 68 70 72
28 28 28 29 30 31 30 29 32 38 42 44 47 49 49 46 46 45 44 47 48 52 53 53 56 56 53 52 58 62 56 48 45 46 52 59 63 64 66 68 70 71 74
29 30 31 31 31 33 32 30 36 41 46 49 51 53 52 47 47 48 50 54 56 55 58 64 63 56 57 70 66 56 51 46 48 51 53 57 62 65 68 69 67 68 68
31 32 32 33 34 33 34 36 44 49 50 51 54 57 56 51 52 55 58 58 54 58 58 58 64 68 86 61 55 47 47 51 55 59 63 62 61 62 64 62 63 66 67
33 34 35 36 36 35 32 48 51 52 52 52 52 54 51 56 69 74 69 63 62 65 75 81 77 86 65 53 46 50 57 61 72 63 62 63 57 61 65 65 64 64 64
36 37 37 38 41 35 33 64 65 54 51 52 51 50 51 56 58 66 67 68 73 93 96 93 90 65 53 48 54 62 76 88 75 63 60 69 67 66 64 62 61 63 67
38 38 38 38 37 39 39 67 67 58 55 53 54 54 53 54 61 61 69 70 74 81 86 72 67 54 54 60 77 92 83 75 72 71 74 76 66 63 62 62 64 68 72
38 37 38 39 40 41 37 67 70 58 54 54 55 56 57 60 60 67 70 82 93 71 57 58 58 62 70 86 92 76 81 84 83 75 67 76 67 68 67 68 70 73 75
38 39 39 42 41 42 48 68 70 56 51 52 55 55 59 60 68 66 82 98 64 54 53 57 68 80 81 69 73 83 90 86 82 72 72 72 67 76 77 76 73 63 66
38 38 40 43 45 44 53 70 70 57 52 53 53 54 54 63 64 77 82 63 61 55 63 88 74 60 61 64 71 75 87 94 88 86 64 79 86 81 80 61 66 73 76

GFSMA_925_rhum_027.txt.gz
RH
57 57 64 61 59 59 48 45 40 35 28 23 22 24 21 26 24 28 42 46 64 70 72 70 67 67 68 67 66 69 73 76 75 75 76 76 76 77 77 82 83 84 86
59 65 61 57 64 54 50 36 30 25 22 23 22 22 22 24 25 30 30 45 46 49 63 62 57 56 54 54 55 57 62 65 68 68 67 69 70 69 70 71 76 78 81
70 65 60 64 60 54 34 31 26 26 25 24 22 22 23 23 25 24 31 32 38 32 22 20 18 22 32 45 48 52 56 58 64 63 63 67 68 68 68 69 70 72 73
69 65 63 64 56 44 30 29 29 27 25 24 23 21 24 23 24 24 27 25 29 26 30 30 21 13 14 24 51 54 56 58 61 63 64 65 66 67 69 69 72 72 72
68 66 65 61 40 32 30 26 29 27 26 26 22 19 22 27 27 24 25 29 31 32 32 30 29 25 28 36 46 54 57 61 62 62 67 66 66 67 68 69 70 71 72
70 67 65 40 34 33 30 29 27 29 29 28 25 23 28 33 32 28 27 29 23 31 30 33 32 25 25 31 39 44 54 61 63 63 65 68 68 71 69 70 69 69 69
70 66 48 33 32 32 30 27 28 30 32 29 24 25 25 26 28 31 33 27 21 30 27 25 24 26 28 31 33 40 52 56 61 65 68 67 68 70 71 69 68 67 67
67 55 39 34 33 32 31 30 31 31 31 30 24 25 28 23 21 27 22 24 22 22 23 24 27 29 29 29 31 39 42 51 63 65 68 68 68 71 69 69 67 66 64
58 41 34 34 35 34 36 35 34 31 29 32 29 20 27 29 22 19 24 22 23 22 24 25 28 28 30 30 32 34 41 51 58 64 66 69 70 70 68 67 65 63 62
38 34 34 35 36 36 36 34 33 31 27 30 30 26 26 24 26 28 20 22 22 23 23 26 27 30 30 30 31 36 41 49 59 62 69 70 69 68 66 65 62 61 59
36 36 34 36 35 35 32 32 33 31 29 25 27 29 23 26 25 27 34 26 23 24 26 27 29 30 30 30 32 35 40 51 57 64 68 68 67 65 63 62 60 59 63
41 38 34 35 34 34 35 34 33 34 30 30 29 28 26 25 24 24 28 28 29 28 27 28 29 31 30 32 34 38 45 51 60 65 65 67 67 66 64 62 60 64 63
35 35 34 34 35 36 35 34 35 35 34 33 34 30 28 29 29 29 30 34 35 34 32 28 27 27 27 30 35 40 48 53 54 57 62 65 64 62 62 62 62 64 64
36 37 32 32 33 33 33 34 36 34 34 35 38 40 37 35 34 34 36 40 44 39 33 29 28 27 29 34 37 42 46 48 52 56 59 60 61 61 60 61 62 65 60
34 32 31 31 31 31 31 31 29 30 33 34 37 39 41 38 38 39 40 42 44 51 45 34 31 31 34 36 40 46 48 49 52 55 56 58 60 60 60 61 63 66 66
30 31 30 31 31 31 31 31 31 32 32 33 36 39 41 41 41 42 42 42 42 44 50 41 39 38 41 44 48 49 49 51 54 53 56 59 56 56 59 62 67 69 70
30 30 30 30 30 30 29 29 29 31 34 36 40 42 43 44 44 42 41 42 43 44 48 46 49 49 51 52 52 51 56 58 56 52 50 52 55 60 64 66 66 68 73
29 29 29 28 28 28 28 27 28 31 36 39 41 44 45 43 45 44 43 44 45 46 51 53 53 56 56 54 55 62 64 62 51 47 48 53 58 60 62 64 66 67 69
29 29 29 29 29 31 30 28 30 34 38 42 44 46 47 48 47 45 47 50 53 56 55 55 57 56 59 62 71 74 54 51 46 48 52 54 58 62 64 63 63 65 66
30 30 30 30 32 32 32 32 38 44 46 46 45 47 49 51 49 50 57 62 59 59 60 62 65 71 72 76 66 54 49 50 56 57 61 66 59 61 62 60 63 66 68
32 32 33 34 34 33 30 41 49 49 48 46 46 46 46 46 55 60 64 66 67 68 73 80 81 78 83 62 57 51 56 64 68 74 69 64 62 62 66 65 64 64 64
34 34 35 38 38 33 33 33 66 58 51 46 46 46 46 48 48 53 60 61 64 68 83 87 93 84 68 62 54 64 75 80 88 67 66 71 69 70 69 65 62 63 66
36 36 35 36 35 37 37 47 66 63 54 50 48 49 50 49 53 56 58 61 68 71 74 78 70 64 60 61 69 79 88 87 76 74 75 85 80 72 67 65 66 68 70
36 34 36 36 38 39 38 38 67 64 49 48 47 48 52 52 55 56 62 72 81 84 74 60 56 59 63 72 94 98 88 81 82 77 74 86 75 73 71 71 71 73 76
35 36 36 38 38 36 40 47 69 59 48 45 45 48 50 54 54 59 63 80 85 66 60 54 60 70 74 70 64 68 83 89 84 76 74 79 76 80 80 80 78 67 67
36 36 38 38 38 41 40 55 68 60 52 51 51 52 51 52 57 60 65 74 70 66 63 76 82 74 62 61 65 68 81 96 93 87 71 83 90 92 89 66 64 74 79

GFSMA_925_rhum_030.txt.gz
RH
57 59 70 70 62 60 49 46 40 34 27 23 21 23 22 25 25 31 36 39 54 72 73 69 67 65 62 60 61 61 64 66 69 70 68 68 72 72 72 74 74 80 82
57 61 62 61 61 56 49 37 33 27 23 24 22 22 22 23 24 29 35 38 35 45 56 54 53 52 52 53 53 54 57 60 63 67 67 66 70 69 70 70 71 73 75
60 64 62 59 64 55 38 36 28 26 25 24 23 22 22 23 24 24 32 32 30 29 23 21 16 23 33 46 53 58 59 61 63 65 66 70 67 70 70 71 72 71 74
67 65 60 60 60 45 33 30 28 27 25 24 24 21 22 24 25 24 28 26 30 29 32 32 29 24 29 40 48 57 60 64 66 68 66 70 70 71 73 70 73 73 73
70 63 62 62 57 35 31 27 27 25 25 25 22 20 20 24 27 25 26 27 28 28 29 31 30 27 29 34 42 49 54 63 67 68 68 71 71 74 72 75 73 74 73
70 66 64 61 40 33 30 27 27 28 27 25 24 24 26 30 32 28 27 28 26 25 26 28 26 25 25 35 40 43 50 59 63 68 70 72 72 74 73 73 72 71 70
68 65 63 41 37 31 29 28 28 30 28 23 24 24 26 25 30 32 31 33 25 25 27 26 25 24 27 30 35 38 46 51 60 69 70 74 71 75 72 72 71 70 68
67 65 54 38 32 31 28 28 30 31 31 24 23 27 41 30 24 25 28 24 22 20 23 23 24 25 28 29 30 38 41 48 55 65 71 70 74 74 73 71 69 68 67
65 57 44 36 33 30 30 31 30 29 31 30 22 24 38 42 29 22 21 24 22 22 23 22 24 27 28 29 30 31 36 45 52 62 67 70 71 71 69 68 66 65 64
54 46 37 35 33 33 33 32 31 26 28 30 30 25 23 25 38 41 23 21 20 24 24 25 25 26 28 30 30 31 37 44 51 60 65 68 70 68 67 65 64 63 62
43 37 36 34 35 34 33 30 29 27 24 26 26 28 25 26 27 36 47 34 24 24 26 27 28 29 28 29 29 30 36 45 52 58 63 65 65 65 63 64 66 68 69
37 35 35 35 34 34 31 32 30 27 26 25 26 27 26 27 29 30 40 37 36 32 32 32 28 28 28 29 32 36 42 45 51 56 60 61 63 64 63 63 63 63 68
38 35 36 35 34 33 32 30 30 27 28 30 31 30 28 28 29 30 33 43 48 40 40 36 30 30 29 29 31 35 42 48 50 54 56 61 63 62 60 59 61 62 63
42 36 35 33 34 34 32 31 30 31 30 30 33 35 36 36 36 35 37 44 55 52 44 40 36 33 34 35 36 42 43 50 53 54 59 60 59 60 60 60 62 66 64
42 36 35 34 34 32 30 31 30 30 28 32 34 37 38 40 38 39 40 42 48 60 54 43 41 37 38 40 43 49 51 51 53 57 59 58 57 60 60 60 59 60 64
38 34 33 33 31 30 30 28 28 28 28 32 34 36 38 42 42 43 43 43 43 48 59 46 48 47 47 51 52 54 54 56 56 58 58 58 58 58 58 59 62 70 74
34 33 31 31 31 30 29 29 29 30 31 34 37 39 42 44 45 44 44 44 44 45 57 52 51 54 55 55 55 57 56 60 64 63 60 56 55 57 60 62 62 65 68
32 31 31 30 30 29 27 27 28 28 33 36 39 42 44 46 46 47 47 45 48 50 54 62 62 60 60 60 60 63 69 77 67 55 56 52 56 60 61 64 67 70 68
31 30 29 29 28 28 27 27 28 31 35 39 43 44 46 48 50 50 50 51 57 62 64 67 68 68 67 71 75 78 79 63 56 53 53 58 58 65 70 65 66 64 64
29 28 28 29 30 28 28 28 35 41 46 48 47 46 46 47 48 50 53 57 64 67 70 73 74 82 83 81 85 77 65 59 59 64 65 71 76 69 66 65 66 70 72
30 30 31 30 29 30 31 32 33 43 48 48 47 46 46 46 51 53 56 57 62 66 69 81 84 78 82 95 72 71 66 67 69 73 78 78 69 69 72 72 71 73 73
32 32 31 32 32 29 30 30 40 43 45 51 50 49 48 49 49 52 57 59 60 63 73 78 90 94 77 72 65 68 72 76 83 77 74 78 75 76 76 79 76 72 71
35 36 36 32 34 35 35 31 52 52 44 51 51 48 49 49 53 52 56 59 61 67 69 72 79 77 70 65 66 78 86 93 94 84 80 83 78 78 77 76 74 76 75
40 34 31 33 34 38 37 38 51 46 54 52 48 46 47 49 51 56 56 61 64 69 76 76 68 65 65 71 84 98 94 84 82 82 79 86 77 78 77 80 79 78 78
32 33 33 34 37 37 40 40 60 61 59 54 51 53 54 56 54 56 61 63 71 80 74 69 67 72 77 75 71 69 79 87 84 78 78 84 82 87 86 84 79 65 72
34 32 36 37 37 36 39 51 62 67 68 65 64 64 62 59 61 62 63 69 80 76 72 73 86 77 72 68 71 74 79 94 93 88 72 87 93 94 86 68 64 72 75

GFSMA_925_rhum_033.txt.gz
RH
69 67 63 77 74 67 53 46 40 33 29 23 21 22 23 25 26 31 35 38 53 73 72 68 64 59 57 57 57 59 61 64 66 70 70 70 71 72 73 73 74 74 80
57 60 68 79 64 61 48 44 39 32 24 24 22 21 22 23 25 30 35 36 36 44 50 54 53 52 53 54 57 62 63 65 67 70 69 70 74 72 74 74 75 77 74
55 59 74 66 61 58 47 38 34 26 25 23 22 22 23 22 24 26 34 33 30 27 28 33 41 43 45 47 53 60 64 67 70 71 72 72 73 75 76 77 74 76 75
56 66 64 62 61 54 41 38 31 26 24 23 22 21 22 24 24 25 29 28 28 28 29 29 27 33 43 42 47 54 57 66 70 71 72 74 76 76 77 76 79 76 77
62 63 64 59 62 46 32 34 27 25 24 23 21 20 20 23 26 25 26 26 28 28 25 23 25 24 31 40 45 51 53 60 66 70 74 76 76 77 76 76 75 75 74
65 65 65 60 58 41 35 28 26 25 26 24 24 25 26 27 30 27 25 27 29 26 25 25 24 24 24 26 41 45 47 54 61 70 72 74 77 76 76 75 73 73 71
65 68 64 62 48 42 34 28 28 30 26 24 23 25 29 26 31 31 30 31 33 26 24 25 24 24 23 25 26 36 44 50 57 61 69 75 75 75 74 73 72 70 69
67 67 64 58 40 36 29 28 29 31 30 23 22 32 39 30 25 24 29 33 24 22 22 23 23 24 26 27 28 32 38 44 50 58 65 72 72 72 71 70 69 68 67
71 68 65 52 41 36 29 28 30 31 31 26 20 23 39 41 33 25 28 25 23 23 25 24 26 26 27 28 28 29 29 41 46 54 61 67 69 69 68 67 66 66 64
71 67 57 44 39 32 29 30 31 30 30 29 26 23 21 22 35 31 25 25 23 25 24 24 25 27 29 29 28 28 30 40 45 53 60 63 66 67 66 65 62 66 74
69 63 43 39 37 31 32 32 30 28 28 28 28 27 26 26 27 37 44 34 24 23 22 26 28 26 29 30 30 31 32 40 45 50 57 61 63 63 62 60 64 65 68
56 45 41 38 35 33 33 32 30 27 25 25 24 23 24 26 31 32 44 42 38 32 33 29 30 31 32 31 32 37 46 47 50 53 55 57 60 60 60 62 62 61 65
48 40 39 37 37 34 31 31 30 28 25 25 26 26 27 27 29 31 35 43 51 40 39 36 33 34 33 37 37 43 51 53 53 55 55 59 60 62 63 60 59 58 60
46 38 38 40 40 34 33 31 29 28 28 25 26 28 30 32 35 36 38 44 62 56 44 41 38 37 39 34 35 46 48 55 56 57 59 62 62 63 62 60 60 68 67
46 41 41 41 38 36 33 32 30 30 27 28 29 32 34 37 39 39 40 43 49 68 59 48 44 41 46 47 52 56 57 56 59 60 60 62 65 64 63 63 60 66 68
46 42 42 40 42 34 32 31 30 29 28 30 32 34 36 38 41 42 43 44 45 51 66 45 49 51 54 59 58 60 57 61 59 63 67 69 63 65 63 61 61 64 69
46 42 43 45 45 33 31 29 28 29 28 31 35 37 39 42 44 45 45 46 46 46 63 58 58 61 64 62 63 62 60 62 68 70 68 65 62 62 61 63 64 65 64
44 47 45 38 31 31 29 29 28 28 28 33 36 39 42 44 46 48 49 50 49 50 60 68 67 70 70 68 70 72 72 78 80 75 65 62 60 62 65 67 70 73 70
46 52 36 48 38 29 27 27 27 30 32 35 40 44 45 46 48 49 51 52 51 54 60 66 75 74 75 79 80 87 89 83 70 67 61 60 64 69 76 72 70 69 69
40 45 43 31 28 27 26 27 29 35 42 48 48 47 47 47 47 49 51 54 57 60 64 70 78 82 85 77 85 93 74 72 70 67 67 71 75 77 73 71 72 74 76
39 39 44 46 30 29 30 35 46 47 44 43 43 44 47 48 53 56 56 56 59 63 66 72 88 87 80 84 79 75 76 72 73 72 75 77 82 79 77 77 76 76 82
33 34 35 36 34 40 58 56 46 41 37 36 41 46 49 49 49 54 57 56 60 62 67 73 86 83 81 80 76 74 75 79 82 76 80 87 79 80 78 80 80 78 76
80 77 60 51 79 64 48 36 47 41 34 43 48 49 47 47 51 51 52 59 59 63 67 69 82 86 87 77 71 78 91 97 95 89 85 85 82 84 81 79 77 77 79
58 67 74 42 36 42 41 44 56 41 41 45 50 54 56 58 58 61 59 60 67 64 67 79 82 77 74 76 94 97 90 84 84 82 80 86 79 81 80 82 81 80 82
75 40 35 37 37 44 42 46 51 52 53 52 57 59 64 66 63 64 64 64 67 73 76 75 72 76 79 78 75 79 86 88 86 80 80 85 82 88 89 87 75 66 77
35 34 36 37 37 36 43 50 57 59 59 61 66 67 65 67 66 65 67 72 77 73 68 70 80 78 68 66 78 78 82 94 93 89 71 86 92 93 86 69 68 68 76

GFSMA_925_rhum_036.txt.gz
RH
82 87 81 65 75 69 60 52 46 38 32 26 22 23 23 26 29 34 36 44 65 77 72 68 63 60 60 61 63 65 66 68 70 72 72 73 78 74 76 75 77 78 78
73 82 73 67 78 73 56 47 40 32 29 24 23 22 22 23 28 33 36 38 43 57 61 57 53 52 53 55 59 65 68 70 73 74 75 74 75 78 79 80 77 77 78
69 73 70 73 75 65 52 45 36 32 26 24 22 22 23 23 25 32 35 34 32 27 36 45 46 50 49 50 55 60 63 70 74 74 74 77 80 79 78 79 80 80 78
62 66 65 71 74 58 47 40 37 31 25 23 22 22 23 24 24 27 32 30 28 27 27 27 25 36 42 48 52 57 59 64 69 73 76 78 78 80 80 79 78 77 76
60 59 60 72 66 56 47 42 37 28 24 23 21 19 21 24 25 26 27 27 27 28 25 25 24 23 23 34 44 51 54 56 64 70 77 79 79 78 78 77 76 76 75
60 56 63 70 62 54 45 38 33 26 25 25 24 24 26 28 28 26 26 28 29 28 26 25 24 22 23 22 28 40 49 52 58 64 68 73 77 76 75 74 73 72 72
59 56 65 64 59 56 48 36 27 26 27 25 25 27 30 30 32 29 28 28 30 31 26 25 24 24 24 25 26 32 42 47 53 57 63 70 74 73 72 71 71 70 69
60 65 65 64 59 54 40 34 28 30 29 24 25 32 40 31 26 29 32 34 33 26 25 26 25 26 27 27 28 32 32 40 47 53 58 64 71 70 70 69 69 68 66
63 69 67 66 61 54 44 35 28 30 31 25 23 27 47 42 34 24 30 32 25 24 26 26 26 26 28 30 30 29 28 38 45 51 57 63 66 66 66 67 66 66 63
69 70 70 68 61 53 45 35 29 31 32 29 24 22 21 22 34 28 25 29 25 24 25 24 24 27 26 28 30 30 32 45 45 49 56 60 64 65 65 65 65 61 63
75 74 72 66 61 52 42 32 30 32 32 31 30 26 25 25 26 35 35 32 26 25 23 25 27 26 30 32 30 32 52 52 52 54 59 63 63 63 64 64 63 62 61
80 77 73 63 53 49 37 31 32 31 31 30 29 25 23 26 31 34 44 42 39 29 28 28 28 31 34 34 35 37 51 57 59 59 59 62 62 63 62 62 62 63 65
78 73 69 55 44 43 34 33 33 30 29 28 26 24 23 24 25 28 33 42 48 42 36 33 31 34 35 37 35 34 52 59 58 60 63 64 65 66 64 64 63 59 62
74 68 56 50 45 38 35 36 33 28 27 27 27 25 26 27 29 32 34 41 57 58 47 38 37 38 38 38 44 54 56 60 65 65 65 67 66 66 66 64 64 60 63
76 62 53 53 47 37 39 36 31 30 30 27 28 28 30 33 36 38 39 41 47 63 66 45 41 41 43 50 54 62 61 60 62 64 64 68 69 70 68 66 62 62 66
70 60 57 51 40 43 38 36 40 36 29 28 29 30 33 35 38 41 42 44 46 52 69 48 44 47 52 55 60 63 61 69 66 71 72 72 70 69 68 66 70 69 67
64 58 50 43 46 42 44 44 44 50 30 30 32 34 36 38 41 43 45 45 46 49 67 56 54 54 60 63 64 66 61 67 71 77 73 75 73 69 68 66 66 67 68
60 53 47 46 45 45 49 76 71 31 30 31 34 37 39 42 44 45 47 48 49 50 55 67 63 63 67 69 72 71 71 71 74 74 81 74 71 68 69 70 73 72 70
51 49 47 48 53 73 69 44 47 40 32 35 38 42 45 48 47 48 49 50 52 51 54 65 74 70 72 72 75 79 84 83 76 78 71 69 69 72 77 77 75 73 73
51 52 56 68 65 64 66 44 33 34 39 49 56 62 62 52 48 48 49 52 56 59 62 66 73 77 75 75 80 85 83 76 77 74 72 76 77 79 77 76 78 78 79
56 63 65 65 57 43 39 39 43 66 78 80 67 48 44 47 50 60 59 57 60 62 62 65 78 81 87 85 79 80 84 80 78 77 76 78 77 83 85 83 80 80 82
59 62 65 68 68 72 70 76 89 76 56 38 34 42 46 47 48 57 58 59 58 61 65 73 78 90 88 83 84 86 84 87 86 76 84 89 83 82 82 81 83 84 82
72 81 80 78 69 88 96 88 72 47 34 39 44 47 48 53 55 55 55 64 62 65 68 70 76 80 88 84 83 86 91 96 94 86 86 85 81 83 80 80 79 81 81
81 85 93 97 98 83 71 66 51 37 39 41 47 56 60 63 63 68 67 65 66 66 70 75 80 80 79 83 96 98 95 87 90 85 82 87 79 81 81 81 82 83 85
98 97 91 59 52 58 51 44 41 49 51 50 55 64 72 72 69 69 67 68 75 80 74 74 72 74 77 78 76 77 88 93 88 82 81 87 85 86 84 84 72 63 80
73 46 42 39 37 37 53 56 58 56 55 57 65 68 67 72 70 69 71 74 76 75 67 71 78 76 64 63 79 81 84 96 95 90 70 81 87 93 84 68 68 66 73

GFSMA_925_rhum_039.txt.gz
RH
86 84 83 72 75 80 80 55 51 44 34 29 24 23 23 26 30 33 42 60 76 77 73 67 65 63 60 61 65 70 72 73 75 76 77 75 78 80 81 82 80 79 79
84 87 86 82 76 79 67 54 50 40 32 27 23 22 22 26 32 34 38 47 56 65 64 60 55 55 54 57 62 66 68 74 77 78 77 79 81 81 81 82 82 82 81
76 81 84 83 70 79 67 53 44 34 31 26 23 22 22 24 29 34 35 36 37 38 50 51 50 51 49 54 59 61 65 72 74 77 78 81 82 82 82 80 80 79 78
72 75 78 83 71 82 67 50 39 34 30 25 22 22 23 24 25 32 34 33 30 27 31 28 25 40 47 47 50 56 60 61 66 72 79 81 81 81 80 79 78 77 77
61 69 73 78 76 79 58 46 38 34 30 24 22 21 23 24 25 30 32 30 27 28 27 25 24 22 22 32 44 48 51 56 61 67 73 75 79 79 78 77 76 75 74
63 65 70 70 75 76 53 41 38 36 28 25 24 23 24 27 28 28 29 29 28 29 27 26 24 23 23 24 30 40 48 49 54 63 62 69 75 76 75 74 73 73 72
65 64 65 64 70 75 60 46 37 34 27 26 27 30 31 32 31 28 28 29 29 31 29 27 26 24 24 26 26 31 44 45 48 53 61 63 70 73 72 71 70 70 69
72 67 65 63 67 70 56 42 39 32 28 27 27 34 42 32 32 34 32 31 32 33 29 28 26 26 26 26 28 30 37 43 44 51 56 62 67 70 70 69 68 68 67
76 71 67 60 67 66 56 46 41 36 30 28 26 31 49 44 37 27 29 35 36 28 26 26 27 26 27 27 27 28 29 35 51 52 56 61 66 66 68 67 67 67 67
77 73 70 62 65 65 55 50 44 36 30 29 26 25 25 28 39 31 28 33 28 26 27 26 25 27 27 27 30 30 45 52 56 56 60 63 66 67 66 67 66 66 66
79 76 76 71 66 65 57 54 45 34 30 32 28 26 25 25 24 33 34 32 31 28 27 26 28 28 28 31 30 30 49 60 62 63 65 65 66 66 67 67 66 66 65
82 81 78 76 71 68 62 56 47 35 31 33 31 30 27 27 31 32 40 40 37 27 26 28 30 30 32 31 31 34 36 58 60 61 60 64 68 69 68 67 68 65 65
89 83 82 82 78 72 66 58 41 34 34 34 32 30 26 24 24 27 30 41 43 38 33 30 32 31 33 34 33 36 39 59 64 66 67 71 71 70 70 69 67 65 63
84 85 84 82 79 71 65 51 40 39 37 33 29 26 26 25 25 25 28 37 53 57 48 36 34 35 37 37 36 44 49 62 66 67 70 73 71 72 72 70 68 66 64
82 80 83 83 78 67 55 43 39 40 33 30 29 31 31 28 30 32 33 36 41 56 62 43 36 36 39 40 46 56 62 59 71 72 74 75 75 74 72 70 69 68 64
85 84 85 81 72 58 48 41 41 35 34 40 41 36 33 32 36 37 38 41 43 47 65 45 42 41 44 48 56 64 62 67 64 76 79 79 75 74 73 71 69 69 74
85 83 78 70 61 54 46 41 38 42 46 58 63 58 39 35 36 39 42 44 46 50 65 55 52 48 53 58 62 62 60 59 59 71 77 79 79 78 74 72 71 69 68
82 77 71 63 57 50 41 42 48 60 73 75 65 57 40 37 41 44 46 46 48 50 56 65 57 58 62 63 65 68 66 62 70 72 83 85 78 74 74 74 72 73 76
74 69 62 57 52 47 48 60 79 74 64 60 52 43 45 46 49 51 53 51 50 51 54 63 71 70 70 66 70 74 73 76 76 76 75 75 76 77 80 79 76 72 74
63 60 60 57 57 63 73 70 70 68 58 58 58 59 76 87 84 60 51 49 53 57 60 64 71 73 72 70 78 84 82 78 81 77 71 79 82 82 80 78 80 82 84
65 62 61 72 74 73 73 65 61 60 62 83 99 97 65 54 51 63 66 61 59 61 63 64 76 78 80 86 86 80 88 86 88 82 72 76 80 82 83 82 80 80 84
68 70 74 75 73 72 82 78 82 98 100 99 69 50 46 45 47 51 64 69 66 64 65 74 73 82 91 81 83 88 88 96 89 78 80 86 84 85 79 77 78 86 86
76 74 73 72 82 98 99 99 99 83 45 46 43 43 45 52 55 54 54 66 68 70 70 71 79 80 82 83 82 93 96 98 96 91 88 89 85 86 75 74 76 82 84
91 92 93 98 99 99 99 98 72 43 40 42 44 49 57 66 64 72 72 70 68 70 76 81 82 79 76 76 88 98 97 92 90 88 85 88 78 81 78 73 82 84 86
97 100 100 100 99 96 94 79 45 47 50 53 56 63 71 73 70 72 70 70 79 80 74 73 74 78 81 79 76 76 86 94 89 84 83 86 86 82 84 84 71 58 82
99 98 80 50 64 78 68 62 61 55 54 58 64 70 69 74 71 74 74 82 76 73 68 77 80 75 66 61 74 81 86 97 96 91 67 79 83 92 84 67 67 64 70

GFSMA_925_rhum_042.txt.gz
RH
81 85 90 82 72 84 85 76 57 50 41 34 30 24 24 27 32 40 72 79 74 79 74 69 68 64 62 65 70 73 74 78 80 80 80 82 82 83 83 84 84 84 83
82 88 88 83 72 79 82 77 54 47 37 32 27 23 23 28 33 38 49 67 66 71 68 63 58 56 57 60 65 67 72 78 78 79 81 83 84 84 83 83 82 81 81
80 84 82 84 80 78 81 70 56 44 34 31 26 23 22 26 32 35 40 44 51 55 58 55 56 52 53 58 60 65 67 68 70 76 80 83 83 84 83 81 81 80 80
78 79 86 86 85 76 80 66 55 41 32 30 25 22 23 24 29 36 37 38 36 35 41 36 33 47 49 48 51 56 57 60 64 70 77 78 81 82 80 80 79 77 77
73 78 79 83 87 77 84 70 50 38 34 30 24 23 24 25 26 32 36 35 30 29 31 26 25 24 24 38 44 47 51 56 57 63 68 71 75 80 78 77 76 75 74
62 72 78 76 83 81 85 72 50 37 35 29 24 22 24 25 26 28 35 33 30 30 29 28 25 23 23 25 34 42 49 51 52 57 61 66 69 74 76 74 73 72 72
68 55 58 69 79 84 80 67 44 37 35 28 27 29 30 32 30 29 34 32 30 30 30 28 25 24 24 24 24 25 48 52 50 52 57 61 65 70 72 72 70 70 70
77 61 61 67 77 82 81 63 46 39 34 29 28 34 43 35 34 31 30 30 30 31 32 30 27 25 25 25 25 25 26 39 52 52 56 60 64 68 70 70 69 68 68
84 77 69 69 72 76 77 70 50 45 36 30 27 32 52 48 39 33 35 35 34 34 34 30 27 26 26 25 25 25 27 33 56 57 58 62 64 69 68 68 68 68 67
85 84 78 74 72 71 73 72 55 46 41 34 31 29 30 32 44 36 31 35 37 34 29 27 27 26 25 26 27 31 44 53 65 67 68 70 70 70 69 68 68 68 68
86 84 84 85 79 72 69 72 60 50 44 43 31 30 28 27 26 34 37 35 34 30 29 28 26 27 27 28 30 29 38 62 62 63 64 66 67 68 69 69 69 69 69
94 91 85 84 84 77 70 71 65 56 47 40 32 30 27 28 30 30 35 38 34 31 30 30 29 30 31 32 31 34 35 60 63 65 69 70 72 72 72 72 71 71 70
94 92 91 90 85 79 75 70 68 61 54 40 37 33 30 29 28 27 28 40 37 33 30 29 31 33 34 33 34 37 34 33 60 68 70 74 76 76 75 74 72 71 70
72 74 84 87 86 85 81 74 69 62 56 42 41 40 32 28 33 26 27 35 51 51 43 31 34 34 35 35 36 36 40 45 66 72 74 72 74 78 78 76 74 72 71
79 82 91 94 93 91 85 79 74 64 48 46 44 35 37 47 29 30 31 28 32 49 51 41 35 35 36 38 40 48 53 58 75 72 72 77 77 79 77 75 73 72 70
90 88 91 96 96 92 87 80 71 56 47 42 40 41 41 37 40 40 42 40 38 41 56 39 38 37 41 43 45 54 58 62 60 72 74 77 78 78 77 75 73 70 72
97 95 94 95 93 88 81 72 58 46 41 42 49 48 59 60 58 57 50 54 50 48 60 53 49 44 45 49 54 57 60 64 60 56 76 77 80 81 78 74 72 70 70
96 93 92 90 85 77 67 56 46 42 46 62 76 80 73 76 71 71 69 68 65 70 65 65 56 54 56 58 60 64 66 68 64 60 77 83 80 78 78 78 77 74 76
89 86 82 76 68 63 56 49 45 59 74 83 83 72 69 69 76 92 98 99 98 60 54 62 66 65 66 63 67 70 72 71 72 70 75 79 81 83 84 83 77 75 75
78 73 73 69 64 56 54 66 76 76 72 74 75 74 83 96 99 100 97 87 58 55 58 62 68 69 69 70 74 82 85 79 81 76 70 77 86 82 80 78 79 82 85
79 77 71 68 67 69 80 81 83 82 78 82 88 97 100 97 70 90 95 83 69 65 65 67 74 76 80 81 86 81 86 88 91 84 72 72 73 80 73 70 74 79 86
80 79 81 80 82 85 88 79 69 79 97 100 99 95 48 54 57 60 77 71 68 68 70 75 75 83 87 84 83 88 90 95 88 78 78 85 87 84 76 74 68 87 87
88 89 86 82 90 99 100 99 100 98 97 88 49 48 50 54 50 49 52 70 74 75 74 76 83 84 87 83 80 90 94 100 98 92 92 89 86 86 77 71 77 83 84
94 95 98 100 99 100 100 99 91 62 45 44 48 48 54 61 58 71 72 72 70 72 77 80 82 80 78 79 83 89 92 88 87 88 86 91 80 80 77 70 77 84 84
100 100 100 100 99 98 98 57 44 49 51 54 57 62 68 68 64 73 71 72 87 86 75 73 78 85 85 80 77 81 86 96 90 85 85 88 86 82 83 81 67 59 79
100 99 98 96 96 97 96 90 58 56 56 60 66 72 65 73 76 77 80 93 80 76 69 80 80 74 63 64 72 80 88 100 98 91 71 82 84 92 86 66 66 66 68

GFSMA_925_rhum_045.txt.gz
RH
79 79 86 90 73 82 85 84 75 56 50 42 34 28 25 29 35 65 88 83 71 82 75 71 70 66 65 70 73 75 79 80 80 81 83 84 84 84 84 84 83 83 83
72 75 85 93 85 76 84 84 68 54 45 37 34 26 24 28 34 49 69 79 69 74 71 67 61 58 61 66 67 70 78 75 78 80 83 84 84 84 84 83 83 83 82
75 74 84 92 87 71 83 85 68 52 41 35 31 27 23 27 33 40 52 62 70 64 64 59 58 54 58 61 62 66 66 66 70 75 82 83 84 83 82 81 81 79 79
80 78 82 88 83 79 80 85 72 53 40 34 32 26 23 25 32 36 42 47 51 54 54 52 48 52 51 50 54 56 56 61 63 68 73 76 79 82 80 79 78 78 77
76 84 81 81 83 88 81 82 68 55 42 34 31 25 24 24 29 36 40 42 39 38 38 31 30 35 28 38 46 48 52 56 56 60 67 67 72 76 80 78 76 76 74
69 76 81 80 86 91 90 84 71 53 40 36 30 25 25 26 26 32 38 39 33 30 32 27 25 22 21 23 30 40 49 53 54 54 59 62 68 70 74 76 75 73 72
76 72 73 79 81 90 92 83 78 49 39 35 29 28 29 29 28 28 36 38 33 31 31 27 26 24 22 22 23 23 28 58 57 55 56 60 64 68 72 72 73 71 71
84 76 74 74 76 85 90 90 82 52 38 36 34 41 38 37 35 32 34 39 35 32 31 30 28 26 24 24 24 23 23 25 54 58 59 61 64 67 69 70 70 69 69
90 83 81 75 66 80 81 89 83 62 43 36 31 34 45 40 38 37 34 32 34 33 32 33 31 28 26 25 24 24 26 39 61 63 66 68 70 71 70 69 70 69 69
99 93 86 81 69 65 77 80 84 67 49 41 34 30 32 34 39 36 35 37 37 34 34 34 32 28 27 26 26 28 34 35 63 67 68 70 72 72 70 69 69 69 69
100 100 96 88 80 74 74 78 81 69 53 51 46 35 35 34 30 39 38 37 38 38 37 34 30 28 27 28 28 28 31 39 66 67 68 69 72 73 72 70 70 70 72
100 100 100 97 91 84 79 76 79 77 68 54 53 44 37 33 34 31 36 36 37 40 33 32 31 30 30 30 31 31 32 38 60 65 68 71 74 76 75 75 73 72 71
100 98 96 100 99 93 89 86 82 78 74 62 54 49 40 31 30 28 31 44 41 37 36 34 33 33 33 33 33 34 34 34 41 65 71 75 78 77 78 78 76 75 73
85 90 98 99 94 98 97 93 88 81 78 69 58 50 38 34 30 29 36 53 66 57 39 41 35 35 35 35 35 36 36 35 39 70 74 73 74 76 77 79 77 75 74
91 88 91 100 100 100 100 97 94 88 82 73 60 49 42 35 34 44 61 56 42 52 45 40 37 37 38 37 36 40 42 48 57 74 74 75 74 76 78 77 76 74 73
96 99 97 100 100 100 100 98 94 88 81 73 55 50 42 44 56 49 44 50 50 41 47 41 43 45 46 54 54 50 52 55 65 74 76 76 77 78 77 76 75 74 72
100 100 99 99 100 100 100 98 92 85 77 62 54 46 50 56 61 61 60 58 64 72 86 80 80 93 89 58 50 52 54 60 68 68 76 75 77 81 79 77 75 74 73
100 98 99 100 100 99 95 90 84 73 61 54 53 53 62 66 73 80 86 84 82 87 96 96 96 72 53 52 55 58 64 65 73 74 75 78 78 80 80 80 80 76 77
99 99 97 96 92 87 82 76 71 64 63 59 72 82 87 83 83 85 88 98 99 99 99 99 91 87 83 68 68 74 77 79 80 76 75 76 81 84 86 85 80 77 77
87 81 79 78 76 75 73 69 64 64 77 85 87 89 88 89 96 100 100 99 99 95 96 100 94 84 79 76 74 82 76 72 70 72 77 80 84 82 80 78 79 82 84
82 81 81 82 81 78 77 73 79 85 83 85 92 95 99 100 99 98 94 94 97 99 96 88 82 80 77 74 73 74 77 72 76 80 81 77 78 78 78 82 82 82 84
87 87 90 87 88 92 85 84 86 90 95 98 99 99 98 97 69 80 89 94 95 84 79 86 82 77 76 79 80 79 80 80 80 73 79 77 77 74 73 74 76 84 86
96 96 94 94 99 100 100 98 94 99 99 99 98 85 68 64 55 56 60 72 75 77 77 78 83 78 80 78 82 93 91 89 88 81 79 79 73 74 74 73 77 79 82
100 100 100 100 99 100 100 100 100 98 94 59 47 50 55 70 62 79 72 72 70 72 75 83 86 82 80 83 90 94 95 83 80 77 78 81 71 69 70 72 76 81 85
100 100 100 99 99 99 98 89 51 48 51 55 60 82 80 70 54 75 74 75 86 88 77 69 78 86 86 83 79 82 88 86 86 74 76 78 76 75 77 78 75 70 77
99 99 99 99 98 96 87 58 56 54 57 62 69 66 53 74 80 79 89 97 83 78 72 82 81 73 60 62 68 86 93 99 94 85 78 83 80 84 79 67 74 76 77

GFSMA_925_rhum_048.txt.gz
RH
72 74 77 73 69 70 72 75 70 56 47 40 39 40 40 41 47 56 61 85 77 81 77 73 72 69 70 74 75 78 80 80 81 82 84 84 84 84 84 84 84 83 82
71 74 74 77 75 73 73 72 68 53 44 39 35 36 38 39 43 52 53 75 72 75 73 72 64 62 66 70 70 77 75 74 78 81 84 84 85 85 83 82 82 82 82
70 71 72 75 81 78 72 74 66 52 43 37 35 33 39 39 42 50 55 54 70 71 71 64 59 58 61 65 67 68 66 65 70 74 80 80 82 82 82 81 80 80 79
74 73 74 74 79 81 76 74 66 54 45 39 36 34 36 41 41 44 53 55 55 52 60 62 59 53 57 54 58 58 57 61 61 65 70 73 75 80 81 80 79 78 77
80 76 73 74 78 82 80 75 68 59 49 42 38 35 33 37 42 44 48 52 52 49 47 51 40 53 44 47 51 50 53 56 57 57 64 67 68 73 76 79 78 76 75
85 84 75 74 76 82 83 77 66 59 51 45 35 33 35 32 36 42 43 48 46 50 47 44 42 39 26 27 35 40 48 53 57 56 58 60 64 68 70 74 76 76 73
86 88 80 76 76 78 81 79 69 60 52 45 37 39 38 36 34 35 44 44 42 46 44 44 41 35 29 21 22 24 25 53 58 59 57 60 63 65 69 72 73 72 72
92 90 88 77 76 78 80 83 73 62 56 46 44 43 42 37 35 35 36 42 40 41 40 39 38 35 33 33 36 24 23 22 40 59 62 64 65 67 70 71 71 70 70
93 94 95 87 83 81 80 82 78 68 60 50 44 47 49 50 35 37 37 40 40 39 39 38 37 36 36 35 30 29 24 24 40 66 70 73 74 74 74 72 72 71 70
99 97 98 97 92 89 83 83 82 74 68 56 48 44 42 39 37 43 38 39 38 37 38 39 38 39 39 38 37 38 35 30 42 64 68 72 72 73 73 72 71 70 70
99 99 99 100 98 96 92 84 80 76 72 63 55 47 43 40 36 36 39 39 41 40 38 41 38 38 39 42 46 46 29 28 52 68 67 68 70 73 75 74 73 72 72
97 100 100 100 99 98 97 91 86 79 75 72 58 54 48 45 39 33 33 38 37 38 42 42 40 40 40 40 41 43 33 32 38 63 66 68 74 77 78 78 76 76 74
96 96 99 100 99 100 97 95 94 87 81 79 67 64 53 49 40 37 36 44 37 41 43 42 42 41 43 43 44 39 44 34 34 54 66 71 76 78 79 77 78 77 76
82 92 100 100 100 100 99 98 99 95 92 85 79 73 64 56 47 38 34 47 62 56 61 66 52 60 53 46 49 41 46 50 44 50 68 73 75 77 77 76 78 78 77
79 84 92 98 100 100 100 99 100 99 99 94 89 83 70 61 48 37 34 36 58 76 67 56 56 49 48 45 50 48 50 58 68 65 73 74 76 77 77 79 78 78 77
70 83 96 99 100 100 99 100 100 100 99 96 92 82 67 52 41 40 51 60 62 61 72 60 62 59 54 51 49 78 91 60 69 71 74 77 78 78 77 78 78 77 75
94 95 96 98 100 100 100 100 100 99 98 93 88 77 63 57 68 74 65 57 60 64 81 88 78 80 88 98 99 95 81 79 66 66 69 77 76 78 80 78 77 76 74
99 99 99 100 100 100 100 100 99 97 92 87 80 72 73 66 64 68 66 68 80 90 93 98 99 99 98 98 90 86 83 69 65 62 71 78 82 78 80 80 81 80 78
98 98 98 98 97 96 96 94 90 84 81 81 75 66 68 74 87 93 96 95 97 98 98 99 99 97 96 94 90 80 69 66 66 69 68 62 67 74 81 83 83 80 79
79 81 78 79 80 81 83 82 83 84 82 76 73 76 83 89 93 95 99 98 98 99 98 99 94 89 90 87 81 73 60 58 58 57 60 66 75 78 81 83 84 85 86
95 94 89 87 88 91 88 83 83 78 77 88 94 96 97 99 100 100 99 99 98 98 97 93 84 78 69 62 57 57 61 60 61 60 60 62 61 62 64 66 68 72 74
99 92 90 86 90 98 99 86 81 91 94 94 99 100 100 98 99 98 99 99 98 89 91 81 78 69 60 57 59 61 66 65 65 64 65 66 63 61 60 60 62 69 76
100 100 100 100 100 100 100 97 92 96 99 100 99 98 99 96 64 61 59 86 86 89 88 79 68 60 60 63 76 82 75 72 76 70 66 66 63 63 61 59 62 68 74
100 100 100 100 100 100 99 100 100 99 95 83 75 81 89 84 79 82 76 81 79 74 71 74 74 70 68 67 68 80 86 76 69 66 65 69 63 62 62 63 65 70 74
99 99 99 99 98 99 99 97 84 82 85 83 81 83 81 76 63 78 71 78 76 75 78 77 77 79 84 84 81 75 78 75 76 69 68 71 67 69 72 75 74 73 76
99 99 99 99 98 97 92 71 61 57 62 68 69 65 54 73 82 82 79 84 74 66 62 71 68 64 62 62 77 83 78 89 88 83 67 78 78 84 79 67 72 72 76

GFSMA_925_rhum_051.txt.gz
RH
61 63 62 61 60 61 62 70 66 58 54 46 42 42 41 40 40 48 70 77 86 81 79 76 74 74 74 76 77 81 80 81 82 85 85 84 85 86 85 85 86 86 85
61 62 62 62 62 59 60 61 62 59 49 43 40 38 39 38 37 46 55 80 82 71 74 74 70 66 71 73 74 80 74 75 77 82 84 84 85 83 83 83 82 82 82
60 62 63 62 64 64 62 61 61 57 48 42 38 37 38 39 39 41 48 61 78 73 71 72 64 63 66 68 70 72 66 64 68 71 76 78 80 83 82 81 80 80 79
64 62 62 63 62 66 67 63 63 58 49 43 40 37 37 40 39 38 46 48 61 66 70 66 62 59 62 62 62 62 58 60 59 62 64 69 72 75 79 81 80 78 78
68 66 64 64 63 66 69 68 65 59 52 47 42 38 36 40 40 38 41 48 50 50 57 58 59 53 59 54 57 54 55 56 54 56 60 67 67 71 73 76 79 79 77
72 71 69 66 64 66 71 72 67 63 55 50 44 38 38 36 39 40 40 43 47 50 46 50 48 47 45 41 51 50 50 53 56 58 58 60 63 67 70 72 76 76 76
77 76 76 71 67 66 70 72 70 65 60 52 46 37 39 39 36 36 40 40 44 48 47 43 44 42 38 28 38 43 35 49 60 58 61 60 63 66 68 71 74 74 72
78 80 80 79 72 69 68 71 71 68 61 54 47 46 54 44 39 36 34 40 41 43 45 42 43 39 34 32 26 24 22 22 24 54 61 64 66 69 72 75 74 72 71
89 82 84 83 79 72 72 73 74 72 65 57 49 51 63 62 43 38 35 37 40 41 42 41 40 37 35 35 36 32 24 23 23 56 69 71 73 74 75 76 75 74 72
92 92 88 87 86 82 77 76 76 78 69 62 54 51 51 42 53 51 39 37 39 40 40 40 38 36 36 37 38 39 42 33 27 52 65 71 71 72 73 75 74 73 73
81 92 93 90 93 91 88 81 79 82 76 65 60 58 52 44 40 44 50 43 40 39 38 39 38 38 38 38 40 38 38 30 34 59 66 67 70 73 76 76 76 77 77
72 82 86 90 94 95 91 90 85 87 82 77 65 63 55 53 48 42 50 45 43 42 40 38 41 39 39 40 45 46 44 33 31 45 64 68 70 75 79 80 80 78 77
72 82 86 90 92 93 96 95 97 94 86 83 80 66 62 59 57 52 51 49 48 42 44 42 42 41 40 41 44 41 45 38 34 52 65 68 70 77 78 78 78 79 78
63 64 84 87 93 97 99 98 100 97 93 89 84 79 70 64 62 53 47 51 71 65 54 50 44 46 43 42 50 52 52 47 49 47 70 70 72 76 76 78 76 79 78
56 63 71 79 85 90 99 100 100 100 99 96 94 92 83 76 66 55 56 72 75 84 67 63 63 56 56 58 59 55 47 48 52 67 83 78 76 76 76 78 79 79 79
63 60 64 81 82 88 98 99 100 100 100 99 99 96 94 84 78 74 60 51 58 73 91 83 82 72 65 63 57 63 56 59 76 88 82 74 75 80 82 81 80 80 79
90 91 86 84 87 89 91 100 100 100 100 100 100 99 92 84 75 62 62 75 85 85 90 91 76 73 72 69 74 84 96 97 82 74 71 70 70 74 79 81 80 80 78
95 96 95 98 99 98 100 100 100 100 100 100 98 93 88 78 68 74 76 79 82 87 89 98 99 98 99 100 100 99 94 83 72 64 63 70 76 82 80 75 78 80 80
80 84 90 93 95 96 99 100 99 99 98 95 93 88 85 78 76 76 79 87 96 99 98 98 100 99 99 98 94 87 83 71 65 62 64 61 59 62 71 79 83 83 83
87 82 82 81 82 86 86 89 89 90 92 92 90 87 79 77 82 94 96 97 98 99 99 99 98 98 97 92 89 80 69 61 59 58 57 60 63 66 71 72 72 74 78
94 94 94 93 94 93 93 91 92 89 88 90 91 91 95 96 98 98 98 99 98 99 99 98 90 83 76 71 70 58 59 60 62 61 60 61 61 62 64 66 64 64 66
99 99 98 99 100 98 100 100 93 94 95 100 100 100 100 100 99 98 98 97 96 97 88 80 80 73 63 58 56 58 72 75 71 62 66 69 69 65 63 62 63 64 69
99 100 100 99 100 100 99 99 99 99 99 100 99 98 97 87 77 65 63 71 88 89 88 84 75 65 58 59 69 71 74 77 79 73 76 71 69 68 65 62 62 67 72
99 99 99 98 98 99 100 100 99 98 97 98 94 82 80 78 72 77 72 76 78 74 73 71 69 69 68 67 65 68 73 76 75 72 68 72 68 68 68 67 70 73 76
98 98 96 95 96 99 98 95 80 76 87 80 79 78 73 66 59 77 73 72 78 70 72 75 76 76 78 81 82 81 81 80 82 77 74 76 73 73 76 74 62 72 72
96 89 89 92 91 83 78 67 55 57 59 62 62 58 58 76 82 83 84 78 76 68 63 62 66 65 64 62 66 74 80 85 85 88 74 77 81 89 93 67 70 69 71

GFSMA_925_rhum_054.txt.gz
RH
64 67 64 64 62 75 68 79 74 72 57 52 46 45 44 43 41 47 60 70 74 84 81 80 78 78 78 79 82 82 82 82 86 86 86 87 88 85 84 84 84 84 83
60 64 65 63 61 62 67 69 70 68 57 53 45 42 41 40 38 47 58 68 72 80 76 75 76 73 76 77 81 78 77 78 81 84 85 85 84 84 84 83 82 82 81
59 62 62 64 62 62 60 61 62 63 60 50 43 40 39 39 38 40 52 63 65 78 65 75 72 69 73 73 77 75 69 70 69 74 75 77 79 83 83 82 82 81 81
59 60 62 63 64 65 64 61 62 62 59 49 43 39 37 39 39 38 46 57 62 63 66 74 69 65 67 70 72 69 63 62 53 48 48 58 71 74 76 81 82 81 79
68 64 63 63 64 64 66 66 64 64 61 51 44 40 37 38 40 39 40 48 60 59 58 62 62 62 64 66 63 63 61 57 43 47 53 61 67 69 73 75 77 79 80
69 69 66 64 64 64 65 68 68 66 63 55 47 42 39 37 40 40 38 43 49 54 57 54 54 52 55 59 58 59 57 56 42 40 50 60 63 66 70 72 76 77 77
72 73 70 69 66 65 65 69 69 68 66 57 52 44 40 38 37 40 40 39 45 48 49 51 50 49 44 43 52 55 54 54 56 44 55 62 64 66 68 72 74 75 75
77 78 77 75 73 69 66 69 73 73 68 61 52 44 60 47 40 37 38 40 41 46 46 48 47 42 38 39 36 50 50 50 55 53 58 64 67 69 74 78 78 76 76
92 89 84 79 83 79 74 70 75 75 75 65 56 50 78 77 52 41 37 36 41 43 44 45 46 44 41 38 33 27 25 26 34 53 62 69 74 74 76 77 78 77 77
80 74 79 93 83 85 81 79 74 81 78 71 62 51 51 53 63 55 40 36 37 42 42 43 44 42 42 35 34 34 33 28 27 51 62 68 72 72 73 76 78 78 78
72 79 83 78 77 85 85 80 77 79 82 79 69 58 58 58 44 58 62 50 37 39 41 42 41 40 39 37 36 37 36 36 50 58 64 66 69 71 74 77 79 81 81
62 66 75 85 77 82 88 89 89 87 90 88 77 68 61 64 58 50 75 62 53 44 40 41 42 40 38 37 37 38 39 47 61 66 64 66 69 72 75 81 82 81 79
60 64 68 74 78 78 81 85 87 88 90 98 87 76 70 65 63 57 55 67 63 47 45 43 48 43 40 39 43 46 49 55 60 60 63 67 70 74 77 80 80 79 79
50 55 62 68 74 80 83 88 90 87 94 100 99 92 83 73 68 68 64 73 85 74 63 65 65 70 66 80 66 51 54 54 49 46 61 74 79 81 82 81 80 81 81
68 62 60 64 74 78 83 85 90 91 96 99 100 98 97 90 76 71 66 62 67 95 93 97 91 92 76 54 55 68 67 74 65 73 74 78 68 91 91 81 82 82 81
76 76 78 80 85 80 78 84 91 99 99 99 100 100 100 99 90 78 72 66 75 92 98 90 88 76 68 69 80 89 75 68 64 66 79 88 98 85 80 80 82 82 82
89 92 95 91 89 87 92 88 94 95 100 100 100 100 100 100 94 90 86 83 86 87 94 98 93 96 98 96 97 91 83 83 86 93 94 92 77 74 76 78 82 83 81
82 84 86 90 92 94 95 98 99 100 100 100 100 100 100 98 94 92 92 93 95 97 97 99 98 100 96 93 90 98 99 96 89 64 73 70 71 77 81 77 73 76 80
82 80 80 80 85 88 93 98 99 99 100 100 99 99 97 93 87 84 87 89 94 95 94 94 100 100 100 99 99 94 83 77 71 67 68 64 61 62 65 71 77 82 83
90 90 88 88 88 87 88 91 94 95 96 95 93 92 90 88 86 88 94 98 100 99 98 98 100 100 97 98 92 78 74 66 64 61 58 59 63 67 66 70 71 72 75
99 96 92 92 94 97 96 95 97 100 94 98 95 93 92 94 98 99 98 99 97 95 95 94 95 91 89 87 82 71 72 61 61 62 58 60 63 64 62 61 67 68 70
99 98 100 99 98 99 99 99 95 98 99 99 99 100 98 100 100 99 99 99 95 95 94 89 82 80 72 63 59 62 71 72 75 61 70 66 60 65 63 65 67 72 71
99 99 99 99 100 100 99 98 99 98 99 99 99 98 97 96 90 78 76 83 85 89 88 86 83 74 66 67 67 67 67 68 76 72 75 81 74 72 65 64 67 74 76
95 96 100 100 99 100 100 100 99 98 98 98 95 77 65 69 70 75 71 72 74 70 70 72 71 71 72 71 69 72 77 78 77 70 75 78 72 69 60 64 63 72 81
99 99 93 83 81 78 75 75 58 64 72 75 70 66 64 60 70 78 75 75 78 73 76 75 73 74 73 80 80 82 82 83 86 83 79 81 75 73 69 63 58 61 77
78 80 87 82 79 77 78 70 57 57 59 61 56 59 74 76 84 87 89 80 75 71 67 64 63 67 66 62 65 68 72 77 84 83 83 81 82 88 89 74 72 70 73

GFSMA_925_rhum_057.txt.gz
RH
67 64 64 62 57 55 69 72 76 72 56 52 47 47 48 46 44 48 55 64 67 74 84 83 82 80 80 82 85 83 84 86 87 87 88 89 87 86 85 85 86 86 85
63 64 67 65 63 61 64 73 73 74 66 56 53 46 46 44 43 44 57 59 70 70 79 81 80 80 80 80 84 82 82 85 86 86 88 86 85 85 85 84 84 83 83
59 65 68 67 65 62 63 70 71 74 77 59 56 47 43 41 41 40 54 59 67 71 74 76 78 76 78 78 84 78 77 75 78 77 81 81 83 84 84 84 83 83 82
57 60 62 65 66 65 62 62 65 73 70 60 55 47 42 40 40 38 43 56 61 65 71 67 78 73 76 77 80 78 71 71 69 70 71 71 75 76 79 82 83 82 81
68 59 59 62 63 65 66 64 61 62 64 63 54 46 42 38 39 40 40 47 58 58 60 60 72 70 72 75 75 75 68 66 64 63 65 66 68 71 74 76 78 80 81
70 70 66 61 62 64 65 68 66 63 64 64 56 47 44 40 37 40 40 42 50 57 57 57 61 62 62 71 71 71 66 65 60 55 60 63 65 67 71 73 76 78 78
76 72 72 71 68 64 65 64 69 69 67 66 57 50 45 43 37 37 41 40 46 50 57 57 56 58 54 55 66 66 64 65 61 60 60 61 64 67 69 72 75 77 78
70 88 83 74 71 68 66 67 66 73 71 70 59 54 57 48 40 38 39 41 40 46 50 55 56 52 51 48 49 60 64 61 61 64 60 63 66 68 70 75 80 80 79
67 64 74 89 83 78 73 70 70 73 83 76 66 58 79 71 58 41 40 38 40 41 47 49 50 53 51 48 46 44 56 61 59 61 58 64 67 74 78 78 78 79 79
75 77 70 71 72 80 92 84 81 79 85 89 78 61 55 56 68 63 45 44 38 41 42 49 48 49 48 44 39 39 40 44 56 53 59 68 72 74 74 75 77 79 80
65 77 74 74 70 68 70 86 92 93 90 90 84 76 65 68 59 63 68 58 46 40 42 47 48 47 47 45 42 38 34 33 50 57 62 66 71 70 72 76 80 82 85
47 66 71 67 73 80 76 73 74 84 97 98 96 86 76 72 74 65 80 77 72 54 45 48 48 51 51 50 42 37 39 48 65 65 66 69 68 70 74 76 82 84 84
53 53 59 74 74 72 72 74 77 76 80 94 100 97 90 81 76 77 70 74 78 60 56 53 55 55 59 67 51 51 61 80 77 75 76 79 82 78 80 81 82 85 87
69 65 62 65 64 72 73 74 70 78 80 84 87 100 98 90 84 87 75 77 91 79 69 72 68 66 61 55 61 68 85 90 87 75 79 90 88 93 88 86 88 88 87
75 76 75 74 72 81 94 92 96 85 89 85 86 99 100 100 96 91 91 79 82 92 93 85 73 71 64 61 72 87 91 91 85 86 94 97 97 97 95 98 98 89 87
80 75 75 81 83 86 93 85 90 81 84 84 98 100 100 100 100 99 99 91 92 89 94 83 91 93 91 92 95 97 94 92 99 99 98 98 98 100 99 99 90 83 83
79 78 80 82 85 87 87 86 82 84 84 94 97 100 100 100 100 99 100 97 92 95 98 100 94 96 98 96 97 99 97 100 98 92 97 100 100 100 93 81 81 82 83
82 80 80 78 79 81 84 86 93 99 99 99 100 100 99 100 99 98 97 96 98 100 100 100 100 99 100 100 100 100 100 93 87 88 98 99 89 77 76 80 78 73 76
86 84 83 80 83 84 86 88 95 99 100 100 99 100 100 99 94 91 92 96 99 100 99 97 100 100 100 98 96 92 91 99 99 87 85 77 72 69 67 69 73 76 80
92 92 92 91 90 89 89 90 93 98 99 98 96 94 94 93 90 90 94 97 98 97 97 97 100 100 100 100 100 100 93 77 68 66 66 60 67 67 72 72 75 77 79
100 100 100 98 98 96 96 93 93 94 96 96 98 98 98 96 97 99 98 99 98 97 95 96 97 97 96 94 90 76 78 69 62 64 60 57 62 60 60 57 60 64 73
100 100 100 99 98 99 100 91 90 95 97 98 100 100 99 98 100 100 99 99 97 94 94 93 90 84 79 74 72 71 70 71 71 65 67 65 57 59 59 62 59 80 79
100 98 98 99 99 99 98 96 97 96 96 98 97 98 97 98 96 89 84 79 81 88 90 85 84 78 70 70 69 69 70 70 72 70 76 72 65 68 60 58 59 70 84
100 100 98 98 98 99 98 89 85 82 79 78 74 72 70 62 68 68 67 68 67 66 66 67 69 71 74 76 78 76 76 78 79 74 65 87 75 69 60 57 59 62 64
94 77 77 75 74 73 73 64 54 55 61 58 52 64 60 62 78 81 78 80 81 76 83 82 78 74 71 74 82 81 84 86 86 82 78 84 81 80 69 62 60 57 64
84 86 81 75 69 77 77 73 56 56 54 55 54 55 69 82 86 89 87 86 80 76 73 70 65 64 66 64 64 66 67 75 78 86 88 89 90 91 85 76 71 74 72

GFSMA_925_rhum_060.txt.gz
RH
67 68 68 66 63 57 58 69 74 72 69 52 49 53 50 50 50 49 61 70 67 70 85 91 86 84 83 85 84 85 88 88 88 89 90 90 90 89 87 87 87 87 87
63 65 64 67 66 62 52 55 65 71 73 66 51 47 46 48 48 46 48 61 66 66 73 85 84 82 82 84 86 84 84 88 88 90 90 87 87 88 87 86 85 86 85
65 64 64 66 68 66 63 62 70 73 78 75 60 54 50 46 46 44 45 54 61 68 67 81 83 82 82 83 85 84 84 87 87 88 87 87 87 86 86 86 84 85 84
66 62 63 66 68 68 66 65 68 72 73 78 79 62 56 47 44 42 42 50 62 64 70 71 79 81 81 82 84 82 80 80 82 81 82 83 85 85 85 85 83 83 83
64 62 60 62 66 68 69 67 66 70 72 74 80 68 56 50 44 41 41 44 55 62 62 63 68 73 78 81 80 83 78 76 74 74 74 75 76 77 78 80 82 83 82
67 66 67 64 62 65 66 68 68 65 67 65 68 63 57 49 44 40 39 40 45 56 62 59 63 68 69 74 80 79 79 73 71 69 69 70 71 72 75 76 79 80 80
71 75 72 71 70 67 64 66 67 70 69 69 71 66 57 49 44 41 39 39 40 44 58 63 60 60 64 64 71 77 77 73 69 65 64 66 68 69 72 73 76 79 80
70 72 70 69 75 76 74 72 69 71 74 78 76 68 67 58 49 47 44 40 40 40 45 60 63 58 60 61 59 71 73 72 71 66 65 65 66 68 70 72 76 80 81
81 78 75 71 74 82 83 80 76 75 81 80 83 75 79 78 63 48 47 43 40 42 42 47 60 62 58 59 58 57 60 70 68 67 68 64 66 69 71 76 81 80 81
67 79 82 81 81 79 81 74 74 84 85 91 94 83 76 65 72 75 49 44 43 45 45 44 53 59 63 58 56 53 54 63 66 63 64 63 71 71 77 76 76 78 80
42 46 55 82 82 72 71 71 78 82 90 99 97 91 84 85 72 76 73 63 51 50 46 45 44 50 56 59 56 56 53 53 64 61 56 61 80 86 80 79 76 80 85
54 56 63 73 79 83 75 76 77 79 81 84 93 99 97 84 84 84 87 78 80 64 57 50 49 52 53 56 56 53 60 60 65 64 79 93 98 95 88 81 78 83 84
66 64 64 64 71 76 77 79 79 76 78 80 80 96 100 100 92 91 90 84 88 82 70 61 59 58 60 60 62 66 84 88 88 98 82 90 95 92 90 87 83 96 88
78 77 72 69 67 68 75 84 89 90 92 90 89 80 90 98 99 98 95 91 97 96 91 78 74 75 69 69 69 74 87 94 93 91 92 92 90 93 94 93 99 99 99
76 74 70 70 74 78 89 95 98 100 97 89 87 89 99 100 99 98 98 100 98 99 98 93 92 93 89 88 91 97 93 90 89 89 99 99 98 98 98 95 98 99 99
74 74 72 69 73 80 87 90 87 85 81 81 75 79 88 96 100 100 100 100 100 99 97 91 97 88 91 90 98 90 87 92 97 98 98 98 97 99 98 100 100 100 100
79 78 79 78 78 78 79 81 83 81 82 85 93 99 100 100 100 100 100 100 98 97 99 100 100 98 96 98 100 100 100 100 100 99 99 100 100 100 100 100 100 96 92
82 81 81 81 80 81 82 83 88 93 99 99 99 100 99 99 99 100 100 100 98 98 100 100 100 100 100 100 100 100 98 98 98 99 99 99 100 100 100 91 86 82 82
90 87 86 86 85 85 84 83 87 90 96 98 99 99 98 95 94 92 95 99 99 99 99 98 100 100 100 100 100 100 100 100 99 100 99 99 99 93 82 76 74 74 76
97 94 94 93 93 92 92 94 94 94 95 94 93 92 92 91 90 89 91 93 95 96 97 98 100 100 100 100 100 100 99 100 98 83 70 74 70 67 73 72 76 78 83
100 99 99 98 99 99 99 94 92 94 96 98 99 99 100 100 98 98 96 96 94 94 94 95 99 99 100 98 99 95 90 76 70 66 62 61 58 55 58 58 60 59 74
98 99 99 99 99 100 98 92 92 95 98 99 99 99 99 99 99 100 100 98 96 95 91 92 93 87 83 83 81 78 74 72 68 65 62 60 55 48 53 60 59 59 83
99 99 97 99 99 99 98 91 91 91 91 89 85 81 74 69 68 66 69 60 75 84 88 83 83 79 72 70 70 70 70 71 68 66 73 67 51 57 61 58 58 70 86
97 98 91 81 76 82 84 62 58 58 56 60 58 56 55 61 74 76 66 69 70 68 70 71 72 73 75 76 79 80 79 79 80 75 70 81 74 66 59 57 59 61 82
79 74 73 73 73 73 79 60 50 50 49 47 54 70 68 60 82 96 81 81 83 79 85 84 81 79 76 80 78 85 87 89 87 78 80 82 83 82 67 61 62 64 74
76 73 69 64 70 78 80 76 50 51 51 55 58 58 70 84 87 84 85 83 78 79 76 74 70 65 66 62 65 70 67 75 80 82 88 89 91 87 86 71 67 68 65

GFSMA_925_rhum_066.txt.gz
RH
69 45 43 43 55 64 57 55 59 63 67 68 65 56 56 54 55 53 52 57 66 75 90 92 95 95 89 88 88 85 90 90 90 90 91 91 92 92 91 91 91 90 90
75 56 52 61 61 64 67 65 62 61 62 69 69 69 63 52 51 54 50 52 53 63 75 91 92 93 90 87 88 87 90 91 90 91 92 92 92 90 89 90 90 89 88
71 76 58 62 63 65 69 72 71 69 66 65 69 70 74 72 56 51 50 50 50 51 57 70 89 92 91 88 86 88 88 89 91 91 92 91 91 90 90 88 88 88 87
73 76 79 72 66 66 67 69 72 73 70 70 69 70 73 76 76 68 60 57 50 48 49 56 62 85 90 89 86 85 87 88 90 90 91 90 90 89 88 88 88 88 86
67 73 76 76 78 75 69 69 71 75 75 72 71 70 71 74 74 76 79 69 57 49 47 49 55 63 76 84 87 84 82 86 87 89 89 88 88 88 88 87 87 87 85
69 71 74 79 80 83 82 72 73 73 76 76 78 79 76 74 74 73 74 80 69 56 49 48 54 62 71 76 83 85 82 88 87 84 85 84 83 83 84 84 85 86 84
81 80 78 78 76 79 77 73 75 80 80 81 87 84 78 76 74 73 71 70 70 62 54 49 51 57 68 76 76 79 83 80 87 86 81 80 77 78 78 80 81 82 82
90 91 88 87 87 85 81 82 85 87 87 85 88 88 89 76 69 63 64 66 67 64 56 50 50 53 62 73 76 73 74 82 78 88 83 78 76 76 75 75 78 80 80
95 97 96 96 98 100 97 91 90 91 97 93 90 90 95 92 76 66 63 64 66 61 58 57 54 51 53 58 74 77 75 74 79 77 87 78 73 73 72 73 75 77 82
44 48 55 66 80 96 100 96 92 93 100 99 98 95 95 93 94 96 72 67 67 66 67 65 58 55 55 53 54 65 80 81 84 84 87 97 84 73 70 71 72 81 84
50 53 54 56 58 66 81 98 100 98 95 100 100 99 96 95 99 99 97 84 76 72 73 72 73 68 63 60 57 59 66 82 82 98 93 96 99 88 80 69 78 86 87
61 62 63 65 70 73 74 77 99 100 99 100 100 99 96 93 96 98 99 95 90 77 81 81 76 75 76 78 77 72 71 80 89 97 99 94 99 99 85 95 88 83 81
72 69 68 66 66 69 76 89 97 100 100 99 100 98 99 96 93 97 98 96 98 90 86 81 76 74 75 78 80 81 78 80 88 96 99 98 98 86 89 94 91 94 98
78 75 71 67 65 70 74 91 97 100 100 99 98 100 100 99 97 98 99 93 93 97 86 83 81 80 86 86 84 87 87 83 92 99 99 99 99 90 90 89 98 99 99
73 73 72 72 70 71 78 95 98 93 98 97 95 93 96 99 96 95 98 99 98 99 96 88 88 85 87 88 91 93 90 91 91 99 99 99 93 97 98 99 98 100 100
75 75 75 76 76 77 78 85 90 91 89 89 89 91 93 97 96 94 89 97 100 100 97 98 95 97 95 98 100 96 95 98 92 97 97 89 100 100 98 97 99 99 98
82 81 82 82 82 83 86 88 90 93 94 99 98 97 97 98 99 96 95 96 97 98 99 99 100 97 96 98 100 100 100 99 100 100 98 91 96 91 87 98 98 94 98
88 87 86 86 86 86 88 89 90 92 94 97 99 97 97 96 94 93 93 95 96 96 99 100 99 98 98 99 99 100 99 95 98 99 98 92 99 97 98 99 96 96 99
94 93 91 89 90 92 92 94 94 92 89 90 91 89 90 91 92 92 92 93 93 94 97 100 100 99 99 100 100 99 99 99 96 95 96 98 99 99 99 98 98 99 97
99 99 98 99 98 96 97 97 97 98 98 99 99 99 97 94 94 93 92 92 93 91 92 96 99 99 99 99 99 100 99 99 98 95 95 98 95 98 96 90 88 84 83
99 99 98 99 99 100 98 98 99 100 100 100 100 99 99 100 100 99 95 92 86 83 85 90 94 96 99 96 99 92 95 84 74 71 68 68 70 68 64 61 60 58 56
99 97 97 100 100 99 99 90 89 89 90 88 84 83 82 72 80 86 90 86 88 83 75 83 86 83 80 76 75 78 78 72 67 65 64 59 58 53 46 40 37 37 41
97 96 95 90 86 88 68 52 52 50 45 43 42 44 57 74 76 54 50 52 52 65 80 61 69 77 76 75 74 74 75 75 73 71 74 66 56 47 53 50 53 71 88
86 68 64 66 69 78 71 44 42 38 39 46 54 63 59 82 86 81 65 56 67 76 88 81 78 77 78 82 84 83 83 85 77 73 72 86 72 65 60 59 58 58 60
69 65 69 68 65 76 77 40 38 40 43 49 52 70 82 78 83 84 78 68 58 68 79 82 79 77 82 78 83 81 84 84 83 74 78 81 87 81 67 62 59 68 95
64 62 58 60 67 75 82 82 57 52 48 50 53 53 59 86 86 81 75 74 61 65 74 73 65 56 58 63 59 70 79 72 79 79 85 89 91 88 82 74 74 72 88

GFSMA_925_rhum_069.txt.gz
RH
68 60 46 45 44 60 63 60 56 56 59 66 71 70 62 58 56 55 53 52 54 61 74 93 94 97 95 90 90 87 89 90 91 91 92 92 92 92 91 91 91 91 92
68 73 61 50 56 56 63 68 68 66 66 65 63 65 68 70 68 57 52 51 50 52 59 73 92 91 94 92 90 90 89 91 91 91 92 93 94 93 91 90 90 89 89
73 72 77 58 59 65 68 70 72 74 74 72 68 67 68 71 73 76 66 56 54 53 52 59 85 91 92 91 89 88 90 91 91 90 91 92 91 90 89 90 89 89 88
72 76 77 77 75 69 69 71 72 72 74 76 75 71 71 72 73 73 75 76 73 64 56 51 53 73 90 91 89 86 89 90 89 87 87 91 91 91 89 88 89 89 87
71 73 74 75 79 82 83 81 76 74 74 74 73 75 75 74 73 73 72 73 74 79 75 59 51 56 72 86 88 86 81 92 90 89 86 88 89 89 87 87 88 88 88
72 74 75 74 76 81 83 81 83 80 75 81 84 82 79 76 75 74 73 72 72 72 78 77 57 51 57 71 87 87 85 84 92 90 90 87 87 86 86 85 85 86 85
75 82 84 83 81 83 78 80 85 84 86 81 92 88 80 71 69 69 70 68 64 67 72 73 64 56 53 58 76 84 87 83 86 94 89 88 84 83 83 82 83 84 84
95 96 95 95 94 93 91 88 88 96 92 87 94 94 84 71 67 67 68 65 62 64 65 64 62 59 54 52 57 67 79 87 82 83 95 90 86 80 78 78 79 81 81
100 100 100 100 100 100 99 100 100 100 100 94 93 94 94 82 76 68 64 64 66 65 62 62 62 63 59 57 54 60 76 82 86 81 80 95 92 82 78 75 75 77 80
45 49 53 60 64 76 93 98 100 99 100 99 96 97 98 96 94 92 75 70 70 73 72 72 72 67 69 61 58 58 61 79 87 91 83 89 96 96 80 75 74 76 77
52 52 53 54 54 58 64 90 100 99 100 100 97 98 100 100 100 100 97 86 78 70 72 77 80 78 76 73 71 70 69 70 80 94 96 92 97 98 98 94 86 79 88
70 67 65 65 66 68 72 84 97 98 99 100 99 100 98 93 94 97 98 95 90 76 73 74 83 83 81 82 78 77 75 75 77 95 93 97 99 100 95 94 96 96 90
71 70 69 68 67 69 72 87 100 98 100 98 100 99 99 98 100 100 100 98 95 87 76 78 79 80 82 82 80 77 71 72 73 88 97 98 98 100 96 98 99 98 95
74 72 70 67 65 64 69 81 98 96 100 100 100 100 100 100 98 100 100 100 96 93 87 80 86 83 81 82 83 82 84 85 88 89 99 100 98 99 99 99 95 98 92
73 72 70 69 68 68 70 84 93 89 96 100 100 98 99 100 99 96 98 99 91 89 94 92 89 86 89 87 87 88 90 92 98 88 98 100 99 100 100 92 91 91 90
76 76 76 75 75 74 75 79 89 93 91 93 93 90 90 94 96 95 96 100 99 100 97 99 99 100 92 92 94 99 100 99 99 97 89 100 92 96 98 100 100 100 99
81 81 81 81 81 81 83 86 87 89 94 99 99 99 99 98 99 96 96 97 98 99 100 100 100 95 96 96 98 100 99 100 99 100 100 100 97 90 89 89 88 90 86
87 86 85 85 86 87 89 89 89 93 95 98 99 95 94 95 93 93 91 90 91 91 96 100 99 96 95 94 95 98 98 96 95 98 100 100 93 85 92 91 92 91 92
93 92 91 88 91 93 94 95 94 92 92 92 91 90 90 89 90 90 88 88 89 90 92 99 100 98 96 94 96 94 93 91 91 92 92 94 96 98 96 95 96 97 97
98 98 99 98 97 99 100 99 98 98 99 99 98 96 94 92 92 90 88 88 89 89 91 99 100 100 98 96 97 100 97 89 86 85 85 90 91 93 98 96 95 96 92
99 99 99 99 99 100 100 95 96 99 99 98 98 97 95 95 95 97 95 87 80 77 87 94 92 93 89 86 90 87 84 76 70 63 62 60 60 62 63 66 70 76 78
99 99 99 99 100 100 95 89 88 91 92 91 88 85 80 74 72 85 88 79 84 71 61 84 87 75 77 78 79 79 80 70 64 64 66 62 51 47 43 41 39 38 36
98 98 99 96 91 95 76 57 49 48 43 39 39 45 58 73 63 50 47 50 56 86 76 62 71 76 76 75 72 76 81 79 72 75 77 64 53 56 45 50 47 36 57
95 85 70 69 74 79 56 35 33 34 38 45 56 60 71 84 88 72 60 50 59 79 92 85 82 87 87 90 90 86 84 83 77 80 70 72 74 72 69 61 55 55 62
69 65 70 73 72 75 52 37 36 40 44 46 52 73 74 77 84 86 72 61 50 54 74 77 76 76 80 75 84 82 90 86 69 76 84 91 88 88 83 78 70 81 96
65 67 70 72 76 81 85 58 53 46 46 48 49 50 66 87 83 79 76 64 58 72 72 68 55 47 48 54 60 62 70 84 83 79 90 96 95 92 88 76 74 73 86

GFSMA_925_rhum_072.txt.gz
RH
70 69 63 60 60 62 69 70 69 64 63 63 65 67 63 60 58 56 56 55 50 53 61 83 92 96 99 95 92 92 88 89 90 90 90 90 91 90 90 90 91 88 90
77 74 72 60 61 65 70 72 72 72 71 70 69 68 67 67 67 66 64 59 56 51 52 55 81 90 88 91 92 92 91 91 91 91 91 92 93 88 92 90 90 90 88
84 78 76 73 63 69 71 72 74 76 76 76 75 71 70 70 70 71 72 69 66 66 61 56 53 85 90 87 88 91 92 89 92 91 90 91 92 91 90 92 90 90 89
84 83 80 79 78 74 76 75 74 74 74 73 72 70 71 72 73 73 73 74 73 71 70 72 65 54 80 89 89 88 90 94 88 88 89 85 89 90 88 90 89 90 88
85 84 79 78 78 81 80 80 78 77 74 72 72 73 72 73 74 74 74 74 75 76 74 73 76 69 55 63 88 86 87 91 96 88 86 86 86 87 88 87 88 89 88
85 85 84 82 80 80 81 80 82 78 79 77 75 75 74 74 76 76 70 70 68 74 76 79 80 79 72 57 62 88 85 87 92 96 94 90 88 87 86 85 86 86 86
83 85 85 86 90 90 83 83 83 83 82 81 85 78 75 76 73 67 67 66 67 71 72 75 77 75 72 73 63 62 86 86 88 92 96 94 91 89 86 83 83 84 83
99 99 99 98 96 96 95 94 93 92 90 89 88 89 77 52 53 66 66 66 63 64 66 68 70 70 73 72 72 76 75 89 89 89 95 97 95 92 89 84 80 81 82
100 99 98 100 100 100 99 98 99 100 100 96 94 89 77 58 62 60 63 61 62 65 65 70 72 73 75 76 80 72 63 74 86 96 91 91 99 97 94 87 81 78 81
54 58 64 70 80 93 98 99 100 98 100 99 100 96 95 92 84 80 73 67 69 70 72 71 74 76 78 79 83 86 71 64 64 79 96 93 93 99 98 93 85 84 85
52 51 52 54 62 67 87 90 95 100 98 100 100 98 99 98 100 99 95 81 80 70 66 69 75 78 81 84 89 89 75 76 76 81 91 90 88 94 98 98 92 90 82
73 65 64 64 65 67 78 83 96 99 98 100 100 100 100 94 91 92 96 90 83 82 72 78 76 81 85 85 81 76 76 74 75 97 100 99 94 96 99 97 96 95 94
80 78 67 67 66 65 66 86 96 98 97 96 97 99 100 99 100 96 99 96 92 91 83 78 79 80 81 84 87 77 76 77 77 83 99 100 100 100 99 98 99 98 92
76 72 70 68 65 64 67 89 97 100 91 98 100 100 100 100 100 100 98 94 94 88 87 75 94 96 97 91 84 84 87 85 84 84 96 99 98 92 91 85 93 100 99
73 72 70 69 68 68 70 81 96 100 98 99 100 100 100 100 100 98 100 100 86 81 66 87 93 91 95 94 82 82 92 100 98 99 79 99 96 98 98 98 92 100 99
71 73 74 74 74 74 75 82 96 99 100 99 94 98 99 100 100 99 99 99 100 95 84 98 99 98 90 95 91 94 95 98 99 98 100 100 95 87 87 79 77 100 98
81 83 82 82 82 83 85 91 95 96 97 98 99 99 99 100 100 100 99 100 100 100 98 100 100 92 91 98 98 98 97 98 99 100 99 100 99 98 97 97 97 98 100
91 90 88 89 89 89 90 91 93 94 95 97 96 95 96 97 98 98 99 96 92 90 99 96 99 98 92 97 99 100 99 97 97 97 97 100 100 97 94 88 89 92 90
93 93 92 92 94 97 97 96 93 92 92 92 92 91 94 94 97 98 98 99 99 97 99 94 97 100 100 100 99 100 100 100 98 87 87 89 92 96 96 94 93 91 89
96 96 97 96 100 99 100 100 99 99 99 98 98 98 96 97 99 98 98 96 93 90 89 87 93 98 98 100 99 91 82 78 75 73 73 75 84 87 93 95 94 94 94
99 99 100 100 100 100 100 99 100 100 99 99 99 98 97 93 93 96 89 85 80 76 81 83 80 79 73 68 69 68 65 63 63 67 61 60 60 61 63 66 75 88 90
99 99 100 100 100 100 100 97 98 95 94 91 88 86 81 72 62 70 57 63 76 70 68 68 65 52 56 59 60 64 67 58 56 68 60 50 54 48 49 51 51 38 40
100 100 100 100 98 98 86 79 75 70 61 49 44 56 70 72 64 62 49 49 59 88 61 62 54 57 57 67 75 86 72 69 62 57 64 49 50 44 52 57 63 49 43
98 98 91 86 81 75 32 27 28 29 33 39 51 70 70 74 86 75 68 64 64 77 85 80 77 80 82 84 83 90 85 72 63 65 71 61 57 60 65 66 70 56 57
96 78 68 68 69 76 37 31 33 44 53 59 65 74 71 70 85 84 73 72 48 54 65 66 67 66 72 73 84 76 78 71 61 57 75 78 75 77 75 73 74 70 86
70 65 65 65 75 70 50 43 40 52 48 52 55 58 59 81 86 80 71 58 47 59 72 72 56 53 56 64 56 76 77 86 76 75 85 89 89 85 83 77 85 81 75

GFSMA_925_rhum_075.txt.gz
RH
58 58 53 50 50 50 55 58 61 56 55 53 54 56 56 54 53 53 54 54 55 50 50 57 92 92 97 97 90 94 91 89 87 88 88 86 87 90 90 90 90 84 91
66 62 62 55 51 54 58 62 62 63 63 62 61 60 60 60 61 61 62 62 61 61 54 54 56 90 90 92 85 84 90 91 92 92 91 91 92 93 92 92 90 91 88
74 69 66 65 57 60 62 61 64 66 66 66 66 65 63 62 62 63 65 67 67 67 67 67 62 61 85 90 86 94 91 82 84 85 90 90 88 92 91 90 91 91 91
75 75 73 72 71 67 68 69 68 68 67 66 65 64 63 64 67 66 67 67 70 71 70 71 71 70 64 90 89 88 94 96 92 81 81 82 89 88 89 88 91 90 89
75 75 71 70 70 72 73 72 71 70 69 68 66 66 68 69 67 67 67 68 70 72 74 74 74 74 75 68 86 87 87 93 98 94 91 91 87 88 86 86 88 89 88
74 77 76 74 72 71 74 73 73 73 74 72 73 72 71 71 69 69 70 66 61 64 70 72 76 78 76 76 70 82 89 86 89 96 98 96 93 91 89 87 86 87 86
78 79 80 77 77 80 78 76 75 77 78 78 80 79 77 73 68 67 65 60 59 64 68 69 72 73 71 70 71 73 71 84 87 91 93 98 96 92 92 90 87 86 85
87 89 88 88 86 87 85 86 86 86 85 83 89 87 81 60 51 55 60 60 60 59 64 65 66 67 69 72 73 74 75 78 94 94 97 96 93 97 92 92 89 85 84
95 97 98 97 95 95 95 93 96 96 96 92 90 86 80 68 56 55 62 58 58 60 64 69 70 71 74 76 80 83 83 76 67 72 96 95 94 98 100 98 93 87 84
68 68 74 79 84 88 93 92 96 92 96 94 90 88 91 80 87 73 59 66 64 66 66 65 65 72 74 79 84 88 86 75 71 69 95 91 91 92 96 99 100 95 86
53 51 53 58 70 74 81 85 86 89 91 90 90 88 95 90 88 99 95 79 73 74 71 64 67 74 80 84 86 79 73 72 74 89 100 100 99 94 90 93 97 96 88
77 68 63 66 69 78 83 88 92 90 97 94 89 91 86 88 99 98 98 86 85 77 70 74 78 79 80 88 88 78 75 72 71 74 97 100 100 100 99 99 97 95 98
72 74 72 75 76 75 73 80 89 91 93 95 90 90 94 95 97 93 92 94 93 88 85 80 81 83 89 93 91 83 88 82 82 90 97 100 100 100 100 100 98 99 88
69 74 75 74 74 73 76 81 87 88 95 100 92 100 100 100 100 100 99 93 91 79 84 85 90 89 99 92 83 82 83 88 99 100 94 88 96 86 87 84 76 89 97
71 70 75 75 77 75 76 80 87 89 93 100 100 100 100 100 99 99 98 97 89 84 76 94 95 99 95 99 83 96 94 100 100 99 98 98 94 84 80 87 92 92 99
72 73 75 77 78 79 81 84 90 95 96 98 98 95 95 95 94 96 99 96 98 93 85 93 100 99 91 98 95 98 92 97 98 98 97 98 95 97 94 96 91 99 99
77 78 78 79 79 81 82 83 87 90 91 95 98 94 93 95 97 98 98 98 98 99 92 99 99 94 90 97 100 99 100 94 95 98 100 97 92 91 92 94 99 100 98
83 82 82 81 82 84 84 84 87 89 91 92 92 91 92 97 97 96 97 96 95 89 97 95 100 99 95 98 99 99 99 97 99 94 96 96 98 99 92 88 84 85 88
84 84 84 84 86 91 91 90 85 84 86 88 88 89 91 92 97 98 99 99 99 96 97 90 93 98 98 99 96 96 94 89 86 74 80 83 87 94 98 98 95 92 92
89 88 90 87 94 95 97 94 92 93 95 99 99 98 99 99 99 98 94 89 88 86 85 84 89 94 96 92 89 76 77 72 71 69 66 63 65 70 82 91 94 95 97
96 95 95 96 98 97 97 99 98 97 97 98 96 94 92 88 85 85 85 77 72 71 79 77 77 73 67 59 60 60 60 60 58 58 57 54 52 57 58 58 61 67 85
99 99 99 98 99 100 99 97 97 94 95 94 91 86 76 67 54 42 36 41 50 69 65 65 60 47 50 53 56 69 67 67 65 61 56 46 48 51 46 50 50 42 34
100 99 99 99 99 99 98 91 88 86 83 69 54 64 69 65 65 57 54 61 60 46 45 64 55 58 57 70 71 85 79 78 67 60 56 54 48 50 52 57 65 54 39
100 99 97 92 86 82 58 40 34 29 28 33 48 66 65 69 79 72 66 60 57 70 80 74 75 77 79 81 80 82 80 74 67 60 63 64 63 70 69 67 68 64 57
99 93 88 86 76 66 34 28 36 45 46 51 55 67 66 64 81 69 70 62 45 52 59 48 49 50 51 53 60 70 82 76 73 55 73 82 81 81 80 78 76 73 70
96 89 72 65 76 70 38 34 35 48 48 49 51 54 44 77 79 83 74 59 47 56 66 70 55 50 56 64 50 70 72 90 85 82 87 89 93 93 91 78 80 83 79

GFSMA_925_rhum_081.txt.gz
RH
57 59 61 63 58 56 60 65 68 62 59 57 55 55 56 58 58 57 55 54 57 60 61 62 55 87 96 96 94 88 83 80 73 70 62 57 60 76 88 93 92 89 91
61 58 54 53 52 52 51 58 62 64 64 64 63 64 63 63 63 63 62 63 64 66 68 68 67 66 89 94 96 99 98 90 81 77 76 75 79 78 83 90 89 90 87
65 62 62 63 54 51 56 60 64 64 65 66 66 66 67 67 66 65 65 66 68 68 69 71 73 72 73 80 83 94 96 100 91 83 82 81 84 92 84 92 92 91 92
70 71 66 68 66 60 61 65 66 67 69 70 70 69 68 67 65 67 69 70 69 68 66 72 75 75 76 77 83 92 94 94 95 97 89 88 86 87 91 93 90 93 93
73 75 76 74 74 74 71 72 72 73 74 72 68 67 68 68 69 70 70 71 71 68 70 64 78 83 78 79 79 84 94 94 94 93 98 98 95 92 94 94 91 92 86
70 74 76 75 74 73 74 75 76 76 76 74 74 71 74 73 73 68 69 73 73 66 62 66 72 70 76 74 74 78 86 92 96 98 98 94 98 93 89 93 92 88 88
76 77 80 79 76 76 78 77 79 80 71 75 85 78 74 68 67 62 59 68 75 65 66 66 64 67 70 70 73 76 77 76 75 78 88 96 88 94 99 96 95 91 89
78 79 81 76 77 78 73 73 74 79 74 71 78 77 90 73 63 63 59 62 70 63 60 61 63 67 68 69 72 77 80 81 78 95 96 95 96 98 90 93 97 94 93
77 78 83 86 83 82 77 77 77 83 87 75 72 84 92 90 86 62 63 64 63 62 63 65 68 66 68 69 71 71 73 79 76 97 99 97 97 95 91 91 89 98 98
87 87 89 93 93 90 90 88 89 87 90 92 91 90 90 94 96 88 69 70 68 69 72 73 74 74 75 74 71 71 73 74 85 98 98 96 99 93 96 96 97 96 94
54 46 46 47 51 57 64 67 72 80 85 89 90 89 84 73 76 95 93 83 77 81 77 73 76 78 78 75 68 72 73 74 85 97 100 100 96 96 95 97 97 100 99
57 58 55 55 59 62 65 66 70 74 79 82 88 82 86 87 87 96 99 92 87 90 82 83 81 80 80 82 80 78 76 70 70 98 100 99 100 100 99 98 96 96 95
70 67 64 61 61 62 63 62 63 66 77 94 91 87 86 92 93 86 92 94 91 93 91 91 89 90 88 86 84 81 74 76 99 97 100 99 99 98 100 99 100 97 95
68 68 66 60 61 61 61 62 63 69 83 93 83 85 89 96 92 89 96 92 99 99 97 95 97 95 95 86 86 80 78 94 98 96 96 95 100 100 96 92 100 100 92
63 62 59 60 61 60 60 61 62 72 91 90 84 86 94 94 98 98 100 94 97 98 99 100 100 99 94 93 90 86 85 95 98 96 92 90 94 98 98 94 98 88 92
61 60 59 63 64 65 68 68 72 80 85 89 89 87 92 96 96 94 93 95 95 96 95 100 100 99 95 96 96 97 90 93 96 95 94 94 94 94 99 99 99 95 99
60 64 66 66 70 71 72 74 80 82 84 89 86 92 96 96 94 92 93 95 96 93 96 100 99 97 94 93 95 99 99 91 91 87 97 95 90 91 87 90 96 99 98
67 71 72 74 75 76 78 80 83 85 88 92 92 90 92 94 91 93 89 97 95 97 93 99 100 97 99 98 98 92 89 86 73 77 79 79 89 98 93 89 96 84 92
74 77 78 78 79 81 84 86 86 86 88 89 89 88 92 95 95 95 95 96 94 95 93 89 96 94 94 92 84 79 89 79 72 66 64 62 65 74 81 88 90 91 86
80 81 83 83 84 86 89 91 90 90 90 91 92 93 95 96 96 90 87 86 89 91 90 89 88 88 90 90 81 64 61 60 59 60 50 60 53 55 68 58 67 86 92
82 87 88 90 91 94 93 95 93 92 94 97 97 96 91 89 89 88 81 74 74 79 82 87 85 86 71 60 57 60 54 53 63 58 49 37 45 46 48 48 45 42 48
89 92 93 92 93 94 92 97 97 94 96 95 91 87 74 48 39 37 57 46 38 48 55 68 59 57 60 60 62 58 69 66 71 62 50 51 50 47 52 57 58 54 48
92 94 94 95 98 97 95 100 97 94 94 90 84 60 50 53 50 57 72 65 75 71 57 51 53 57 65 70 67 75 68 66 66 65 61 50 61 60 64 66 72 73 74
94 96 98 96 97 93 100 98 92 91 90 64 53 62 65 66 60 53 47 42 50 48 50 55 61 68 71 76 76 73 75 77 73 71 66 62 66 65 60 71 78 78 88
96 97 98 95 92 86 86 55 44 36 36 47 56 62 64 67 70 54 52 46 46 52 51 48 44 41 39 42 46 51 72 78 77 75 79 79 78 69 75 81 80 86 79
97 98 95 90 85 66 65 60 39 41 43 46 54 58 61 66 75 72 63 53 48 58 60 56 50 47 44 53 49 54 68 72 88 90 92 86 84 77 73 85 83 72 71

GFSMA_925_rhum_084.txt.gz
RH
76 68 64 69 64 63 63 64 69 67 62 60 59 58 57 58 60 60 60 58 57 60 64 66 66 70 92 94 99 98 89 83 81 75 67 61 60 74 89 93 90 94 92
64 63 59 58 59 57 55 55 61 66 66 66 66 65 65 65 65 65 65 64 64 63 66 69 70 73 72 77 94 96 98 97 90 84 78 76 72 72 83 93 90 93 90
61 62 58 56 56 53 54 56 63 66 67 68 67 67 68 68 68 68 67 67 68 69 68 72 75 76 76 75 89 90 94 92 98 92 88 85 82 83 84 92 93 91 91
67 65 63 63 65 58 56 61 64 65 67 70 71 70 67 65 64 67 63 71 73 67 64 70 74 80 80 79 81 92 95 95 93 98 96 96 92 88 95 96 94 94 93
69 70 70 66 70 73 68 65 70 73 74 72 66 69 67 64 66 71 74 72 70 71 67 72 73 81 80 72 77 82 98 96 91 97 95 98 99 93 94 96 95 92 90
71 70 71 72 75 76 76 77 77 77 78 80 72 68 65 64 71 68 68 60 66 77 74 61 67 72 69 70 72 73 75 78 80 80 88 96 92 96 99 95 90 94 89
70 72 75 76 75 68 69 69 78 75 73 76 73 63 65 66 64 64 62 63 65 79 71 67 65 64 62 66 67 70 72 74 77 96 98 95 96 91 89 100 99 97 91
74 76 77 82 81 76 70 76 75 70 69 69 68 74 91 74 65 64 67 67 68 74 69 66 63 62 62 61 63 63 64 67 75 99 99 98 98 96 94 89 92 99 96
82 82 83 84 80 80 79 76 77 76 82 81 79 82 92 95 90 66 65 68 68 69 69 70 68 69 72 70 70 65 64 67 80 98 96 93 95 91 88 96 95 94 96
88 86 87 86 83 84 87 89 89 89 93 91 87 85 92 98 89 87 73 75 72 71 74 73 77 79 76 77 73 68 66 68 82 100 100 100 95 91 92 96 95 98 94
86 80 80 76 69 63 57 56 62 70 80 83 85 85 83 81 81 88 87 82 89 82 79 81 82 81 80 78 77 75 73 72 70 96 99 96 98 92 100 100 98 95 95
70 50 42 42 43 47 53 58 61 66 72 78 83 92 91 87 90 95 99 93 91 92 84 84 85 85 86 85 80 78 75 67 70 98 98 99 98 98 100 98 98 95 99
52 51 52 52 53 55 57 58 60 62 66 74 87 89 87 94 98 93 96 94 93 97 93 95 94 93 92 90 88 80 73 70 74 95 100 100 93 100 99 97 100 100 100
57 61 60 58 58 59 60 60 60 62 67 75 94 92 85 84 87 94 100 95 97 93 99 100 100 98 95 91 87 82 76 98 93 95 99 94 100 100 92 94 100 96 100
63 63 63 60 59 58 59 59 59 62 72 88 96 89 83 83 90 92 98 99 95 96 99 100 100 100 96 93 93 85 83 100 98 96 92 90 93 95 96 89 97 93 96
61 62 60 60 61 59 62 63 66 71 78 84 94 92 88 84 89 95 93 94 99 98 97 99 100 100 100 99 95 93 91 94 94 95 94 94 93 92 97 99 98 97 99
52 54 60 64 62 62 65 68 71 76 80 85 93 88 86 89 96 96 93 93 92 94 97 100 100 100 98 96 96 99 97 90 83 90 97 93 92 96 90 99 96 97 98
69 62 63 65 68 71 72 74 77 81 82 90 93 88 90 91 98 94 91 95 89 89 96 99 100 100 99 99 98 93 92 78 72 77 75 84 91 100 98 90 88 84 88
68 70 68 69 72 75 77 82 84 84 86 88 91 87 87 90 94 94 94 93 95 94 95 92 98 94 94 94 90 89 87 78 70 60 59 61 72 79 82 83 84 88 86
71 72 74 76 79 80 82 88 89 88 89 89 90 91 92 95 94 92 92 92 98 96 94 89 89 91 92 90 82 78 70 63 60 58 51 54 49 51 76 53 53 67 86
77 79 81 84 86 89 91 93 92 90 91 94 94 95 94 92 90 89 82 79 83 88 92 91 88 88 86 69 61 58 53 48 56 56 44 38 45 45 46 44 43 35 33
79 83 86 89 90 92 88 90 96 96 96 97 98 90 79 66 73 82 80 57 56 67 79 83 77 80 67 60 60 56 62 57 63 63 50 52 52 51 56 60 75 73 48
84 87 90 90 90 92 93 95 100 97 94 93 88 78 54 40 43 60 78 74 79 51 41 52 54 51 57 58 59 63 62 58 59 65 59 48 61 61 61 65 86 86 88
88 91 94 95 95 94 94 100 99 97 95 91 82 54 52 54 51 49 44 46 49 44 47 48 51 54 60 63 66 66 68 72 74 72 66 59 61 63 60 73 88 95 94
92 93 97 98 97 91 93 100 95 94 90 68 55 59 64 68 79 54 45 41 46 53 50 40 41 42 46 52 49 53 66 72 77 73 77 78 77 65 76 80 80 75 72
94 98 98 98 93 90 85 82 41 37 39 46 54 58 59 60 84 70 55 49 44 52 58 58 55 52 44 63 50 46 60 65 84 87 90 82 83 76 70 86 83 76 72

GFSMA_925_rhum_087.txt.gz
RH
82 81 78 71 67 69 67 71 72 70 66 63 62 60 59 59 61 62 63 63 62 59 60 65 70 73 79 91 96 93 98 95 88 83 76 69 60 60 74 90 90 88 92
77 72 70 68 69 62 59 58 62 66 68 68 68 68 68 68 68 68 68 67 66 65 64 65 69 74 78 79 79 94 89 93 94 93 86 79 76 71 73 83 79 88 87
70 67 66 62 58 59 57 55 60 67 69 70 69 69 70 70 69 66 66 63 64 70 67 74 74 75 79 79 79 90 96 93 88 94 96 90 83 81 84 90 90 88 90
67 64 65 62 62 60 55 58 61 66 68 69 72 71 69 63 64 61 62 66 73 74 71 64 66 76 77 80 71 86 97 93 83 88 94 100 93 87 84 90 94 93 91
68 67 67 66 66 68 63 62 66 71 75 76 76 65 66 63 64 64 67 72 74 70 75 73 70 72 78 69 67 76 87 82 78 79 88 94 94 99 98 92 88 96 94
71 70 68 70 68 74 77 77 75 76 75 77 73 71 67 63 62 62 66 67 70 68 72 77 66 74 69 60 63 68 69 72 78 88 88 83 87 91 95 99 100 99 96
70 69 70 73 75 75 66 68 64 75 73 68 78 64 61 61 63 63 68 65 62 66 75 80 73 69 64 62 65 61 59 61 64 96 99 99 99 96 93 96 97 98 97
75 72 72 77 80 79 75 69 69 72 71 66 70 76 92 78 68 71 69 67 67 77 81 78 72 69 69 68 66 65 64 60 63 94 93 94 89 88 94 97 94 92 99
72 78 75 78 84 84 72 75 78 82 88 83 80 83 92 96 90 68 69 69 68 79 76 73 74 74 73 70 74 67 68 65 65 76 93 92 93 90 87 97 98 97 93
66 65 69 82 86 86 84 83 86 90 91 94 94 86 90 100 95 86 75 78 76 75 76 76 79 80 78 75 75 70 71 70 71 87 95 91 89 90 88 87 94 92 95
98 97 92 92 92 90 88 82 65 60 69 79 85 88 83 82 88 94 80 82 89 86 87 85 85 84 83 79 76 76 76 72 92 92 94 96 98 89 95 98 98 96 93
84 84 80 66 50 44 45 49 54 60 66 74 78 86 96 88 88 95 99 94 93 94 92 90 89 86 85 82 80 75 77 71 70 69 97 100 99 86 100 96 91 91 96
81 70 54 49 48 50 50 54 56 58 61 66 73 84 90 91 97 99 98 93 95 98 95 95 96 94 91 87 83 80 81 76 89 99 97 99 94 95 97 98 100 99 99
74 61 57 52 54 54 56 58 58 59 61 64 72 88 100 92 87 89 99 96 96 100 100 99 99 98 95 91 86 82 84 99 98 100 100 88 95 94 95 97 100 98 93
61 58 57 56 52 52 54 55 56 59 62 66 80 99 97 90 86 84 88 98 100 85 98 100 100 99 98 93 91 88 86 99 98 97 90 88 90 90 97 94 99 97 86
63 62 58 54 55 56 55 59 61 62 66 71 82 94 96 91 88 85 87 96 100 100 98 99 99 100 100 99 98 91 84 91 92 95 93 91 94 91 92 99 98 100 98
53 54 57 58 54 56 63 63 63 64 72 76 81 94 92 88 87 89 94 96 96 98 99 100 100 100 100 99 98 92 92 88 84 91 94 92 93 91 94 95 96 93 94
58 58 65 59 61 62 65 68 71 74 78 80 86 96 88 87 86 96 95 90 89 92 94 99 100 100 100 100 100 96 94 75 75 83 84 89 90 96 96 96 88 86 86
61 62 64 66 66 70 75 76 79 80 83 87 91 95 90 87 88 90 93 88 88 90 96 100 100 99 98 96 94 94 92 78 70 61 58 63 70 85 92 79 76 84 86
63 64 69 71 74 77 78 80 84 87 89 89 90 92 91 90 95 95 96 98 99 98 96 95 95 96 94 91 84 84 78 70 64 57 52 52 48 54 59 46 41 47 74
68 72 74 77 80 83 86 89 92 92 90 89 93 93 90 92 90 91 85 82 84 97 96 94 90 92 90 88 76 64 62 54 53 52 46 41 43 44 42 44 57 50 34
75 76 78 81 85 86 88 85 91 94 93 96 96 95 90 87 87 87 81 69 70 80 86 92 88 88 81 69 61 56 53 55 61 63 50 49 50 52 55 60 88 96 68
77 80 83 87 88 89 88 88 93 100 98 96 96 91 78 56 53 65 78 78 56 49 49 73 80 73 69 57 55 58 58 56 56 60 58 49 59 60 58 67 93 96 98
82 83 86 88 90 90 90 93 99 100 99 96 90 82 56 47 46 49 45 52 44 40 45 46 48 48 52 55 60 59 59 63 68 68 66 58 60 63 58 72 99 99 98
84 85 88 91 93 92 92 98 99 99 98 95 88 65 56 61 67 52 45 40 45 50 45 36 42 46 49 51 53 55 60 75 75 72 74 76 73 62 69 77 77 71 86
85 89 92 92 95 96 92 99 92 93 91 83 58 53 64 68 81 84 52 44 45 54 53 52 55 50 44 69 55 42 51 67 75 83 83 77 78 69 70 85 81 75 72

GFSMA_925_rhum_090.txt.gz
RH
72 79 81 74 69 67 69 71 76 74 71 67 65 63 62 63 64 65 66 65 65 64 62 62 70 76 78 82 83 85 88 96 94 91 87 77 71 62 63 76 87 79 78
82 81 76 71 69 67 67 67 67 70 71 70 69 70 70 69 70 70 69 69 69 68 68 66 66 71 76 74 81 79 83 88 88 95 96 88 80 76 71 74 72 77 71
79 78 74 70 64 66 64 61 58 64 69 70 70 70 72 71 69 67 61 62 56 61 72 76 72 73 73 70 75 79 89 84 77 77 92 99 92 84 79 76 82 84 79
70 72 73 68 62 61 60 56 58 64 68 70 72 73 71 69 60 59 61 61 60 74 77 74 72 69 74 76 72 76 85 77 72 70 85 98 99 98 92 84 81 90 86
72 69 69 66 64 66 65 58 62 68 74 77 78 76 64 62 60 62 59 62 67 70 73 72 74 70 74 75 65 66 74 68 62 65 73 86 92 92 98 99 95 95 96
70 70 69 68 69 69 70 75 73 72 71 65 69 69 67 63 62 61 64 66 65 64 71 72 78 73 78 69 65 67 61 59 59 68 88 97 97 95 98 96 96 98 98
69 72 72 73 73 71 76 78 71 71 66 70 74 68 67 65 64 66 71 70 65 62 68 80 83 79 74 66 69 65 64 71 61 65 88 90 94 95 95 96 98 92 99
76 79 76 74 77 77 79 70 69 71 75 75 76 81 87 75 72 72 71 68 67 72 82 90 87 79 72 72 68 65 61 65 95 94 93 88 85 89 90 96 96 96 95
80 75 79 82 75 72 82 78 72 74 84 88 88 84 84 95 91 77 76 72 72 77 84 85 81 79 74 73 73 68 65 64 72 93 94 88 84 84 85 96 91 98 99
77 80 78 74 78 73 80 92 86 86 91 96 93 92 93 97 91 90 80 82 79 78 78 80 82 82 80 77 77 73 70 68 86 90 90 90 96 97 89 79 84 89 87
96 72 77 76 82 83 90 95 88 71 64 69 79 87 86 84 88 91 91 85 88 86 86 85 85 84 84 82 79 76 73 70 80 93 94 95 99 99 96 87 90 92 84
96 93 75 75 85 82 60 51 51 56 62 67 74 82 90 89 88 92 97 94 96 97 93 92 90 89 88 88 83 82 74 72 87 94 90 99 100 83 100 99 98 100 98
92 86 81 73 62 51 49 49 49 52 54 57 62 70 84 92 96 94 94 96 92 91 93 94 96 94 93 93 89 84 78 76 90 100 99 99 94 91 98 100 96 98 97
88 84 64 54 52 51 48 48 51 53 55 55 62 71 81 98 99 95 96 92 92 98 100 99 100 100 96 94 89 82 84 89 93 97 98 100 88 88 89 93 96 98 91
85 80 62 57 53 49 47 47 50 54 56 60 69 82 100 99 95 91 94 100 97 92 96 100 99 99 98 97 92 89 86 99 94 96 94 92 88 90 94 96 100 99 92
78 66 58 51 48 55 56 53 57 60 61 70 76 85 96 98 94 91 91 92 94 100 96 99 100 100 99 96 96 92 87 92 90 98 94 91 97 93 95 99 98 99 100
68 64 59 62 66 66 61 59 58 64 71 75 78 85 94 93 89 89 93 95 96 100 100 100 99 100 100 100 98 95 94 86 87 90 93 92 93 94 94 99 100 92 100
64 61 60 62 67 60 62 64 69 72 73 76 81 90 96 88 88 85 88 95 96 95 98 100 100 100 100 100 99 98 92 78 77 86 80 92 90 95 98 93 87 86 86
61 62 66 65 59 62 67 70 72 75 79 84 88 92 94 86 86 87 88 90 89 90 94 100 100 100 100 100 100 99 93 79 71 64 59 59 74 94 86 73 63 75 86
61 62 63 64 67 69 70 76 79 83 88 90 91 90 89 87 87 88 89 91 94 95 97 100 100 100 98 96 91 90 87 79 71 64 53 50 49 57 53 41 36 38 62
65 65 67 70 70 73 78 82 85 89 90 88 87 92 88 88 92 93 92 87 86 93 98 100 96 96 94 91 86 77 82 73 57 50 46 43 43 46 45 52 67 52 44
69 70 70 72 75 80 82 85 87 88 92 93 94 93 91 92 89 88 84 76 74 85 93 98 92 89 88 84 76 64 55 54 54 60 51 46 50 53 54 64 96 97 96
72 73 76 78 80 82 84 85 86 85 94 97 96 94 88 71 60 63 65 71 61 54 60 83 90 86 84 75 62 56 54 53 52 56 53 49 60 60 57 76 97 97 97
76 77 78 81 83 84 87 89 97 93 100 99 97 92 82 62 43 48 51 51 43 39 40 43 50 60 52 51 52 49 49 52 63 66 62 58 59 61 60 81 99 99 97
79 80 82 85 87 88 91 92 99 94 97 98 95 88 75 52 55 69 48 42 45 49 42 49 52 55 54 56 56 54 58 67 71 69 70 68 71 62 66 78 79 80 100
83 86 87 89 91 91 94 91 99 96 94 95 92 81 60 60 67 90 50 43 43 51 57 47 51 46 46 82 45 38 42 55 62 77 74 73 75 65 71 84 81 77 75

GFSMA_925_rhum_093.txt.gz
RH
66 68 70 68 67 66 65 62 69 71 70 68 65 64 63 65 66 67 68 68 68 67 66 68 73 73 83 78 80 86 81 82 91 90 87 89 78 70 64 65 66 68 72
74 75 82 78 70 67 69 72 74 72 71 70 70 70 70 70 70 70 69 66 64 68 67 70 70 68 80 73 75 75 74 74 77 83 91 96 91 81 75 71 67 64 60
82 84 83 75 71 72 68 66 65 64 68 71 70 70 71 72 68 63 63 58 59 60 68 70 76 72 72 73 72 74 71 70 68 68 74 99 99 93 84 81 80 76 74
80 81 80 74 70 70 69 66 60 60 67 69 69 73 74 72 65 60 62 60 60 59 69 73 74 72 70 73 74 69 64 64 60 60 65 81 97 99 98 96 87 87 88
80 79 74 71 71 65 63 61 58 63 69 76 78 75 72 71 71 66 66 63 63 65 70 69 72 74 72 74 69 63 62 57 57 61 66 79 94 93 93 97 99 99 98
82 80 74 71 71 66 67 66 62 68 73 74 74 77 70 66 64 64 65 62 64 64 64 68 74 80 80 79 69 70 65 64 64 76 79 89 94 97 98 99 97 95 96
75 77 78 72 72 70 69 71 78 77 74 75 79 76 67 66 65 69 67 70 68 65 62 71 83 85 86 81 77 76 73 65 75 90 92 91 88 89 91 90 92 94 96
85 77 74 75 73 75 76 81 78 74 75 75 83 86 75 66 75 73 72 70 68 67 77 88 92 90 89 79 74 68 65 63 66 78 92 91 91 84 86 94 97 96 93
85 88 80 91 92 91 94 98 98 91 79 81 84 85 73 75 82 81 81 75 72 73 83 92 93 90 82 77 73 71 68 66 72 88 87 86 84 81 89 91 87 84 97
84 83 89 99 100 91 80 84 85 95 96 98 93 90 94 97 77 75 84 86 82 80 80 83 85 84 82 79 77 74 74 70 77 90 91 98 96 94 96 77 70 78 85
100 90 100 100 94 87 83 82 82 86 73 67 67 73 79 81 90 85 72 81 89 86 85 85 86 87 86 83 81 78 77 71 69 75 88 97 100 98 86 97 94 94 86
98 95 98 100 94 87 79 73 88 66 49 52 60 72 85 83 82 86 92 86 88 90 89 90 91 90 90 88 87 88 82 76 83 97 95 99 98 100 76 99 100 99 98
100 92 94 96 91 80 80 73 53 52 50 51 58 66 75 85 92 96 91 80 81 90 91 90 94 94 94 94 90 89 87 80 76 82 98 99 94 99 98 100 100 77 99
94 88 90 87 83 67 53 44 49 50 50 49 54 63 72 83 98 96 95 87 83 77 96 94 95 100 97 96 95 93 89 87 83 97 98 95 92 88 91 99 92 93 97
97 94 86 67 58 55 48 46 49 48 50 51 58 62 71 86 100 98 98 99 91 78 73 98 99 100 100 99 96 91 89 90 94 97 96 91 89 97 97 92 94 98 98
100 87 71 61 58 53 55 56 56 55 56 59 66 66 78 91 96 96 94 95 99 97 87 98 99 99 100 100 98 94 89 91 93 100 95 92 92 95 97 95 98 99 100
92 80 68 64 60 64 65 61 60 68 62 65 66 70 80 90 92 91 90 92 98 100 99 100 100 100 100 100 99 98 95 88 91 93 96 96 91 94 94 99 100 99 95
78 70 64 62 65 62 62 63 68 65 61 67 72 79 90 94 87 88 86 85 95 99 100 100 100 100 100 99 99 98 94 82 84 90 93 92 95 98 94 92 79 82 84
70 65 62 61 62 64 66 71 67 66 70 75 82 86 92 94 88 84 85 86 86 90 94 100 100 100 100 100 100 100 98 81 73 69 64 60 86 92 82 63 51 60 82
65 65 66 65 66 68 71 68 71 74 78 84 87 88 88 86 84 86 86 89 91 96 97 100 100 100 100 100 100 97 94 87 77 70 60 51 50 52 48 41 38 35 59
67 66 67 69 71 72 72 76 78 79 83 88 87 85 86 84 87 91 93 90 88 89 98 100 100 100 99 95 89 86 86 79 70 56 47 45 44 46 46 53 83 76 65
70 72 73 73 75 76 79 78 79 81 84 89 88 90 89 91 91 89 84 82 78 81 92 99 98 95 92 89 87 78 72 66 53 51 52 48 47 52 56 68 96 97 96
72 72 72 73 74 76 78 80 82 84 86 91 93 93 91 79 77 71 65 66 55 62 68 82 93 90 87 85 76 67 56 51 56 50 49 57 56 57 62 90 95 96 97
76 76 76 77 78 80 83 83 82 86 92 97 97 95 91 78 63 48 52 47 42 38 39 43 56 74 79 73 67 52 49 47 51 56 55 68 55 59 61 90 98 98 97
80 77 78 79 81 83 85 88 100 95 94 97 97 93 86 74 51 53 50 44 43 46 50 54 51 50 48 51 51 48 51 70 70 69 61 66 64 60 62 77 78 99 98
81 83 84 85 86 87 89 91 100 97 95 96 95 92 88 73 53 87 58 42 44 52 54 58 61 59 62 63 49 44 44 51 69 77 63 68 71 63 83 77 76 75 80

GFSMA_925_rhum_096.txt.gz
RH
65 67 66 68 67 71 68 66 69 69 69 69 67 65 63 61 60 61 64 67 68 68 68 67 70 69 83 78 80 78 75 78 86 94 94 89 88 78 72 70 69 65 63
70 74 75 79 76 76 72 70 71 73 69 68 66 65 64 63 64 65 65 65 64 62 64 66 68 68 69 74 76 71 70 71 72 74 74 91 93 92 82 78 77 69 61
85 86 88 87 80 78 73 74 72 70 68 71 68 68 66 64 65 61 61 62 67 62 62 63 71 73 71 74 80 71 67 65 64 61 62 73 92 91 93 87 86 85 80
90 95 93 83 78 77 75 70 65 62 63 67 64 64 67 66 63 60 61 57 61 64 66 68 71 72 69 72 74 76 58 62 56 56 59 66 85 96 96 98 98 95 94
96 94 90 84 84 78 74 73 64 59 62 66 69 68 66 62 60 62 61 63 66 71 68 70 74 72 72 72 77 74 68 60 58 60 61 72 84 96 98 95 95 98 99
98 98 90 82 80 76 68 68 60 63 67 69 69 66 63 62 58 58 63 62 64 75 76 77 78 78 81 80 82 83 77 68 61 59 73 84 87 89 92 96 97 97 95
86 93 91 84 81 75 68 66 67 71 73 73 68 58 59 58 61 67 67 64 70 78 80 82 82 84 97 91 91 89 82 73 81 70 74 91 91 85 88 90 90 93 92
85 86 93 89 82 78 76 75 78 76 67 76 65 70 56 48 57 70 70 70 72 75 79 89 92 95 98 98 88 79 74 71 67 73 88 89 87 87 84 91 96 94 98
84 88 92 88 94 94 92 98 98 92 81 85 82 69 56 48 58 52 71 73 72 72 80 89 92 94 94 92 81 74 69 68 75 87 90 92 93 91 92 92 89 86 78
95 90 90 99 100 99 98 92 84 87 93 85 92 90 83 70 52 49 60 73 77 76 80 81 84 91 92 82 77 76 74 75 77 88 91 93 98 96 94 91 89 88 81
92 89 89 89 99 99 98 95 86 80 67 61 72 65 61 65 68 60 52 50 72 80 83 83 85 88 92 85 82 79 83 79 88 89 88 96 95 96 94 98 94 98 99
96 91 100 100 100 100 90 87 86 79 71 63 55 69 67 57 56 60 59 62 65 69 86 88 89 91 97 96 88 86 87 87 87 97 96 99 99 95 99 99 99 99 99
100 92 93 97 86 95 94 88 85 81 74 57 50 62 67 82 82 77 74 68 68 68 75 86 90 98 97 97 98 94 91 87 85 93 100 100 99 95 98 100 100 98 100
100 94 99 92 95 97 94 90 83 60 44 46 52 60 75 86 91 84 79 79 77 66 67 74 97 100 100 100 97 96 98 95 95 96 96 100 91 89 92 99 99 90 98
100 100 100 100 100 100 89 71 57 53 52 57 64 77 88 93 96 97 98 98 86 75 60 67 89 99 100 100 100 98 93 94 96 97 97 95 95 98 98 88 89 91 98
100 100 100 100 92 74 60 55 58 56 56 61 66 71 86 93 95 100 100 99 99 92 84 87 98 100 100 100 100 99 93 94 96 98 96 94 94 99 98 92 95 99 99
100 100 93 77 67 60 56 55 57 56 60 67 61 84 91 95 95 97 94 97 97 94 93 87 97 99 100 100 100 99 95 91 92 93 99 96 97 97 94 95 94 98 100
100 93 75 68 64 60 62 64 62 62 65 70 83 88 88 92 92 89 87 87 91 95 100 96 99 100 100 100 100 100 96 91 91 91 93 88 98 91 87 92 73 71 82
84 81 74 68 64 66 64 66 70 69 78 81 84 84 86 90 89 87 88 89 95 97 99 99 100 100 100 100 100 100 98 88 81 82 72 64 95 82 67 55 41 39 71
77 74 72 69 68 66 66 65 67 74 82 84 87 89 89 89 86 91 94 89 92 98 100 100 100 100 100 100 100 99 98 92 80 73 67 60 52 46 44 43 46 36 53
74 74 75 75 73 70 70 68 73 82 84 86 90 89 92 89 82 85 90 93 92 93 98 100 100 100 100 99 98 96 94 86 76 71 61 59 59 54 54 71 91 97 78
75 73 76 76 80 77 72 73 83 84 86 88 91 91 93 86 90 88 86 86 83 86 93 100 100 99 97 94 91 87 82 79 69 62 61 63 56 66 65 84 97 97 97
81 81 82 82 83 83 77 79 80 90 91 94 97 94 89 85 86 88 78 59 52 66 79 92 97 96 92 87 84 86 77 71 58 54 60 53 62 65 68 94 97 97 96
84 84 85 85 87 88 79 82 83 85 90 90 93 94 90 84 77 73 67 61 54 53 51 51 70 81 84 86 84 85 81 69 66 50 53 62 65 66 71 88 82 98 99
91 92 91 94 93 92 83 88 90 100 97 99 99 95 91 86 73 55 55 61 57 65 52 48 48 48 54 56 66 58 68 65 58 62 56 67 71 68 74 85 79 97 93
83 85 85 90 92 92 88 91 100 96 88 93 95 92 89 83 76 61 62 57 51 56 65 80 85 72 76 56 52 59 72 88 70 68 75 80 77 76 82 86 86 81 86

GFSMA_925_rhum_099.txt.gz
RH
59 60 59 62 60 56 55 55 54 52 51 54 58 60 57 55 54 54 58 62 66 67 68 68 67 69 70 78 75 74 69 69 71 85 85 90 92 91 82 76 76 76 64
58 59 58 59 60 64 60 59 56 59 58 59 56 56 55 56 57 58 58 60 64 60 60 62 65 62 69 74 72 70 67 64 65 65 63 64 89 94 90 85 82 80 74
62 67 65 73 72 68 63 63 58 59 57 57 60 58 59 57 56 54 53 54 58 60 62 60 61 66 68 75 75 75 71 59 56 53 55 53 68 91 96 95 95 89 87
76 77 81 81 77 72 68 62 59 58 55 56 58 57 59 59 57 53 52 54 54 58 62 63 70 70 68 71 76 83 68 58 54 53 48 50 55 72 88 98 94 97 98
83 87 85 81 78 74 70 65 58 53 52 58 59 56 61 58 53 52 53 55 56 61 65 66 68 72 72 72 75 87 69 60 57 60 58 56 58 65 91 96 97 96 94
88 87 83 81 78 77 69 65 61 54 56 56 65 59 57 55 55 53 54 56 56 67 72 76 75 76 80 80 86 98 90 70 66 66 64 63 63 86 87 86 92 96 94
85 88 86 81 80 76 69 62 60 57 64 66 63 55 55 53 53 58 59 56 57 70 74 75 77 76 78 91 96 96 86 83 74 73 69 72 68 88 85 82 92 95 97
82 86 88 87 85 81 74 66 63 67 70 66 60 60 60 47 54 61 62 62 61 68 70 79 84 88 88 96 94 92 81 73 68 86 87 89 88 88 92 95 92 91 89
87 90 91 87 82 82 80 80 80 88 80 81 73 65 56 52 47 45 60 62 62 63 71 80 87 91 92 92 92 85 75 69 73 89 97 97 96 98 96 96 95 89 88
93 99 90 85 90 90 90 98 97 91 79 82 80 82 76 62 55 48 55 63 68 67 70 73 78 87 90 94 86 79 76 76 82 92 88 93 95 94 93 91 96 99 96
84 81 82 80 90 98 99 98 94 88 77 67 56 59 58 57 61 59 59 49 68 68 74 76 76 80 89 92 90 85 82 83 93 95 97 99 98 96 94 93 96 99 98
88 85 85 81 99 100 95 88 94 97 97 90 73 58 58 60 62 64 64 54 58 60 72 80 85 86 92 95 96 89 87 88 87 86 98 99 99 97 95 97 98 99 99
86 88 92 69 88 100 98 82 95 96 94 84 70 61 60 61 67 69 66 64 63 62 64 78 83 91 98 99 100 97 94 91 89 90 99 100 96 95 97 99 99 99 99
91 78 81 84 92 91 95 99 100 97 90 85 74 70 70 64 75 78 74 72 77 70 64 70 89 95 99 100 100 100 98 95 94 91 87 87 91 92 100 100 99 99 99
99 92 99 100 100 98 99 100 99 94 80 68 66 60 57 69 82 87 86 85 80 78 67 69 91 96 97 99 100 99 97 96 97 99 99 95 94 93 97 94 89 100 99
100 100 100 100 100 100 100 100 89 74 63 66 63 62 73 84 89 94 92 91 90 85 85 82 96 98 99 99 98 98 96 95 95 100 94 94 94 97 94 89 83 98 98
99 100 100 100 100 100 95 85 71 60 57 58 59 71 78 83 90 93 95 95 91 94 93 83 91 91 92 99 100 99 96 94 93 94 94 93 98 94 88 82 84 74 88
99 100 100 100 97 89 79 67 59 58 57 63 64 66 76 83 90 91 90 89 86 86 95 91 99 94 99 100 100 100 98 94 92 92 91 90 96 82 61 42 44 45 60
95 96 96 90 80 73 66 63 61 60 61 65 72 75 80 86 88 87 83 84 85 87 88 97 98 100 100 100 100 100 98 92 89 88 86 73 92 76 57 48 43 36 40
82 80 78 75 73 68 67 68 65 65 67 71 76 78 82 86 86 86 89 91 93 95 97 96 96 100 99 100 100 100 99 97 87 77 77 68 65 52 44 51 90 80 62
76 75 72 71 72 73 72 70 70 73 75 79 84 86 86 87 86 87 86 88 92 95 95 97 100 100 100 99 99 99 99 94 87 78 68 63 55 55 60 84 87 97 94
72 71 71 73 74 73 72 74 75 77 79 81 85 88 87 85 81 79 79 84 86 87 90 95 99 99 98 98 95 93 91 82 81 76 70 60 48 63 68 63 96 96 99
77 76 75 74 77 77 72 71 78 81 82 84 86 90 91 90 90 84 85 75 70 73 82 90 94 97 96 93 90 87 82 80 68 60 56 56 56 64 65 97 89 98 98
79 80 79 78 80 81 76 76 75 87 90 92 94 95 92 80 85 85 82 68 55 46 49 54 77 84 88 85 86 87 84 74 62 52 44 63 60 63 62 81 77 98 98
83 83 82 82 83 86 82 81 82 88 98 97 98 96 91 81 80 75 70 61 55 61 47 40 50 58 71 83 81 78 72 62 59 63 50 65 64 64 64 82 77 90 82
87 87 87 86 85 87 85 79 86 91 88 88 92 94 92 84 82 76 59 60 56 56 66 78 60 53 53 52 57 70 62 73 66 68 65 68 74 73 86 72 76 69 73

GFSMA_925_rhum_102.txt.gz
RH
76 78 74 77 71 57 69 60 61 54 53 53 56 58 57 57 55 54 57 60 61 63 62 64 67 64 70 74 73 73 69 65 63 64 58 58 73 86 88 87 80 78 70
67 65 65 66 64 58 56 55 54 54 54 54 58 59 57 56 56 56 59 59 61 63 59 58 59 59 69 75 73 74 68 60 55 50 49 47 57 81 94 95 91 84 81
60 59 60 60 59 60 62 61 58 58 59 58 58 59 58 58 56 55 54 55 55 58 60 64 66 64 66 71 83 77 70 59 52 50 48 48 49 58 80 92 94 94 94
60 59 62 65 68 69 65 63 61 60 59 58 60 59 59 59 56 56 52 53 54 58 64 67 67 72 70 70 86 84 73 59 52 53 53 53 54 57 73 94 96 94 93
68 70 79 76 76 74 67 64 61 58 56 54 59 58 57 56 55 53 53 55 56 57 61 65 70 75 73 71 83 96 79 60 57 58 62 60 65 66 88 89 90 94 95
80 76 85 83 79 76 72 68 64 58 53 54 60 59 57 57 56 55 55 57 56 59 73 75 77 77 80 79 86 98 91 70 67 69 67 63 67 70 90 85 91 90 96
82 87 84 82 80 79 74 68 65 61 54 61 64 63 58 57 55 58 58 58 59 70 73 72 82 87 78 86 98 99 96 94 79 74 74 76 85 80 90 96 95 93 91
86 83 82 85 83 81 78 70 63 61 61 65 68 64 74 58 58 54 58 61 61 67 70 74 86 82 80 81 93 96 96 93 88 87 93 94 80 93 96 94 95 92 90
81 85 85 84 83 82 78 76 74 71 72 75 75 70 74 70 59 62 63 60 62 63 71 77 83 89 87 85 94 98 92 77 79 93 93 97 96 97 93 88 91 96 97
83 83 75 88 86 83 82 80 78 80 81 91 86 75 75 65 66 57 64 62 61 65 70 73 78 84 87 88 90 88 83 80 81 85 90 95 96 96 92 91 91 94 99
75 78 83 84 80 77 80 81 85 86 83 84 83 79 58 58 62 68 69 66 69 65 66 73 76 83 88 89 90 90 87 88 99 97 99 99 99 97 92 92 90 95 96
84 82 84 86 87 92 90 95 96 93 82 85 88 78 64 60 65 63 74 66 64 66 69 75 75 85 88 92 96 94 90 88 89 93 98 100 96 84 95 95 97 98 95
79 87 88 90 83 97 99 94 75 94 98 97 90 88 65 57 55 61 68 70 69 64 68 77 82 83 88 94 94 97 95 93 90 93 98 98 88 82 96 99 99 99 99
96 90 90 89 85 98 99 100 76 96 100 100 95 87 65 63 66 70 70 74 86 77 68 77 89 90 91 97 98 98 96 95 96 95 97 97 87 82 92 100 99 100 100
89 90 95 100 98 92 94 92 94 92 99 97 88 83 74 66 67 73 74 80 80 88 81 92 96 98 94 96 98 99 98 98 99 100 99 91 89 93 91 96 94 100 98
99 100 100 100 100 99 99 90 98 99 100 95 82 69 65 68 75 78 78 82 86 86 91 82 95 96 96 91 93 94 96 97 97 98 97 94 91 93 90 86 84 97 100
100 100 100 100 100 100 100 100 100 100 93 78 69 70 72 74 75 80 89 88 90 86 90 85 91 96 99 97 95 98 97 93 94 97 95 93 94 84 81 62 42 73 83
98 99 100 100 100 100 100 100 100 90 76 69 67 66 72 79 83 87 90 91 91 88 90 96 97 96 99 100 99 99 99 95 93 94 93 90 91 80 71 50 35 33 54
91 96 98 100 99 99 96 94 92 85 69 65 65 64 62 69 74 80 86 90 89 88 86 91 94 97 97 100 100 99 99 96 93 91 91 83 88 81 63 56 77 52 75
87 88 93 95 95 93 91 89 78 68 65 65 65 66 68 77 81 86 88 85 86 87 88 89 96 100 98 100 100 99 100 99 93 87 82 80 72 60 48 79 76 90 91
80 81 80 80 79 78 76 70 68 69 67 66 67 68 73 78 85 86 88 85 88 92 95 93 99 100 100 100 99 98 100 99 95 89 77 66 64 55 55 69 72 84 98
74 75 74 73 72 73 74 76 73 71 69 69 71 75 78 80 80 83 85 86 87 87 88 91 92 94 96 99 98 97 97 91 87 78 76 66 61 53 56 63 84 97 96
76 73 72 72 72 73 71 71 72 70 71 74 76 79 81 79 81 81 79 79 83 87 87 88 89 93 98 96 94 92 91 84 75 64 54 57 59 62 62 89 81 99 100
78 78 76 75 74 75 74 71 73 80 78 78 80 83 84 84 86 86 84 80 68 58 56 80 92 94 92 89 91 88 84 81 72 63 48 59 59 63 62 69 81 99 97
82 80 80 79 77 76 77 77 75 81 83 83 85 89 89 88 80 86 88 75 65 52 51 45 52 73 86 85 85 86 88 78 64 57 46 56 60 63 63 79 72 86 73
87 87 86 85 82 80 80 80 80 81 84 86 87 88 93 93 81 85 83 70 61 54 58 48 43 49 57 79 82 77 76 66 59 68 57 57 73 63 70 66 75 67 73

GFSMA_925_rhum_105.txt.gz
RH
84 81 84 84 87 86 79 58 56 56 56 56 56 58 58 57 56 57 57 59 62 62 62 59 60 63 66 70 73 76 72 66 60 59 53 48 50 82 89 91 92 84 79
84 86 84 88 78 74 63 62 61 57 54 51 56 58 58 59 58 58 58 58 56 58 61 60 60 62 66 71 75 76 71 62 55 52 49 53 52 58 80 91 93 96 93
78 75 71 69 63 59 64 63 57 54 57 56 58 59 59 59 58 53 53 52 52 58 61 64 67 67 72 73 76 82 74 65 56 53 54 59 57 60 68 79 96 92 92
73 71 66 67 69 62 59 58 60 58 60 61 61 61 60 59 60 56 55 51 52 64 67 69 68 71 72 73 76 98 81 68 55 54 56 62 68 58 74 88 91 95 95
63 61 63 62 61 61 64 64 62 62 61 59 57 60 60 60 58 57 54 55 57 58 60 61 70 74 74 76 74 97 92 70 58 58 60 61 63 56 89 88 93 95 90
60 59 62 63 71 70 66 65 63 62 58 55 56 60 62 61 57 56 55 56 57 56 54 68 71 74 80 76 78 98 98 79 67 67 63 66 67 68 90 95 96 96 94
67 66 79 78 78 76 73 69 66 64 59 54 64 65 59 56 58 58 58 58 57 57 66 69 74 85 81 79 95 98 99 97 86 73 72 79 79 87 96 96 96 95 91
77 76 84 86 82 79 76 71 68 65 62 58 68 70 76 64 63 60 58 55 59 66 70 70 83 86 82 79 82 98 99 98 92 89 94 95 83 97 96 93 89 94 96
80 77 85 83 81 81 80 76 70 64 68 75 71 69 84 74 71 65 63 59 57 66 68 68 69 82 83 80 81 89 98 93 86 95 94 93 89 96 94 92 90 91 96
82 86 84 84 85 84 78 77 74 72 68 76 90 78 74 64 68 73 69 65 62 60 71 75 74 78 82 86 87 89 89 83 84 90 94 97 96 98 95 92 91 88 94
76 83 76 72 74 71 66 79 73 73 78 71 82 89 80 69 68 66 70 71 68 68 70 72 76 81 86 86 84 88 88 87 95 97 97 98 97 96 96 95 94 96 96
77 79 77 76 77 76 82 85 80 75 92 92 84 78 72 64 59 67 73 68 74 69 72 74 78 84 87 88 86 89 90 88 88 90 97 100 95 91 90 98 97 98 94
82 81 78 80 88 82 77 78 94 94 99 92 88 87 79 60 56 59 64 71 69 68 79 81 86 85 87 90 91 94 95 93 93 93 99 100 93 87 89 98 98 98 99
88 87 82 83 82 84 81 85 99 100 99 100 87 82 89 79 69 60 64 72 84 81 74 84 93 94 89 85 85 98 94 94 95 95 99 99 90 86 81 75 98 98 100
80 82 84 92 86 91 91 92 98 91 89 91 83 97 99 91 70 69 71 69 69 88 90 93 94 98 93 90 92 93 94 96 96 97 98 96 91 86 82 79 93 98 100
95 93 89 86 100 99 100 96 100 99 96 90 88 94 91 84 75 71 73 75 79 77 87 86 97 98 97 94 90 90 90 94 98 98 97 92 95 92 86 77 62 61 90
100 100 100 95 100 100 100 100 100 100 100 100 100 98 88 76 70 70 75 78 82 87 92 91 92 95 96 95 92 93 93 92 96 99 97 94 94 88 77 62 52 42 70
95 98 98 99 98 99 100 99 100 100 100 100 99 93 77 73 76 74 76 80 81 86 87 92 91 94 99 100 100 100 99 96 94 95 96 93 95 86 75 70 82 47 58
89 92 99 97 97 99 100 100 100 100 100 100 94 80 71 71 75 79 82 83 86 88 91 91 91 97 100 99 99 99 99 98 95 95 95 91 94 85 69 78 84 77 87
84 85 85 93 92 96 99 99 99 98 94 91 87 74 68 69 72 75 81 81 85 91 91 91 93 95 98 99 100 99 100 100 95 92 87 82 78 73 59 88 62 70 98
75 79 81 82 86 89 91 92 92 94 95 91 82 74 71 70 73 74 78 87 87 87 90 93 98 100 100 100 99 99 100 99 98 95 85 76 68 64 53 51 64 80 94
73 74 76 77 76 77 77 77 78 75 75 76 75 75 76 78 81 86 86 90 86 85 88 92 94 99 92 94 96 97 99 99 96 89 80 74 66 59 51 61 86 96 96
77 76 75 74 73 73 74 74 76 77 74 74 72 73 77 79 82 83 84 86 86 85 86 84 91 92 93 89 96 99 98 93 84 75 69 60 60 52 58 78 77 97 98
81 81 80 78 76 75 74 74 73 75 76 74 74 73 74 75 77 78 81 80 79 80 85 88 88 88 89 95 97 95 92 90 79 73 60 50 58 56 62 73 87 98 93
88 86 85 84 82 79 76 75 77 75 77 78 78 78 79 79 78 79 81 82 81 72 62 58 73 87 93 89 90 96 90 84 74 68 61 47 58 59 63 66 70 81 69
90 85 83 86 88 88 85 82 80 81 81 84 83 83 84 84 84 83 84 83 78 70 58 48 44 49 71 85 87 88 85 83 66 65 51 50 65 63 63 64 70 66 69

GFSMA_925_rhum_108.txt.gz
RH
82 78 75 78 78 82 78 71 62 52 53 56 58 58 57 56 57 58 58 59 61 63 62 62 61 66 71 69 70 75 75 68 61 57 52 54 51 60 87 90 94 94 93
84 76 80 79 78 81 81 72 57 53 57 57 56 58 58 57 59 58 58 59 56 56 62 61 61 63 68 69 75 72 76 69 59 53 52 58 58 63 66 75 81 94 95
87 79 79 81 82 85 80 67 62 64 59 56 54 58 60 60 59 59 58 54 53 54 63 65 66 69 69 75 74 89 77 72 60 56 56 57 61 66 66 71 79 91 96
81 80 81 83 82 83 77 68 66 64 58 57 56 59 60 60 60 61 62 55 56 59 64 67 69 68 73 71 71 94 87 77 63 56 56 59 62 69 92 90 91 96 95
77 79 80 83 74 72 66 65 63 61 60 62 62 61 62 61 60 62 58 53 55 61 62 63 63 68 73 74 75 92 98 88 70 62 59 62 66 70 91 95 96 93 95
81 74 74 66 69 73 67 66 63 62 61 63 61 59 61 61 62 62 54 55 57 58 59 60 69 70 72 77 70 88 96 94 75 66 68 69 72 72 95 96 96 96 93
77 76 71 68 67 66 64 64 65 64 65 61 58 59 66 66 63 58 56 57 59 60 57 55 61 68 78 66 84 95 99 95 86 79 74 76 82 88 94 94 89 92 95
69 64 63 64 65 69 70 66 67 69 64 60 69 74 82 70 69 65 62 60 60 59 54 57 65 77 77 70 80 79 90 98 93 88 93 94 93 82 94 94 93 85 92
62 62 63 69 74 76 74 74 72 70 68 65 65 74 89 85 76 67 66 63 60 61 63 65 71 75 79 79 79 90 99 98 93 93 96 95 90 96 95 94 92 90 86
69 69 70 75 85 84 82 78 74 73 72 70 77 78 77 63 76 81 73 69 66 67 72 71 74 75 82 81 82 84 91 94 87 88 94 98 97 99 94 94 93 91 94
73 75 78 83 86 85 85 83 75 76 76 73 86 89 87 79 73 74 85 78 70 69 73 76 75 78 78 80 78 78 86 88 93 95 99 96 99 97 99 97 95 95 97
81 77 77 78 73 74 74 72 69 74 78 78 79 81 86 82 79 74 73 74 76 76 77 77 82 80 80 82 85 83 86 90 89 90 98 98 100 95 89 99 99 98 96
83 84 87 82 75 80 80 74 76 86 82 88 93 92 92 81 72 74 79 74 73 75 86 86 86 86 86 88 88 85 84 92 89 87 99 100 96 94 88 86 94 98 98
83 81 81 86 83 75 78 78 76 77 88 99 98 99 93 84 81 73 74 72 86 81 81 86 90 92 93 93 90 88 87 88 90 93 99 100 98 90 84 81 75 77 94
88 90 87 84 87 87 89 86 84 88 97 99 97 95 84 88 87 78 72 62 69 85 92 86 92 97 97 93 89 86 85 88 93 95 97 98 94 88 85 80 72 63 84
100 96 90 89 89 92 90 97 100 100 99 94 94 99 99 96 97 93 76 72 71 65 80 79 96 97 100 98 93 86 83 87 90 96 97 95 94 92 87 78 63 68 64
100 99 100 100 99 98 98 95 100 100 100 95 92 91 98 100 95 84 79 77 76 75 85 89 92 96 99 96 88 88 89 91 88 94 99 98 93 93 84 75 68 78 74
90 93 93 95 99 100 100 100 100 100 100 100 99 100 100 100 94 82 79 72 74 81 85 92 97 100 99 98 95 94 93 94 93 93 98 98 96 93 86 75 72 91 51
82 88 90 96 96 94 94 95 100 100 100 100 100 100 100 100 93 88 86 78 79 83 89 90 98 100 100 100 100 99 93 99 96 95 96 97 99 95 85 70 94 58 84
71 74 78 79 84 92 90 92 99 100 100 100 100 100 99 97 90 91 85 82 90 91 92 96 95 100 100 100 100 99 100 100 98 96 93 92 84 80 75 75 56 51 86
73 74 76 77 78 80 85 90 92 93 94 96 98 97 95 91 86 83 85 87 94 92 96 98 97 100 100 100 100 99 100 100 98 98 91 82 81 75 67 57 48 67 96
74 74 75 76 75 76 75 77 79 80 83 85 88 94 91 88 84 80 79 80 81 87 92 92 96 99 100 95 89 98 100 100 99 96 96 88 79 71 66 49 64 96 95
81 83 82 80 80 78 76 75 75 78 80 80 78 78 78 78 80 81 87 88 91 94 91 84 88 91 92 90 90 98 97 98 92 81 91 76 67 66 50 59 74 95 97
82 86 86 88 88 86 84 81 79 79 78 80 82 80 78 76 78 84 87 89 90 94 92 89 86 82 86 88 87 89 95 98 94 79 76 54 55 52 50 58 75 92 98
81 81 81 81 82 84 84 86 86 84 83 80 77 78 81 81 79 85 91 89 89 88 86 86 88 89 88 88 91 96 100 98 83 76 74 61 52 55 56 59 68 85 75
79 79 78 76 79 90 82 83 90 93 92 88 83 81 82 85 84 86 87 86 90 84 81 72 65 75 88 92 91 93 94 93 79 80 74 63 54 54 62 56 66 68 67

GFSMA_925_rhum_111.txt.gz
RH
80 78 76 78 78 77 78 71 65 60 48 54 57 56 57 57 56 57 57 59 60 63 63 65 64 66 72 70 70 75 75 76 70 61 52 56 59 64 86 95 95 95 96
81 78 77 81 80 78 77 72 67 63 50 55 57 59 59 59 59 58 59 59 60 59 60 64 63 65 66 69 75 78 76 76 68 56 53 58 58 62 77 92 90 90 92
88 80 79 81 80 78 78 78 77 70 55 58 58 56 58 60 60 61 61 60 60 62 64 66 64 67 71 72 78 83 88 80 72 58 54 57 61 62 64 73 78 96 96
92 87 86 79 78 79 81 81 82 70 66 64 59 55 57 61 61 62 61 61 60 60 60 66 64 70 73 76 74 74 95 87 76 61 58 62 61 61 68 89 93 96 95
100 94 89 84 80 80 82 84 83 77 69 61 59 59 59 61 61 62 63 62 57 55 57 64 65 67 69 73 74 74 96 97 81 65 63 59 61 66 76 97 96 96 94
96 100 92 89 82 82 83 85 82 76 73 60 63 65 63 63 64 65 64 64 57 56 59 62 60 63 71 68 66 65 100 91 81 68 64 67 72 75 90 95 93 93 93
78 96 96 85 80 85 78 75 72 70 69 66 67 66 63 63 66 67 66 62 60 58 60 61 59 63 65 63 57 79 96 91 93 84 76 75 77 86 91 92 95 87 86
76 81 72 79 79 72 69 74 71 73 69 67 68 76 84 72 68 67 63 62 64 64 64 60 60 62 62 62 78 93 96 100 100 95 92 90 91 88 97 96 94 91 86
91 84 76 93 70 69 73 69 69 73 69 68 66 72 90 89 81 70 68 66 70 70 69 66 66 65 67 70 70 82 94 96 93 93 96 96 98 98 97 96 95 91 93
90 97 99 89 63 69 68 68 72 72 73 73 76 76 81 72 81 81 74 71 71 73 70 68 66 70 72 76 77 79 83 91 94 92 95 94 96 96 100 98 96 93 94
96 93 76 74 66 66 72 76 78 80 80 77 81 84 94 88 80 80 85 81 77 73 75 70 71 72 74 80 78 76 77 85 88 92 98 96 96 87 95 100 98 96 97
88 82 75 72 67 70 73 69 84 85 79 79 80 81 84 90 93 94 89 84 87 82 83 86 84 83 83 81 82 80 76 82 86 89 96 97 100 98 99 98 100 99 98
86 83 80 80 75 64 66 66 72 76 72 69 69 76 84 87 90 86 83 80 88 88 88 85 83 90 87 84 85 81 82 81 87 89 98 99 95 97 96 90 94 98 98
83 83 89 92 91 88 85 83 87 78 79 84 85 87 84 92 98 92 85 82 94 90 93 89 87 91 92 88 86 87 81 79 89 90 99 99 97 98 90 86 83 78 80
88 86 87 88 88 87 88 83 92 90 92 94 89 90 99 99 99 90 90 95 91 97 94 89 88 94 96 94 93 88 85 85 86 89 95 99 100 96 90 84 81 73 72
98 98 93 94 92 91 91 94 93 98 100 98 99 100 100 100 99 96 94 84 84 76 84 77 92 92 99 98 95 92 87 82 86 92 91 93 95 92 90 86 78 71 77
100 100 100 100 99 98 97 98 100 99 100 97 99 100 99 100 99 95 94 98 96 87 82 86 84 91 97 99 97 92 84 81 80 86 95 96 95 94 91 84 78 74 73
88 94 95 94 98 100 100 100 100 100 99 100 100 100 100 100 100 100 99 98 88 86 82 87 97 100 100 100 99 92 88 85 85 88 90 93 98 95 91 87 78 72 72
75 82 83 83 86 92 93 92 90 91 96 99 99 98 100 100 100 100 99 99 98 96 96 89 98 100 100 100 100 100 97 93 91 93 95 96 97 100 94 85 82 66 55
72 73 75 77 78 78 82 89 93 94 96 97 99 100 99 100 100 100 100 100 99 100 99 99 98 100 99 100 100 99 100 99 95 96 96 95 94 94 87 79 72 51 56
75 76 75 74 76 77 78 79 79 81 83 85 87 91 95 98 100 100 100 99 97 100 97 99 100 100 100 99 99 99 100 98 100 100 97 92 88 86 83 72 63 54 95
71 74 77 80 78 76 77 77 78 78 78 80 81 80 81 86 99 100 100 97 95 96 100 100 100 99 100 98 100 99 100 100 99 98 99 92 85 82 76 70 55 81 92
78 82 83 83 83 82 85 86 85 84 83 81 81 81 80 79 82 89 92 94 95 94 96 89 97 98 98 94 96 97 99 99 95 89 99 92 88 80 72 60 59 83 89
77 77 79 79 78 78 81 82 83 85 88 88 85 82 83 82 81 82 85 95 98 95 99 95 96 91 89 86 88 87 87 92 97 91 91 74 66 63 57 49 66 89 77
83 80 75 74 78 74 72 77 82 87 90 88 87 86 84 82 80 86 89 92 98 99 99 100 100 96 91 86 87 93 96 100 94 86 85 68 65 58 54 53 62 79 77
99 96 91 86 78 76 72 73 77 84 99 100 98 96 92 87 85 88 94 92 98 94 95 95 98 92 90 90 90 88 88 100 91 89 80 74 63 48 61 60 61 71 69

GFSMA_925_rhum_114.txt.gz
RH
96 82 85 85 83 80 76 75 67 62 57 50 46 46 51 57 56 55 57 60 61 62 64 66 66 63 68 68 68 71 73 77 77 64 55 55 55 54 54 55 70 90 92
85 85 82 80 81 79 80 85 72 64 59 49 55 57 57 59 59 58 56 59 60 62 64 66 68 65 68 72 72 74 78 78 78 64 55 57 56 55 57 59 81 96 94
79 77 77 77 81 82 79 80 76 72 67 60 56 58 59 60 61 60 60 60 61 61 62 64 68 67 68 73 74 79 82 89 80 69 57 56 56 58 59 68 78 95 94
92 87 75 77 78 84 80 80 80 78 71 71 58 60 59 56 60 61 62 63 62 62 61 62 64 69 69 72 73 73 81 95 87 73 59 56 58 63 69 73 76 95 95
99 97 85 80 83 92 86 81 84 83 81 70 70 62 59 56 58 62 63 63 63 63 60 60 64 68 70 68 65 68 83 97 90 76 62 59 65 73 79 87 97 95 93
96 100 100 100 97 100 94 85 85 85 84 72 72 63 62 63 64 65 66 65 65 63 61 61 64 65 63 62 62 65 73 97 91 78 70 68 70 74 86 95 95 90 86
99 100 100 99 99 99 90 87 86 87 85 79 75 68 68 66 64 64 65 65 66 66 64 68 63 62 59 62 58 48 76 91 96 94 80 76 76 79 97 93 94 94 88
96 98 99 94 95 98 92 86 84 87 83 74 74 78 84 69 63 66 69 68 66 66 65 67 65 60 58 57 53 72 96 99 97 99 96 94 97 91 94 97 96 94 93
100 100 90 81 83 86 88 82 88 86 77 73 74 70 92 90 84 74 72 69 66 69 71 72 68 63 60 58 58 72 92 98 97 94 98 95 93 93 98 98 97 95 94
99 89 85 80 67 62 63 68 76 74 76 77 79 75 80 74 82 81 72 72 72 71 72 73 74 71 66 63 64 69 76 83 94 93 95 96 96 98 97 96 94 97 97
100 98 91 77 76 70 66 96 70 73 71 78 77 83 90 91 77 76 83 78 73 69 69 72 71 70 73 75 73 72 73 76 78 81 98 96 91 98 96 92 98 99 98
100 100 100 100 100 96 83 77 58 62 74 81 80 83 80 90 96 96 94 88 81 72 71 74 77 81 82 80 81 75 74 72 74 85 89 95 99 98 98 98 94 100 99
100 100 100 100 100 86 84 82 68 68 71 80 79 83 83 78 81 86 87 87 90 84 80 79 84 87 90 90 86 83 79 76 73 80 86 99 96 86 89 96 92 87 81
99 99 97 96 92 90 85 82 83 82 84 86 83 89 90 91 95 98 95 91 94 92 97 90 94 99 95 94 92 89 81 77 73 79 91 99 92 92 94 93 85 81 77
95 91 93 91 86 86 79 80 82 83 85 91 96 95 95 90 88 93 100 100 96 97 97 88 90 87 94 99 96 91 86 82 78 82 93 100 98 98 96 89 83 79 75
100 100 99 98 96 91 87 91 92 91 100 97 98 98 95 96 100 100 100 100 100 97 97 82 88 87 94 98 100 94 91 87 84 83 86 92 96 95 93 87 84 79 76
100 100 100 100 100 100 100 100 100 99 97 95 100 100 100 100 100 100 100 100 100 100 96 88 86 95 95 100 100 100 97 94 86 86 95 91 94 95 93 90 84 79 75
86 89 90 90 92 95 97 99 99 100 100 100 100 100 100 98 99 100 100 100 100 100 99 96 98 100 99 100 100 100 99 95 90 90 91 99 100 97 96 91 85 79 73
72 72 73 74 75 76 80 86 91 92 93 95 96 99 100 100 100 100 99 100 100 100 100 99 100 99 100 100 100 100 100 97 93 92 98 99 99 100 98 93 85 78 59
68 69 71 72 72 74 76 77 76 77 79 82 84 87 90 95 99 100 100 100 100 100 100 100 100 100 100 99 98 99 99 99 98 95 95 99 97 99 100 92 84 72 54
72 74 73 75 80 80 82 83 82 81 80 78 76 76 77 79 81 84 100 99 100 100 100 100 100 100 100 100 100 92 98 99 100 98 95 98 97 94 93 85 79 65 64
71 70 73 74 73 76 80 81 84 87 88 88 87 84 82 81 80 82 84 98 100 100 100 100 100 98 100 99 95 98 100 100 99 98 99 98 95 91 88 82 72 67 82
73 74 74 71 68 70 71 74 79 82 84 84 84 83 84 83 81 80 81 89 99 100 100 98 99 99 98 95 98 100 100 99 97 88 98 98 96 90 85 79 69 74 81
84 88 83 82 80 76 78 83 86 83 80 80 83 88 90 89 87 85 84 85 87 95 99 100 100 99 94 93 96 91 92 99 99 95 92 95 92 91 84 72 62 78 76
74 82 89 93 90 85 82 91 94 95 97 94 93 89 92 98 94 94 94 90 89 89 92 100 100 100 100 100 99 100 100 100 99 94 95 86 73 71 67 61 64 85 76
88 85 86 85 81 82 87 89 91 94 96 97 96 92 84 96 98 99 100 100 100 95 90 99 99 100 100 99 94 88 89 100 95 96 91 86 68 62 66 61 67 82 80

GFSMA_925_rhum_117.txt.gz
RH
90 90 92 86 88 87 75 62 67 70 67 65 63 60 61 63 60 56 56 58 62 62 64 69 70 67 69 66 69 70 73 75 78 74 58 54 54 54 56 57 65 93 93
77 75 81 80 82 81 81 71 69 68 71 67 59 53 52 52 58 58 58 56 60 62 63 65 66 78 77 75 76 74 74 83 78 74 61 54 56 56 59 63 76 92 92
86 86 82 77 74 76 79 81 82 85 73 67 57 55 60 61 61 61 60 57 60 61 62 63 64 67 74 73 72 79 82 86 88 79 67 56 57 60 64 77 82 91 95
84 94 93 92 81 81 79 80 88 89 80 73 71 56 57 60 59 60 60 61 62 63 63 62 63 64 67 68 71 76 83 87 92 85 73 61 61 62 68 82 93 95 95
69 97 98 94 92 88 92 87 84 88 83 79 76 64 58 63 58 57 60 63 64 64 64 64 63 64 66 70 71 63 83 92 94 90 78 65 63 68 72 81 85 91 89
71 81 99 99 95 100 100 89 87 76 86 84 83 73 68 63 61 63 62 64 65 65 65 64 62 63 67 69 62 54 60 91 90 91 81 69 69 71 74 90 96 92 91
92 94 96 100 98 100 99 94 100 87 91 84 90 80 71 62 62 65 67 66 66 66 66 66 63 66 68 65 51 51 46 78 84 91 91 85 77 80 89 88 93 94 92
97 98 97 100 100 100 100 100 100 95 94 92 84 84 72 65 64 63 66 65 66 67 68 70 71 67 67 59 48 48 56 88 90 90 98 91 91 96 98 98 98 93 93
92 97 98 100 100 100 100 100 86 92 95 84 85 75 83 79 81 71 72 72 70 69 69 69 67 69 69 61 58 58 63 85 96 97 98 97 97 97 97 99 98 96 96
96 96 95 100 100 100 100 96 85 87 87 91 91 86 79 75 76 74 70 72 75 71 69 69 68 69 70 64 63 64 68 86 91 95 98 98 94 96 99 100 98 98 91
96 92 98 100 100 94 93 95 88 77 65 72 76 82 94 95 85 81 80 74 71 64 66 72 74 68 70 75 70 69 71 77 81 87 98 95 92 96 99 99 100 91 91
98 98 100 100 100 88 74 76 67 64 69 58 57 70 80 89 94 93 92 86 82 74 70 69 68 70 75 78 78 77 77 76 76 74 90 94 90 96 99 100 97 94 97
97 99 100 100 100 96 76 80 82 86 89 98 90 74 65 88 94 96 98 91 90 79 77 75 72 72 76 84 89 87 87 79 81 74 91 93 90 99 99 98 95 95 92
96 100 100 100 100 99 99 93 78 75 84 84 75 70 79 83 93 98 99 96 92 88 85 83 77 78 84 92 98 99 95 92 90 81 78 92 99 92 92 89 90 91 85
100 100 99 100 100 100 96 97 98 91 90 90 92 88 87 88 94 85 100 100 98 96 88 85 88 81 86 94 98 97 98 96 92 80 78 95 98 93 92 94 95 87 80
99 100 99 96 96 96 98 100 94 94 95 94 97 100 94 88 97 99 99 100 100 99 96 88 80 83 85 92 100 100 100 100 97 90 98 100 100 99 98 96 90 83 80
100 100 99 100 100 100 100 100 100 99 99 99 98 98 98 98 100 100 100 100 100 100 97 92 95 91 92 96 100 99 98 98 93 90 99 94 95 98 94 94 88 84 80
90 87 89 85 91 97 99 99 99 99 98 97 99 98 97 99 99 100 100 100 100 100 100 97 99 94 94 98 97 100 100 100 97 95 87 99 99 96 94 93 90 86 82
71 69 67 70 73 75 75 76 77 79 82 85 87 89 90 92 90 92 98 99 99 99 100 100 99 99 100 100 100 100 100 100 99 91 89 97 99 99 97 96 93 89 82
69 72 74 75 75 75 75 77 79 79 79 78 78 79 80 82 91 98 100 100 100 100 100 100 100 100 100 100 100 99 100 99 99 96 93 91 99 100 100 99 96 90 82
70 68 67 68 70 74 81 83 84 84 84 82 82 82 83 84 83 82 86 93 95 100 100 100 100 99 100 100 100 100 100 100 100 97 97 98 99 99 99 100 95 89 75
69 68 68 67 65 72 78 80 81 80 79 80 81 80 80 78 76 78 83 82 84 96 100 100 99 98 99 98 100 99 100 99 98 99 100 99 98 100 98 96 92 83 70
70 75 83 83 82 82 92 95 93 86 88 90 88 86 82 80 86 94 92 93 90 83 88 99 100 99 99 99 99 100 100 98 95 90 100 100 100 99 96 92 89 78 89
64 70 75 78 74 83 98 95 96 89 95 96 95 96 95 90 82 97 95 99 100 100 99 95 100 100 99 99 99 98 99 100 100 96 100 98 98 95 95 90 84 85 97
71 76 77 68 76 81 90 88 85 81 80 83 86 87 90 90 93 97 99 100 100 99 96 94 95 99 100 100 100 100 100 100 100 100 100 93 94 92 93 90 81 95 97
81 76 65 74 79 72 79 87 87 82 76 76 76 78 78 88 93 89 94 99 100 99 100 98 98 95 100 100 100 97 100 100 100 97 98 95 84 76 84 72 74 78 94

GFSMA_925_rhum_120.txt.gz
RH
80 84 93 94 91 87 85 71 63 65 75 71 64 62 57 57 58 56 56 58 60 62 63 66 76 79 79 77 72 72 75 74 81 78 74 56 55 56 59 64 71 79 91
88 88 83 87 86 90 88 82 72 68 74 70 66 59 56 53 54 56 58 57 58 60 62 63 64 66 71 87 84 70 72 74 82 80 76 62 58 59 61 69 71 69 91
93 83 86 84 83 81 87 90 78 77 70 71 71 61 55 52 53 54 58 60 60 60 61 62 62 63 64 68 69 77 85 82 85 89 82 72 63 60 61 69 72 80 90
94 99 88 85 85 86 91 92 85 86 88 77 67 63 62 57 58 57 57 60 63 65 66 62 62 62 63 65 70 72 91 85 83 85 90 79 65 60 63 70 72 78 86
81 89 93 90 82 93 98 98 94 89 87 83 80 68 65 63 59 57 55 55 63 69 69 70 63 64 64 64 65 69 81 81 80 82 91 82 68 62 65 75 81 83 88
74 77 80 84 89 96 97 97 95 96 88 81 83 76 69 66 66 62 60 58 60 69 73 72 72 67 62 62 66 69 65 75 88 90 95 85 75 72 68 80 95 95 94
82 84 83 85 96 95 97 99 98 97 99 94 89 89 81 69 67 66 61 64 65 71 73 76 76 75 73 60 63 64 54 54 85 85 84 94 93 88 84 95 97 97 94
81 86 89 92 93 97 95 99 100 100 100 98 82 81 80 54 54 63 56 63 64 70 74 68 70 77 82 82 75 64 48 45 58 95 92 97 96 95 96 96 96 97 94
90 90 92 93 95 98 100 100 99 100 97 99 81 78 88 67 70 72 67 74 78 76 76 74 79 80 77 70 66 64 52 45 54 82 99 100 99 97 96 96 97 97 95
90 90 95 95 91 98 100 100 100 100 97 92 99 93 83 82 80 73 68 68 74 78 74 72 78 78 74 70 70 65 56 50 54 79 94 95 94 96 93 93 98 97 99
94 94 99 98 96 95 98 100 100 100 100 91 88 86 98 91 93 90 81 65 76 68 66 74 85 74 76 80 70 68 67 66 56 79 97 94 90 92 88 92 96 96 100
99 98 100 100 100 100 99 100 100 100 97 95 89 78 72 88 91 94 90 73 75 78 80 78 76 72 75 73 72 71 77 74 80 94 96 95 88 84 90 86 96 98 98
99 99 100 100 95 99 100 100 100 100 99 93 84 79 67 70 67 74 93 85 95 82 82 78 76 77 77 76 75 73 79 84 86 88 91 97 93 90 90 92 100 98 99
100 98 99 99 100 100 100 100 96 91 91 89 75 72 71 75 79 86 86 92 92 88 82 80 75 76 78 80 79 79 94 96 93 92 90 97 91 92 89 96 96 94 89
94 100 98 93 96 100 100 100 98 97 82 85 86 84 98 95 98 98 98 100 95 93 83 83 87 79 78 80 79 85 90 98 100 97 97 92 93 97 91 95 88 88 93
100 100 100 99 100 99 99 100 100 100 97 87 90 99 99 99 98 96 99 100 100 98 96 88 88 87 87 83 83 89 96 100 100 99 97 84 93 95 94 90 90 93 92
100 99 100 100 100 100 100 100 100 100 100 100 100 100 100 100 100 100 100 100 100 100 97 96 97 95 93 90 88 92 99 100 100 99 98 89 91 95 97 94 92 86 85
94 94 92 94 99 99 100 100 100 99 100 100 100 98 98 95 94 96 99 99 100 100 100 97 99 98 97 95 92 99 100 100 100 100 100 100 100 94 89 87 83 85 86
82 84 80 79 77 79 78 79 80 83 86 88 89 88 86 86 88 91 93 98 98 100 99 100 98 100 99 98 99 100 100 100 100 100 100 100 100 90 84 83 90 93 91
77 78 80 83 83 87 88 87 86 86 85 87 89 89 88 89 88 89 88 89 90 93 96 100 99 99 99 98 100 99 100 99 100 100 100 100 100 99 98 96 93 90 92
76 75 72 74 82 89 94 89 85 80 80 78 78 80 84 80 77 84 98 94 92 88 90 94 98 99 99 100 98 98 100 100 100 99 98 98 99 100 100 99 99 94 94
82 82 82 82 86 87 92 90 82 82 82 81 80 81 81 79 81 86 91 96 99 100 99 94 89 93 90 97 98 100 100 100 98 97 100 100 100 98 99 99 100 93 93
77 78 80 79 82 88 93 92 92 88 90 87 86 82 77 73 75 74 78 87 89 94 98 100 100 98 97 97 98 100 100 99 95 88 99 99 100 100 100 100 100 100 95
79 76 75 75 75 86 92 90 78 71 71 72 72 71 69 67 70 86 84 84 87 82 83 91 96 100 100 98 100 100 100 100 100 100 100 98 100 100 100 100 100 98 91
77 70 69 77 76 72 87 89 79 69 64 66 66 67 72 71 76 83 80 80 85 86 87 93 89 84 92 96 99 100 100 100 99 99 100 98 100 99 99 97 96 95 90
74 69 71 76 72 68 91 90 85 71 72 73 70 70 70 79 87 93 92 89 86 87 87 90 91 94 97 98 99 100 100 99 99 100 98 98 98 94 98 98 94 96 99

GFSMA_925_rhum_123.txt.gz
RH
65 75 84 88 86 83 76 64 55 49 52 56 60 57 54 52 53 53 52 52 55 59 61 63 76 90 91 84 87 72 76 74 78 84 81 76 58 57 58 61 65 68 83
75 74 78 86 88 83 80 75 61 53 52 62 60 56 53 50 48 48 51 52 55 56 58 61 63 64 72 82 77 75 77 73 75 82 88 81 68 57 58 62 66 66 75
76 81 80 86 89 85 82 84 74 63 57 58 58 57 53 50 47 45 47 52 55 58 58 58 61 61 61 62 70 87 76 78 83 80 89 87 78 62 59 62 67 72 75
81 83 83 80 78 84 87 87 81 74 66 61 58 60 56 51 48 48 49 51 54 58 60 63 60 60 61 61 63 78 90 86 85 81 81 90 89 75 62 66 79 87 78
77 81 78 75 79 81 83 88 85 80 76 79 76 66 58 58 53 50 49 50 51 55 62 66 67 65 62 62 64 71 79 80 79 79 78 88 93 87 80 78 87 95 93
70 75 75 74 74 75 83 84 84 84 80 77 77 72 70 62 60 56 54 54 54 54 60 68 72 71 64 62 63 62 66 72 74 75 74 86 93 95 93 91 92 96 95
77 75 71 72 72 81 83 87 90 88 90 84 81 77 69 64 67 64 64 62 59 59 61 68 73 76 74 70 67 63 64 65 57 57 77 83 82 95 97 95 94 96 96
72 74 77 76 76 83 83 88 88 93 91 88 91 83 80 65 71 66 64 61 58 60 63 68 72 78 80 81 89 76 66 63 58 43 58 75 88 90 100 96 94 96 97
81 78 79 80 86 85 88 92 97 94 98 97 99 83 76 72 50 56 63 64 63 64 67 73 76 81 81 72 76 78 73 66 62 47 72 82 99 100 97 95 93 94 94
80 81 85 83 87 87 89 94 97 96 94 88 100 99 77 78 80 75 71 72 70 73 73 66 58 52 57 52 55 59 67 68 67 58 65 84 97 100 97 93 97 92 94
86 84 86 87 87 91 95 96 99 100 99 100 100 92 95 88 92 90 82 72 76 68 67 67 60 58 65 70 72 67 68 67 69 66 69 83 92 97 97 97 95 92 96
86 89 88 90 95 99 98 94 90 100 99 99 99 95 92 89 90 98 99 86 76 64 64 70 67 68 69 69 65 70 68 66 69 75 89 92 94 97 96 94 87 89 96
95 98 96 96 96 99 99 99 98 100 100 100 99 95 90 83 77 80 77 82 82 70 75 72 73 74 71 60 60 66 66 72 77 83 95 98 94 96 88 90 89 94 100
92 94 94 94 98 99 97 100 100 100 100 100 100 98 91 79 76 70 81 80 87 92 78 76 73 71 69 71 73 73 79 82 88 90 97 99 97 88 86 87 96 96 99
87 89 92 94 98 99 99 100 100 100 100 96 94 91 84 81 86 87 92 93 97 96 86 75 76 74 80 83 81 84 85 82 85 88 100 96 95 90 91 90 93 92 96
96 97 99 97 99 99 99 100 100 100 98 98 92 90 89 89 90 99 100 100 100 99 96 92 87 85 86 88 88 89 88 86 86 90 99 100 96 93 93 94 92 94 95
99 100 99 100 100 100 100 100 100 100 100 100 100 100 99 100 100 100 100 100 100 100 98 97 98 95 95 93 90 89 93 92 92 97 100 100 100 98 94 93 97 97 91
100 99 99 100 100 100 100 100 100 100 100 99 99 99 98 95 93 96 97 97 98 98 100 98 100 99 99 98 98 96 98 97 97 97 96 100 100 100 99 98 98 94 90
98 95 92 88 88 86 86 86 83 84 85 88 91 91 91 87 86 86 87 87 90 91 93 97 92 95 98 98 100 99 97 97 97 95 99 100 100 100 100 100 100 95 88
82 80 83 88 87 81 80 79 78 79 80 81 80 80 85 88 86 89 90 90 88 88 86 84 84 87 89 90 94 98 98 100 99 100 99 99 100 100 100 100 100 99 95
69 68 71 78 80 84 83 83 78 75 73 72 73 76 79 72 79 74 93 91 92 91 90 90 91 85 78 84 98 91 98 94 96 94 99 99 100 100 100 100 99 98 93
75 74 76 81 84 88 87 66 78 77 77 78 78 77 74 70 75 70 76 81 86 88 86 85 86 84 84 90 92 95 98 98 95 92 98 98 100 100 100 100 100 100 100
70 70 71 74 79 88 92 67 74 77 76 74 73 69 64 60 64 80 78 76 77 78 82 79 81 84 88 87 92 94 96 99 97 96 100 99 99 99 99 100 100 100 100
72 66 67 71 77 83 90 72 65 66 63 62 62 62 64 66 72 85 86 84 80 77 76 79 82 87 93 95 89 93 100 100 100 99 100 98 99 100 100 99 100 100 100
70 64 70 71 67 75 75 79 69 63 60 64 64 65 70 70 80 86 89 86 83 84 84 84 86 86 84 88 91 98 99 100 96 95 96 100 98 100 100 100 100 100 99
62 63 65 68 60 62 73 88 85 64 63 65 62 62 64 78 85 83 83 83 83 84 87 87 88 87 90 83 94 99 100 99 94 99 94 100 100 98 98 99 99 100 100

GFSMA_925_rhum_126.txt.gz
RH
64 69 75 83 87 94 84 76 67 67 59 59 59 58 56 55 56 56 54 53 53 53 55 58 63 80 94 87 70 70 79 80 77 77 85 81 78 64 58 58 59 65 69
65 72 72 77 82 86 85 73 63 56 53 52 56 60 58 55 51 50 51 51 52 54 55 55 59 63 70 74 77 77 81 75 74 77 80 85 86 78 64 60 63 69 72
63 70 76 82 83 83 83 79 70 65 53 54 58 62 58 54 51 49 48 48 51 54 57 58 55 60 62 66 76 80 76 77 74 81 82 78 86 86 75 66 69 75 79
71 75 72 78 84 83 83 84 84 75 65 60 59 60 60 56 53 49 46 46 49 53 57 59 60 58 59 61 64 73 75 74 71 76 81 72 81 83 84 78 75 87 93
71 74 75 78 76 80 82 83 85 85 78 70 65 62 60 59 55 50 48 49 50 52 55 60 64 66 65 64 64 64 67 68 70 73 76 67 77 85 89 89 85 92 96
76 78 77 79 78 80 83 85 87 82 84 77 78 77 72 67 63 59 55 51 51 51 52 53 56 61 68 69 66 67 67 66 66 65 66 55 68 90 97 99 95 94 95
74 73 80 81 76 76 77 82 82 82 82 75 83 83 81 75 71 66 62 57 54 54 56 55 59 68 72 75 76 74 71 70 70 70 68 53 53 74 98 99 99 97 96
73 72 73 73 73 74 80 80 81 82 88 90 83 88 92 80 74 69 68 67 63 58 55 60 63 70 74 79 75 72 64 63 63 64 69 67 65 85 96 99 100 98 93
76 76 77 78 78 77 82 84 76 78 92 89 86 86 94 88 68 61 66 66 68 65 61 63 68 68 70 70 67 60 56 54 53 61 67 71 70 74 82 94 97 97 95
79 78 78 79 81 82 82 80 84 87 88 97 93 92 84 82 86 81 71 71 68 69 69 67 68 68 60 53 51 50 54 65 60 64 67 64 77 84 90 98 99 98 98
85 83 82 82 83 86 88 85 84 94 95 95 96 93 100 95 93 94 91 78 72 66 68 68 68 66 59 58 59 56 61 56 54 61 66 88 89 86 89 90 99 99 94
81 80 81 85 86 84 87 93 93 90 92 96 99 99 96 95 97 97 96 97 92 79 74 58 61 67 68 65 60 60 55 56 68 72 77 95 96 93 92 96 99 98 91
78 78 86 88 89 88 88 94 96 97 98 98 99 100 98 95 88 89 92 90 90 76 69 70 70 68 64 71 66 62 66 77 83 81 82 98 98 90 95 97 98 97 94
78 81 90 85 88 99 96 97 100 97 92 96 100 99 100 97 93 87 83 84 88 85 77 78 73 71 71 70 70 76 82 85 85 82 82 80 84 87 95 97 96 94 92
79 85 91 91 90 91 90 94 94 95 99 100 100 100 100 98 94 86 84 81 86 92 86 76 76 75 77 79 83 87 89 85 83 81 86 85 86 88 91 94 96 91 88
89 94 88 95 96 94 92 94 97 99 94 100 100 98 93 95 94 88 90 94 100 99 97 92 91 91 89 94 92 91 89 90 86 87 88 90 89 96 99 99 100 96 97
99 99 99 96 98 99 99 100 99 100 100 100 100 100 100 100 100 100 100 100 100 100 99 99 99 99 98 92 86 88 86 86 81 79 81 85 94 96 98 99 100 100 100
99 99 100 99 100 98 98 100 98 100 100 100 100 100 99 98 96 95 92 90 89 90 95 97 92 87 86 87 88 91 98 98 98 90 89 92 100 100 99 99 100 100 100
98 96 94 94 97 98 94 99 94 95 95 93 90 90 91 90 90 86 85 85 88 89 89 92 91 83 81 75 72 74 69 69 69 82 95 98 99 98 98 98 100 100 100
95 91 94 98 91 90 94 81 76 73 74 72 73 78 76 68 72 67 76 82 82 85 88 90 88 87 84 82 82 86 90 88 86 84 77 67 72 86 93 96 98 100 100
79 83 82 82 85 72 73 72 66 66 69 71 72 74 70 73 68 78 84 85 83 84 84 82 82 79 79 75 78 88 90 86 82 85 83 80 77 85 84 84 93 100 100
71 72 79 73 71 76 71 73 73 74 72 73 72 68 67 64 72 78 79 78 81 83 85 88 91 85 76 78 82 91 84 85 88 75 81 94 81 99 96 93 90 97 98
68 69 76 72 66 58 53 64 66 64 63 63 63 63 61 66 69 72 73 72 77 86 85 81 82 85 87 87 97 97 94 94 92 91 95 96 91 97 80 79 85 92 98
66 63 72 75 64 65 69 63 64 62 60 62 62 64 64 69 80 81 83 82 83 81 82 83 86 85 87 87 90 94 99 98 97 97 96 96 93 92 86 91 95 95 99
60 66 71 68 66 61 66 66 63 62 62 63 63 64 64 71 82 84 81 79 78 79 80 84 87 86 92 95 95 96 94 97 91 86 89 99 91 98 99 92 88 93 99
59 62 63 61 62 64 62 53 64 66 64 66 64 62 64 76 85 84 84 86 83 80 84 85 90 96 98 98 86 93 99 100 99 96 90 100 98 100 95 98 92 91 98